Darstellungsparameter: Aktuell verwendete Einstellungen:
Skalierung der Graphiken ... ?
xyx+y,   Skalierungsfaktor:      Skalierung: Modus: x, Faktor: 1
Darstellungszeitraum ... ?
Vom - - bis: - -   Zeitraum: 22.01.2020 - 21.04.2020
Min/Max/Avg-Anzeige ... ?
Zeige MMA aktuell
Zeige MMA Monat
Zeige MMA alles
Zeige --A aktuell
Zeige --A Monat
Zeige --A alles
Keine MMA-Anzeige
MMA:
Average (ber die Originaldaten)
MMA-Basis: 11.04.2020 - 13.05.2020
Quicknavigation für Darstellung... ?
Tage:      1T, 2T, 3T, 5T -1T -2T -3T -5T +1T +2T +3T +5T
Wochen: 1W, 2W, 3W -1W -2W -3W +1W +2W +3W
Monate: 1M, 3M, 6M -1M -3M -6M +1M +3M +6M
Jahre:    1J, 3J, 5J, 10J -1J -3J -5J -10J +1J +3J +5J +10J
Nutze für die Darstellung ... ?
Originaldaten oder Mittelwerte auf ...
Stundenbasis Tagesbasis Wochenbasis
Monatsbasis Jahresbasis      Datenbasis: Original-Daten
Darstellen als:
Statistik (Auto) Statistik J:M      Darstellung:
Zur Graphik,    zurück zur Übersicht aller Sensoren.
 
Tabellarische Datenbersicht: ?
 
Sensor: Nr:Datum:Temp:Abs-Feuchte:Windchill:Wind:
Aussen-T/F 1 22-01-2020 00:00:00 -2.3 C 4 g/m*3 -2.3 C 0 km/h
2 22-01-2020 00:05:00 -2.3 C 4 g/m*3 -2.3 C 0 km/h
3 22-01-2020 00:10:00 -2.3 C 4 g/m*3 -2.3 C 0 km/h
4 22-01-2020 00:15:00 -2.4 C 3.98 g/m*3 -2.4 C 0 km/h
5 22-01-2020 00:20:00 -2.4 C 3.98 g/m*3 -2.4 C 0 km/h
6 22-01-2020 00:25:00 -2.5 C 3.95 g/m*3 -2.5 C 3.2 km/h
7 22-01-2020 00:30:00 -2.5 C 3.95 g/m*3 -2.5 C 0 km/h
8 22-01-2020 00:35:00 -2.5 C 3.95 g/m*3 -2.5 C 0 km/h
9 22-01-2020 00:40:00 -2.4 C 3.98 g/m*3 -2.4 C 0 km/h
10 22-01-2020 00:45:00 -2.4 C 3.98 g/m*3 -2.4 C 0 km/h
11 22-01-2020 00:50:00 -2.4 C 3.98 g/m*3 -2.4 C 3.2 km/h
12 22-01-2020 00:55:00 -2.5 C 3.95 g/m*3 -2.5 C 0 km/h
13 22-01-2020 01:00:00 -2.5 C 3.95 g/m*3 -2.5 C 0 km/h
14 22-01-2020 01:05:00 -2.6 C 3.92 g/m*3 -2.6 C 0 km/h
15 22-01-2020 01:10:00 -2.6 C 3.92 g/m*3 -2.6 C 0 km/h
16 22-01-2020 01:15:00 -2.6 C 3.92 g/m*3 -2.6 C 1.6 km/h
17 22-01-2020 01:20:00 -2.6 C 3.92 g/m*3 -2.6 C 0 km/h
18 22-01-2020 01:25:00 -2.6 C 3.92 g/m*3 -2.6 C 0 km/h
19 22-01-2020 01:30:00 -2.6 C 3.92 g/m*3 -2.6 C 1.6 km/h
20 22-01-2020 01:35:00 -2.7 C 3.89 g/m*3 -2.7 C 1.6 km/h
21 22-01-2020 01:40:00 -2.7 C 3.89 g/m*3 -2.7 C 0 km/h
22 22-01-2020 01:45:00 -2.7 C 3.89 g/m*3 -2.7 C 0 km/h
23 22-01-2020 01:50:00 -2.7 C 3.89 g/m*3 -2.7 C 0 km/h
24 22-01-2020 01:55:00 -2.7 C 3.89 g/m*3 -2.7 C 0 km/h
25 22-01-2020 02:00:00 -2.7 C 3.89 g/m*3 -2.7 C 1.6 km/h
Sensor: Nr:Datum:Temp:Abs-Feuchte:Windchill:Wind:
Aussen-T/F 26 22-01-2020 02:05:00 -2.7 C 3.89 g/m*3 -2.7 C 1.6 km/h
27 22-01-2020 02:10:00 -2.8 C 3.86 g/m*3 -2.8 C 0 km/h
28 22-01-2020 02:15:00 -2.7 C 3.89 g/m*3 -2.7 C 0 km/h
29 22-01-2020 02:20:00 -2.8 C 3.86 g/m*3 -2.8 C 1.6 km/h
30 22-01-2020 02:25:00 -2.8 C 3.86 g/m*3 -2.8 C 0 km/h
31 22-01-2020 02:30:00 -2.8 C 3.86 g/m*3 -2.8 C 0 km/h
32 22-01-2020 02:35:00 -2.8 C 3.86 g/m*3 -2.8 C 0 km/h
33 22-01-2020 02:40:00 -2.8 C 3.82 g/m*3 -2.8 C 0 km/h
34 22-01-2020 02:45:00 -2.8 C 3.82 g/m*3 -2.8 C 3.2 km/h
35 22-01-2020 02:50:00 -2.8 C 3.82 g/m*3 -2.8 C 0 km/h
36 22-01-2020 02:55:00 -2.8 C 3.82 g/m*3 -2.8 C 1.6 km/h
37 22-01-2020 03:00:00 -2.9 C 3.8 g/m*3 -2.9 C 1.6 km/h
38 22-01-2020 03:05:00 -2.9 C 3.8 g/m*3 -2.9 C 0 km/h
39 22-01-2020 03:10:00 -2.9 C 3.8 g/m*3 -2.9 C 0 km/h
40 22-01-2020 03:15:00 -2.9 C 3.8 g/m*3 -2.9 C 3.2 km/h
41 22-01-2020 03:20:00 -2.9 C 3.8 g/m*3 -2.9 C 1.6 km/h
42 22-01-2020 03:25:00 -3 C 3.77 g/m*3 -3 C 4.8 km/h
43 22-01-2020 03:30:00 -3.1 C 3.74 g/m*3 -3.1 C 0 km/h
44 22-01-2020 03:35:00 -3.1 C 3.74 g/m*3 -3.1 C 0 km/h
45 22-01-2020 03:40:00 -3.1 C 3.74 g/m*3 -3.1 C 1.6 km/h
46 22-01-2020 03:45:00 -3.1 C 3.74 g/m*3 -3.1 C 0 km/h
47 22-01-2020 03:50:00 -3 C 3.77 g/m*3 -3 C 0 km/h
48 22-01-2020 03:55:00 -3 C 3.77 g/m*3 -3 C 1.6 km/h
49 22-01-2020 04:00:00 -3 C 3.77 g/m*3 -3 C 1.6 km/h
50 22-01-2020 04:05:00 -3 C 3.77 g/m*3 -3 C 1.6 km/h
Sensor: Nr:Datum:Temp:Abs-Feuchte:Windchill:Wind:
Aussen-T/F 51 22-01-2020 04:10:00 -2.9 C 3.8 g/m*3 -2.9 C 0 km/h
52 22-01-2020 04:15:00 -2.9 C 3.8 g/m*3 -2.9 C 0 km/h
53 22-01-2020 04:20:00 -2.9 C 3.8 g/m*3 -2.9 C 0 km/h
54 22-01-2020 04:25:00 -2.9 C 3.8 g/m*3 -2.9 C 3.2 km/h
55 22-01-2020 04:30:00 -2.9 C 3.8 g/m*3 -2.9 C 1.6 km/h
56 22-01-2020 04:35:00 -2.9 C 3.8 g/m*3 -2.9 C 1.6 km/h
57 22-01-2020 04:40:00 -2.9 C 3.8 g/m*3 -2.9 C 0 km/h
58 22-01-2020 04:45:00 -2.9 C 3.8 g/m*3 -2.9 C 0 km/h
59 22-01-2020 04:50:00 -2.9 C 3.8 g/m*3 -2.9 C 0 km/h
60 22-01-2020 04:55:00 -2.9 C 3.8 g/m*3 -2.9 C 0 km/h
61 22-01-2020 05:00:00 -3 C 3.77 g/m*3 -3 C 0 km/h
62 22-01-2020 05:05:00 -3 C 3.77 g/m*3 -3 C 0 km/h
63 22-01-2020 05:10:00 -3 C 3.77 g/m*3 -3 C 0 km/h
64 22-01-2020 05:15:00 -3.1 C 3.74 g/m*3 -3.1 C 0 km/h
65 22-01-2020 05:20:00 -3.1 C 3.74 g/m*3 -3.1 C 0 km/h
66 22-01-2020 05:25:00 -3 C 3.77 g/m*3 -3 C 0 km/h
67 22-01-2020 05:30:00 -3 C 3.77 g/m*3 -3 C 3.2 km/h
68 22-01-2020 05:35:00 -2.9 C 3.8 g/m*3 -2.9 C 1.6 km/h
69 22-01-2020 05:40:00 -2.9 C 3.8 g/m*3 -2.9 C 3.2 km/h
70 22-01-2020 05:45:00 -2.9 C 3.8 g/m*3 -2.9 C 1.6 km/h
71 22-01-2020 05:50:00 -2.9 C 3.8 g/m*3 -2.9 C 0 km/h
72 22-01-2020 05:55:00 -2.9 C 3.8 g/m*3 -2.9 C 1.6 km/h
73 22-01-2020 06:00:00 -2.9 C 3.8 g/m*3 -2.9 C 3.2 km/h
74 22-01-2020 06:05:00 -2.9 C 3.8 g/m*3 -2.9 C 1.6 km/h
75 22-01-2020 06:10:00 -2.9 C 3.8 g/m*3 -2.9 C 3.2 km/h
Sensor: Nr:Datum:Temp:Abs-Feuchte:Windchill:Wind:
Aussen-T/F 76 22-01-2020 06:15:00 -3 C 3.77 g/m*3 -3 C 1.6 km/h
77 22-01-2020 06:20:00 -3 C 3.77 g/m*3 -3 C 3.2 km/h
78 22-01-2020 06:25:00 -2.9 C 3.8 g/m*3 -2.9 C 1.6 km/h
79 22-01-2020 06:30:00 -2.9 C 3.8 g/m*3 -2.9 C 1.6 km/h
80 22-01-2020 06:35:00 -2.9 C 3.8 g/m*3 -2.9 C 4.8 km/h
81 22-01-2020 06:40:00 -3 C 3.77 g/m*3 -3 C 0 km/h
82 22-01-2020 06:45:00 -3 C 3.77 g/m*3 -3 C 0 km/h
83 22-01-2020 06:50:00 -2.9 C 3.8 g/m*3 -2.9 C 0 km/h
84 22-01-2020 06:55:00 -2.9 C 3.8 g/m*3 -2.9 C 0 km/h
85 22-01-2020 07:00:00 -2.9 C 3.8 g/m*3 -2.9 C 0 km/h
86 22-01-2020 07:05:00 -2.9 C 3.8 g/m*3 -2.9 C 0 km/h
87 22-01-2020 07:10:00 -2.8 C 3.82 g/m*3 -2.8 C 0 km/h
88 22-01-2020 07:15:00 -2.8 C 3.82 g/m*3 -2.8 C 0 km/h
89 22-01-2020 07:20:00 -2.8 C 3.86 g/m*3 -2.8 C 0 km/h
90 22-01-2020 07:25:00 -2.8 C 3.86 g/m*3 -2.8 C 0 km/h
91 22-01-2020 07:30:00 -2.7 C 3.89 g/m*3 -2.7 C 0 km/h
92 22-01-2020 07:35:00 -2.7 C 3.89 g/m*3 -2.7 C 3.2 km/h
93 22-01-2020 07:40:00 -2.6 C 3.92 g/m*3 -2.6 C 0 km/h
94 22-01-2020 07:45:00 -2.6 C 3.92 g/m*3 -2.6 C 0 km/h
95 22-01-2020 07:50:00 -2.6 C 3.92 g/m*3 -2.6 C 0 km/h
96 22-01-2020 07:55:00 -2.4 C 3.98 g/m*3 -2.4 C 1.6 km/h
97 22-01-2020 08:00:00 -2.4 C 3.98 g/m*3 -2.4 C 0 km/h
98 22-01-2020 08:05:00 -2.4 C 3.98 g/m*3 -2.4 C 1.6 km/h
99 22-01-2020 08:10:00 -2.3 C 4 g/m*3 -2.3 C 4.8 km/h
100 22-01-2020 08:15:00 -2.3 C 4 g/m*3 -5.47 C 8.1 km/h
Sensor: Nr:Datum:Temp:Abs-Feuchte:Windchill:Wind:
Aussen-T/F 101 22-01-2020 08:20:00 -2.4 C 3.98 g/m*3 -4.95 C 6.4 km/h
102 22-01-2020 08:25:00 -2.4 C 3.98 g/m*3 -2.4 C 4.8 km/h
103 22-01-2020 08:30:00 -2.4 C 3.93 g/m*3 -2.4 C 3.2 km/h
104 22-01-2020 08:35:00 -2.4 C 3.93 g/m*3 -2.4 C 4.8 km/h
105 22-01-2020 08:40:00 -2.5 C 3.91 g/m*3 -2.5 C 1.6 km/h
106 22-01-2020 08:45:00 -2.6 C 3.88 g/m*3 -2.6 C 1.6 km/h
107 22-01-2020 08:50:00 -2.5 C 3.91 g/m*3 -2.5 C 0 km/h
108 22-01-2020 08:55:00 -2.4 C 3.98 g/m*3 -2.4 C 0 km/h
109 22-01-2020 09:00:00 -2.4 C 3.98 g/m*3 -2.4 C 0 km/h
110 22-01-2020 09:05:00 -2.3 C 4 g/m*3 -2.3 C 0 km/h
111 22-01-2020 09:10:00 -2.3 C 4 g/m*3 -2.3 C 0 km/h
112 22-01-2020 09:15:00 -2.3 C 4 g/m*3 -2.3 C 0 km/h
113 22-01-2020 09:20:00 -2.3 C 4 g/m*3 -2.3 C 0 km/h
114 22-01-2020 09:25:00 -2.3 C 4 g/m*3 -2.3 C 0 km/h
115 22-01-2020 09:30:00 -2.3 C 4 g/m*3 -2.3 C 0 km/h
116 22-01-2020 09:35:00 -2.3 C 4 g/m*3 -2.3 C 1.6 km/h
117 22-01-2020 09:40:00 -2.3 C 4 g/m*3 -2.3 C 4.8 km/h
118 22-01-2020 09:45:00 -2.3 C 4 g/m*3 -2.3 C 1.6 km/h
119 22-01-2020 09:50:00 -2.2 C 4.03 g/m*3 -2.2 C 4.8 km/h
120 22-01-2020 09:55:00 -2.2 C 4.03 g/m*3 -2.2 C 4.8 km/h
121 22-01-2020 10:00:00 -2.2 C 4.03 g/m*3 -2.2 C 1.6 km/h
122 22-01-2020 10:05:00 -2.2 C 4.03 g/m*3 -2.2 C 1.6 km/h
123 22-01-2020 10:10:00 -2.3 C 4 g/m*3 -2.3 C 4.8 km/h
124 22-01-2020 10:15:00 -2.3 C 4 g/m*3 -5.47 C 8.1 km/h
125 22-01-2020 10:20:00 -2.3 C 4 g/m*3 -4.84 C 6.4 km/h
Sensor: Nr:Datum:Temp:Abs-Feuchte:Windchill:Wind:
Aussen-T/F 126 22-01-2020 10:25:00 -2.3 C 4 g/m*3 -4.84 C 6.4 km/h
127 22-01-2020 10:30:00 -2.3 C 4 g/m*3 -2.3 C 4.8 km/h
128 22-01-2020 10:35:00 -2.4 C 3.98 g/m*3 -2.4 C 4.8 km/h
129 22-01-2020 10:40:00 -2.4 C 3.98 g/m*3 -2.4 C 0 km/h
130 22-01-2020 10:45:00 -2.4 C 3.98 g/m*3 -2.4 C 0 km/h
131 22-01-2020 10:50:00 -2.4 C 3.98 g/m*3 -2.4 C 0 km/h
132 22-01-2020 10:55:00 -2.3 C 4 g/m*3 -2.3 C 0 km/h
133 22-01-2020 11:00:00 -2.3 C 4 g/m*3 -2.3 C 0 km/h
134 22-01-2020 11:05:00 -2.2 C 4.03 g/m*3 -2.2 C 0 km/h
135 22-01-2020 11:10:00 -2.1 C 4.06 g/m*3 -2.1 C 0 km/h
136 22-01-2020 11:15:00 -2 C 4.09 g/m*3 -2 C 0 km/h
137 22-01-2020 11:20:00 -1.9 C 4.12 g/m*3 -1.9 C 0 km/h
138 22-01-2020 11:25:00 -1.8 C 4.15 g/m*3 -1.8 C 0 km/h
139 22-01-2020 11:30:00 -1.7 C 4.18 g/m*3 -1.7 C 0 km/h
140 22-01-2020 11:35:00 -1.6 C 4.21 g/m*3 -1.6 C 3.2 km/h
141 22-01-2020 11:40:00 -1.5 C 4.23 g/m*3 -1.5 C 3.2 km/h
142 22-01-2020 11:45:00 -1.4 C 4.26 g/m*3 -1.4 C 3.2 km/h
143 22-01-2020 11:50:00 -1.3 C 4.29 g/m*3 -1.3 C 3.2 km/h
144 22-01-2020 11:55:00 -1.2 C 4.32 g/m*3 -1.2 C 3.2 km/h
145 22-01-2020 12:00:00 -1.2 C 4.32 g/m*3 -1.2 C 1.6 km/h
146 22-01-2020 12:05:00 -1.1 C 4.35 g/m*3 -1.1 C 1.6 km/h
147 22-01-2020 12:10:00 -1 C 4.38 g/m*3 -1 C 0 km/h
148 22-01-2020 12:15:00 -0.9 C 4.42 g/m*3 -0.9 C 0 km/h
149 22-01-2020 12:20:00 -0.9 C 4.42 g/m*3 -0.9 C 3.2 km/h
150 22-01-2020 12:25:00 -0.9 C 4.42 g/m*3 -0.9 C 3.2 km/h
Sensor: Nr:Datum:Temp:Abs-Feuchte:Windchill:Wind:
Aussen-T/F 151 22-01-2020 12:30:00 -0.9 C 4.42 g/m*3 -0.9 C 3.2 km/h
152 22-01-2020 12:35:00 -0.9 C 4.42 g/m*3 -0.9 C 1.6 km/h
153 22-01-2020 12:40:00 -0.9 C 4.42 g/m*3 -0.9 C 1.6 km/h
154 22-01-2020 12:45:00 -0.8 C 4.45 g/m*3 -0.8 C 1.6 km/h
155 22-01-2020 12:50:00 -0.8 C 4.45 g/m*3 -0.8 C 1.6 km/h
156 22-01-2020 12:55:00 -0.8 C 4.45 g/m*3 -0.8 C 1.6 km/h
157 22-01-2020 13:00:00 -0.7 C 4.48 g/m*3 -0.7 C 3.2 km/h
158 22-01-2020 13:05:00 -0.7 C 4.48 g/m*3 -0.7 C 3.2 km/h
159 22-01-2020 13:10:00 -0.6 C 4.56 g/m*3 -0.6 C 0 km/h
160 22-01-2020 13:15:00 -0.6 C 4.56 g/m*3 -0.6 C 0 km/h
161 22-01-2020 13:20:00 -0.5 C 4.54 g/m*3 -0.5 C 0 km/h
162 22-01-2020 13:25:00 -0.4 C 4.57 g/m*3 -0.4 C 0 km/h
163 22-01-2020 13:30:00 -0.4 C 4.57 g/m*3 -0.4 C 0 km/h
164 22-01-2020 13:35:00 -0.3 C 4.6 g/m*3 -0.3 C 0 km/h
165 22-01-2020 13:40:00 -0.3 C 4.6 g/m*3 -0.3 C 1.6 km/h
166 22-01-2020 13:45:00 -0.3 C 4.65 g/m*3 -0.3 C 0 km/h
167 22-01-2020 13:50:00 -0.2 C 4.68 g/m*3 -0.2 C 0 km/h
168 22-01-2020 13:55:00 -0.2 C 4.68 g/m*3 -0.2 C 1.6 km/h
169 22-01-2020 14:00:00 -0.2 C 4.68 g/m*3 -0.2 C 0 km/h
170 22-01-2020 14:05:00 -0.2 C 4.68 g/m*3 -0.2 C 0 km/h
171 22-01-2020 14:10:00 -0.2 C 4.68 g/m*3 -0.2 C 0 km/h
172 22-01-2020 14:15:00 -0.2 C 4.68 g/m*3 -0.2 C 0 km/h
173 22-01-2020 14:20:00 -0.2 C 4.64 g/m*3 -0.2 C 0 km/h
174 22-01-2020 14:25:00 -0.2 C 4.64 g/m*3 -0.2 C 1.6 km/h
175 22-01-2020 14:30:00 -0.2 C 4.64 g/m*3 -0.2 C 0 km/h
Sensor: Nr:Datum:Temp:Abs-Feuchte:Windchill:Wind:
Aussen-T/F 176 22-01-2020 14:35:00 -0.2 C 4.64 g/m*3 -0.2 C 0 km/h
177 22-01-2020 14:40:00 -0.1 C 4.67 g/m*3 -0.1 C 0 km/h
178 22-01-2020 14:45:00 -0.1 C 4.67 g/m*3 -0.1 C 0 km/h
179 22-01-2020 14:50:00 -0.1 C 4.67 g/m*3 -0.1 C 0 km/h
180 22-01-2020 14:55:00 -0.1 C 4.67 g/m*3 -0.1 C 0 km/h
181 22-01-2020 15:00:00 -0.1 C 4.72 g/m*3 -0.1 C 0 km/h
182 22-01-2020 15:05:00 0 C 4.75 g/m*3 0 C 0 km/h
183 22-01-2020 15:10:00 0 C 4.75 g/m*3 0 C 0 km/h
184 22-01-2020 15:15:00 0 C 4.75 g/m*3 0 C 0 km/h
185 22-01-2020 15:20:00 0.1 C 4.78 g/m*3 0.1 C 0 km/h
186 22-01-2020 15:25:00 0.1 C 4.78 g/m*3 0.1 C 0 km/h
187 22-01-2020 15:30:00 0.1 C 4.73 g/m*3 0.1 C 0 km/h
188 22-01-2020 15:35:00 0.1 C 4.73 g/m*3 0.1 C 0 km/h
189 22-01-2020 15:40:00 0.2 C 4.77 g/m*3 0.2 C 0 km/h
190 22-01-2020 15:45:00 0.2 C 4.77 g/m*3 0.2 C 0 km/h
191 22-01-2020 15:50:00 0.2 C 4.77 g/m*3 0.2 C 0 km/h
192 22-01-2020 15:55:00 0.2 C 4.77 g/m*3 0.2 C 0 km/h
193 22-01-2020 16:00:00 0.2 C 4.77 g/m*3 0.2 C 0 km/h
194 22-01-2020 16:05:00 0.2 C 4.77 g/m*3 0.2 C 0 km/h
195 22-01-2020 16:10:00 0.3 C 4.85 g/m*3 0.3 C 0 km/h
196 22-01-2020 16:15:00 0.3 C 4.85 g/m*3 0.3 C 0 km/h
197 22-01-2020 16:20:00 0.3 C 4.8 g/m*3 0.3 C 0 km/h
198 22-01-2020 16:25:00 0.3 C 4.8 g/m*3 0.3 C 0 km/h
199 22-01-2020 16:30:00 0.3 C 4.8 g/m*3 0.3 C 0 km/h
200 22-01-2020 16:35:00 0.3 C 4.85 g/m*3 0.3 C 0 km/h
Sensor: Nr:Datum:Temp:Abs-Feuchte:Windchill:Wind:
Aussen-T/F 201 22-01-2020 16:40:00 0.3 C 4.8 g/m*3 0.3 C 0 km/h
202 22-01-2020 16:45:00 0.3 C 4.85 g/m*3 0.3 C 0 km/h
203 22-01-2020 16:50:00 0.3 C 4.8 g/m*3 0.3 C 0 km/h
204 22-01-2020 16:55:00 0.3 C 4.85 g/m*3 0.3 C 0 km/h
205 22-01-2020 17:00:00 0.3 C 4.85 g/m*3 0.3 C 0 km/h
206 22-01-2020 17:05:00 0.3 C 4.85 g/m*3 0.3 C 0 km/h
207 22-01-2020 17:10:00 0.3 C 4.85 g/m*3 0.3 C 0 km/h
208 22-01-2020 17:15:00 0.3 C 4.85 g/m*3 0.3 C 0 km/h
209 22-01-2020 17:20:00 0.3 C 4.85 g/m*3 0.3 C 0 km/h
210 22-01-2020 17:25:00 0.3 C 4.85 g/m*3 0.3 C 0 km/h
211 22-01-2020 17:30:00 0.3 C 4.85 g/m*3 0.3 C 0 km/h
212 22-01-2020 17:35:00 0.3 C 4.85 g/m*3 0.3 C 0 km/h
213 22-01-2020 17:40:00 0.3 C 4.85 g/m*3 0.3 C 0 km/h
214 22-01-2020 17:45:00 0.3 C 4.85 g/m*3 0.3 C 0 km/h
215 22-01-2020 17:50:00 0.3 C 4.85 g/m*3 0.3 C 0 km/h
216 22-01-2020 17:55:00 0.3 C 4.85 g/m*3 0.3 C 0 km/h
217 22-01-2020 18:00:00 0.3 C 4.85 g/m*3 0.3 C 0 km/h
218 22-01-2020 18:05:00 0.3 C 4.85 g/m*3 0.3 C 0 km/h
219 22-01-2020 18:10:00 0.3 C 4.85 g/m*3 0.3 C 0 km/h
220 22-01-2020 18:15:00 0.3 C 4.85 g/m*3 0.3 C 0 km/h
221 22-01-2020 18:20:00 0.3 C 4.85 g/m*3 0.3 C 0 km/h
222 22-01-2020 18:25:00 0.3 C 4.85 g/m*3 0.3 C 0 km/h
223 22-01-2020 18:30:00 0.3 C 4.85 g/m*3 0.3 C 0 km/h
224 22-01-2020 18:35:00 0.2 C 4.81 g/m*3 0.2 C 0 km/h
225 22-01-2020 18:40:00 0.2 C 4.77 g/m*3 0.2 C 0 km/h
Sensor: Nr:Datum:Temp:Abs-Feuchte:Windchill:Wind:
Aussen-T/F 226 22-01-2020 18:45:00 0.2 C 4.77 g/m*3 0.2 C 0 km/h
227 22-01-2020 18:50:00 0.2 C 4.77 g/m*3 0.2 C 0 km/h
228 22-01-2020 18:55:00 0.2 C 4.77 g/m*3 0.2 C 0 km/h
229 22-01-2020 19:00:00 0.3 C 4.85 g/m*3 0.3 C 0 km/h
230 22-01-2020 19:05:00 0.3 C 4.85 g/m*3 0.3 C 0 km/h
231 22-01-2020 19:10:00 0.3 C 4.85 g/m*3 0.3 C 0 km/h
232 22-01-2020 19:15:00 0.3 C 4.85 g/m*3 0.3 C 0 km/h
233 22-01-2020 19:20:00 0.3 C 4.85 g/m*3 0.3 C 0 km/h
234 22-01-2020 19:25:00 0.3 C 4.85 g/m*3 0.3 C 0 km/h
235 22-01-2020 19:30:00 0.4 C 4.88 g/m*3 0.4 C 0 km/h
236 22-01-2020 19:35:00 0.4 C 4.88 g/m*3 0.4 C 0 km/h
237 22-01-2020 19:40:00 0.4 C 4.88 g/m*3 0.4 C 0 km/h
238 22-01-2020 19:45:00 0.4 C 4.88 g/m*3 0.4 C 0 km/h
239 22-01-2020 19:50:00 0.4 C 4.88 g/m*3 0.4 C 0 km/h
240 22-01-2020 19:55:00 0.4 C 4.88 g/m*3 0.4 C 0 km/h
241 22-01-2020 20:00:00 0.5 C 4.91 g/m*3 0.5 C 0 km/h
242 22-01-2020 20:05:00 0.5 C 4.91 g/m*3 0.5 C 0 km/h
243 22-01-2020 20:10:00 0.5 C 4.91 g/m*3 0.5 C 0 km/h
244 22-01-2020 20:15:00 0.5 C 4.91 g/m*3 0.5 C 0 km/h
245 22-01-2020 20:20:00 0.5 C 4.91 g/m*3 0.5 C 0 km/h
246 22-01-2020 20:25:00 0.6 C 4.95 g/m*3 0.6 C 0 km/h
247 22-01-2020 20:30:00 0.6 C 4.95 g/m*3 0.6 C 0 km/h
248 22-01-2020 20:35:00 0.6 C 4.95 g/m*3 0.6 C 0 km/h
249 22-01-2020 20:40:00 0.6 C 4.95 g/m*3 0.6 C 0 km/h
250 22-01-2020 20:45:00 0.6 C 4.95 g/m*3 0.6 C 0 km/h
Sensor: Nr:Datum:Temp:Abs-Feuchte:Windchill:Wind:
Aussen-T/F 251 22-01-2020 20:50:00 0.6 C 4.95 g/m*3 0.6 C 0 km/h
252 22-01-2020 20:55:00 0.6 C 4.95 g/m*3 0.6 C 0 km/h
253 22-01-2020 21:00:00 0.6 C 4.95 g/m*3 0.6 C 0 km/h
254 22-01-2020 21:05:00 0.6 C 4.95 g/m*3 0.6 C 0 km/h
255 22-01-2020 21:10:00 0.6 C 4.95 g/m*3 0.6 C 0 km/h
256 22-01-2020 21:15:00 0.6 C 4.95 g/m*3 0.6 C 0 km/h
257 22-01-2020 21:20:00 0.7 C 4.98 g/m*3 0.7 C 0 km/h
258 22-01-2020 21:25:00 0.7 C 4.98 g/m*3 0.7 C 0 km/h
259 22-01-2020 21:30:00 0.7 C 4.98 g/m*3 0.7 C 0 km/h
260 22-01-2020 21:35:00 0.7 C 4.98 g/m*3 0.7 C 0 km/h
261 22-01-2020 21:40:00 0.7 C 4.98 g/m*3 0.7 C 0 km/h
262 22-01-2020 21:45:00 0.7 C 4.98 g/m*3 0.7 C 0 km/h
263 22-01-2020 21:50:00 0.7 C 4.98 g/m*3 0.7 C 0 km/h
264 22-01-2020 21:55:00 0.7 C 4.98 g/m*3 0.7 C 0 km/h
265 22-01-2020 22:00:00 0.7 C 4.98 g/m*3 0.7 C 0 km/h
266 22-01-2020 22:05:00 0.7 C 4.98 g/m*3 0.7 C 0 km/h
267 22-01-2020 22:10:00 0.7 C 4.98 g/m*3 0.7 C 0 km/h
268 22-01-2020 22:15:00 0.7 C 4.98 g/m*3 0.7 C 0 km/h
269 22-01-2020 22:20:00 0.7 C 4.98 g/m*3 0.7 C 0 km/h
270 22-01-2020 22:25:00 0.7 C 4.98 g/m*3 0.7 C 0 km/h
271 22-01-2020 22:30:00 0.7 C 4.98 g/m*3 0.7 C 0 km/h
272 22-01-2020 22:35:00 0.7 C 4.98 g/m*3 0.7 C 0 km/h
273 22-01-2020 22:40:00 0.7 C 4.98 g/m*3 0.7 C 0 km/h
274 22-01-2020 22:45:00 0.8 C 5.02 g/m*3 0.8 C 0 km/h
275 22-01-2020 22:50:00 0.8 C 5.02 g/m*3 0.8 C 0 km/h
Sensor: Nr:Datum:Temp:Abs-Feuchte:Windchill:Wind:
Aussen-T/F 276 22-01-2020 22:55:00 0.8 C 5.02 g/m*3 0.8 C 0 km/h
277 22-01-2020 23:00:00 0.8 C 5.02 g/m*3 0.8 C 0 km/h
278 22-01-2020 23:05:00 0.8 C 5.02 g/m*3 0.8 C 0 km/h
279 22-01-2020 23:10:00 0.8 C 5.02 g/m*3 0.8 C 0 km/h
280 22-01-2020 23:15:00 0.8 C 5.02 g/m*3 0.8 C 0 km/h
281 22-01-2020 23:20:00 0.8 C 5.02 g/m*3 0.8 C 0 km/h
282 22-01-2020 23:25:00 0.8 C 5.02 g/m*3 0.8 C 0 km/h
283 22-01-2020 23:30:00 0.8 C 5.02 g/m*3 0.8 C 0 km/h
284 22-01-2020 23:35:00 0.8 C 5.02 g/m*3 0.8 C 0 km/h
285 22-01-2020 23:40:00 0.8 C 5.02 g/m*3 0.8 C 0 km/h
286 22-01-2020 23:45:00 0.8 C 5.02 g/m*3 0.8 C 0 km/h
287 22-01-2020 23:50:00 0.8 C 5.02 g/m*3 0.8 C 0 km/h
288 22-01-2020 23:55:00 0.8 C 5.02 g/m*3 0.8 C 0 km/h
289 23-01-2020 00:00:00 0.8 C 5.02 g/m*3 0.8 C 0 km/h
290 23-01-2020 00:05:00 0.8 C 5.02 g/m*3 0.8 C 0 km/h
291 23-01-2020 00:10:00 0.8 C 5.02 g/m*3 0.8 C 0 km/h
292 23-01-2020 00:15:00 0.8 C 5.02 g/m*3 0.8 C 0 km/h
293 23-01-2020 00:20:00 0.8 C 5.02 g/m*3 0.8 C 0 km/h
294 23-01-2020 00:25:00 0.9 C 5.05 g/m*3 0.9 C 0 km/h
295 23-01-2020 00:30:00 0.9 C 5.05 g/m*3 0.9 C 0 km/h
296 23-01-2020 00:35:00 0.9 C 5.05 g/m*3 0.9 C 0 km/h
297 23-01-2020 00:40:00 0.9 C 5.05 g/m*3 0.9 C 0 km/h
298 23-01-2020 00:45:00 0.9 C 5.05 g/m*3 0.9 C 0 km/h
299 23-01-2020 00:50:00 0.9 C 5.05 g/m*3 0.9 C 0 km/h
300 23-01-2020 00:55:00 0.9 C 5.05 g/m*3 0.9 C 0 km/h
Sensor: Nr:Datum:Temp:Abs-Feuchte:Windchill:Wind:
Aussen-T/F 301 23-01-2020 01:00:00 0.9 C 5.05 g/m*3 0.9 C 0 km/h
302 23-01-2020 01:05:00 0.9 C 5.05 g/m*3 0.9 C 0 km/h
303 23-01-2020 01:10:00 0.9 C 5.05 g/m*3 0.9 C 0 km/h
304 23-01-2020 01:15:00 0.9 C 5.05 g/m*3 0.9 C 0 km/h
305 23-01-2020 01:20:00 0.9 C 5.05 g/m*3 0.9 C 0 km/h
306 23-01-2020 01:25:00 0.9 C 5.05 g/m*3 0.9 C 0 km/h
307 23-01-2020 01:30:00 0.9 C 5.05 g/m*3 0.9 C 0 km/h
308 23-01-2020 01:35:00 0.9 C 5.05 g/m*3 0.9 C 0 km/h
309 23-01-2020 01:40:00 0.9 C 5.05 g/m*3 0.9 C 0 km/h
310 23-01-2020 01:45:00 0.9 C 5.05 g/m*3 0.9 C 0 km/h
311 23-01-2020 01:50:00 0.9 C 5.05 g/m*3 0.9 C 0 km/h
312 23-01-2020 01:55:00 0.9 C 5.05 g/m*3 0.9 C 0 km/h
313 23-01-2020 02:00:00 0.9 C 5.05 g/m*3 0.9 C 0 km/h
314 23-01-2020 02:05:00 0.9 C 5.05 g/m*3 0.9 C 0 km/h
315 23-01-2020 02:10:00 0.9 C 5.05 g/m*3 0.9 C 0 km/h
316 23-01-2020 02:15:00 0.9 C 5.05 g/m*3 0.9 C 0 km/h
317 23-01-2020 02:20:00 1 C 5.09 g/m*3 1 C 0 km/h
318 23-01-2020 02:25:00 1 C 5.09 g/m*3 1 C 0 km/h
319 23-01-2020 02:30:00 1 C 5.09 g/m*3 1 C 0 km/h
320 23-01-2020 02:35:00 1 C 5.09 g/m*3 1 C 0 km/h
321 23-01-2020 02:40:00 1.1 C 5.12 g/m*3 1.1 C 0 km/h
322 23-01-2020 02:45:00 1.1 C 5.12 g/m*3 1.1 C 0 km/h
323 23-01-2020 02:50:00 1.1 C 5.12 g/m*3 1.1 C 0 km/h
324 23-01-2020 02:55:00 1.1 C 5.12 g/m*3 1.1 C 0 km/h
325 23-01-2020 03:00:00 1.1 C 5.12 g/m*3 1.1 C 0 km/h
Sensor: Nr:Datum:Temp:Abs-Feuchte:Windchill:Wind:
Aussen-T/F 326 23-01-2020 03:05:00 1.1 C 5.12 g/m*3 1.1 C 0 km/h
327 23-01-2020 03:10:00 1.1 C 5.12 g/m*3 1.1 C 0 km/h
328 23-01-2020 03:15:00 1.1 C 5.12 g/m*3 1.1 C 0 km/h
329 23-01-2020 03:20:00 1.1 C 5.12 g/m*3 1.1 C 0 km/h
330 23-01-2020 03:25:00 1.1 C 5.12 g/m*3 1.1 C 0 km/h
331 23-01-2020 03:30:00 1.1 C 5.12 g/m*3 1.1 C 0 km/h
332 23-01-2020 03:35:00 1.1 C 5.12 g/m*3 1.1 C 0 km/h
333 23-01-2020 03:40:00 1.1 C 5.12 g/m*3 1.1 C 0 km/h
334 23-01-2020 03:45:00 1.1 C 5.12 g/m*3 1.1 C 0 km/h
335 23-01-2020 03:50:00 1.1 C 5.12 g/m*3 1.1 C 0 km/h
336 23-01-2020 03:55:00 1.1 C 5.12 g/m*3 1.1 C 0 km/h
337 23-01-2020 04:00:00 1.1 C 5.12 g/m*3 1.1 C 0 km/h
338 23-01-2020 04:05:00 1.1 C 5.12 g/m*3 1.1 C 0 km/h
339 23-01-2020 04:10:00 1.1 C 5.12 g/m*3 1.1 C 0 km/h
340 23-01-2020 04:15:00 1.1 C 5.12 g/m*3 1.1 C 0 km/h
341 23-01-2020 04:20:00 1.1 C 5.12 g/m*3 1.1 C 0 km/h
342 23-01-2020 04:25:00 1.1 C 5.12 g/m*3 1.1 C 0 km/h
343 23-01-2020 04:30:00 1.1 C 5.12 g/m*3 1.1 C 0 km/h
344 23-01-2020 04:35:00 1.1 C 5.12 g/m*3 1.1 C 0 km/h
345 23-01-2020 04:40:00 1.1 C 5.12 g/m*3 1.1 C 0 km/h
346 23-01-2020 04:45:00 1.1 C 5.12 g/m*3 1.1 C 0 km/h
347 23-01-2020 04:50:00 1.1 C 5.12 g/m*3 1.1 C 0 km/h
348 23-01-2020 04:55:00 1.2 C 5.16 g/m*3 1.2 C 0 km/h
349 23-01-2020 05:00:00 1.2 C 5.16 g/m*3 1.2 C 0 km/h
350 23-01-2020 05:05:00 1.2 C 5.16 g/m*3 1.2 C 0 km/h
Sensor: Nr:Datum:Temp:Abs-Feuchte:Windchill:Wind:
Aussen-T/F 351 23-01-2020 05:10:00 1.2 C 5.16 g/m*3 1.2 C 0 km/h
352 23-01-2020 05:15:00 1.2 C 5.16 g/m*3 1.2 C 0 km/h
353 23-01-2020 05:20:00 1.2 C 5.16 g/m*3 1.2 C 0 km/h
354 23-01-2020 05:25:00 1.2 C 5.16 g/m*3 1.2 C 0 km/h
355 23-01-2020 05:30:00 1.2 C 5.16 g/m*3 1.2 C 0 km/h
356 23-01-2020 05:35:00 1.2 C 5.16 g/m*3 1.2 C 0 km/h
357 23-01-2020 05:40:00 1.2 C 5.16 g/m*3 1.2 C 0 km/h
358 23-01-2020 05:45:00 1.2 C 5.16 g/m*3 1.2 C 0 km/h
359 23-01-2020 05:50:00 1.2 C 5.16 g/m*3 1.2 C 0 km/h
360 23-01-2020 05:55:00 1.2 C 5.16 g/m*3 1.2 C 0 km/h
361 23-01-2020 06:00:00 1.2 C 5.16 g/m*3 1.2 C 0 km/h
362 23-01-2020 06:05:00 1.2 C 5.16 g/m*3 1.2 C 0 km/h
363 23-01-2020 06:10:00 1.2 C 5.16 g/m*3 1.2 C 0 km/h
364 23-01-2020 06:15:00 1.2 C 5.16 g/m*3 1.2 C 0 km/h
365 23-01-2020 06:20:00 1.2 C 5.16 g/m*3 1.2 C 0 km/h
366 23-01-2020 06:25:00 1.2 C 5.16 g/m*3 1.2 C 0 km/h
367 23-01-2020 06:30:00 1.3 C 5.19 g/m*3 1.3 C 0 km/h
368 23-01-2020 06:35:00 1.3 C 5.19 g/m*3 1.3 C 0 km/h
369 23-01-2020 06:40:00 1.3 C 5.19 g/m*3 1.3 C 0 km/h
370 23-01-2020 06:45:00 1.3 C 5.19 g/m*3 1.3 C 0 km/h
371 23-01-2020 06:50:00 1.3 C 5.19 g/m*3 1.3 C 0 km/h
372 23-01-2020 06:55:00 1.3 C 5.19 g/m*3 1.3 C 0 km/h
373 23-01-2020 07:00:00 1.3 C 5.19 g/m*3 1.3 C 0 km/h
374 23-01-2020 07:05:00 1.3 C 5.19 g/m*3 1.3 C 0 km/h
375 23-01-2020 07:10:00 1.3 C 5.19 g/m*3 1.3 C 0 km/h
Sensor: Nr:Datum:Temp:Abs-Feuchte:Windchill:Wind:
Aussen-T/F 376 23-01-2020 07:15:00 1.3 C 5.19 g/m*3 1.3 C 0 km/h
377 23-01-2020 07:20:00 1.3 C 5.19 g/m*3 1.3 C 0 km/h
378 23-01-2020 07:25:00 1.3 C 5.19 g/m*3 1.3 C 0 km/h
379 23-01-2020 07:30:00 1.3 C 5.19 g/m*3 1.3 C 0 km/h
380 23-01-2020 07:35:00 1.4 C 5.23 g/m*3 1.4 C 0 km/h
381 23-01-2020 07:40:00 1.4 C 5.23 g/m*3 1.4 C 0 km/h
382 23-01-2020 07:45:00 1.4 C 5.23 g/m*3 1.4 C 0 km/h
383 23-01-2020 07:50:00 1.4 C 5.23 g/m*3 1.4 C 0 km/h
384 23-01-2020 07:55:00 1.4 C 5.23 g/m*3 1.4 C 0 km/h
385 23-01-2020 08:00:00 1.4 C 5.23 g/m*3 1.4 C 0 km/h
386 23-01-2020 08:05:00 1.4 C 5.23 g/m*3 1.4 C 0 km/h
387 23-01-2020 08:10:00 1.4 C 5.23 g/m*3 1.4 C 0 km/h
388 23-01-2020 08:15:00 1.4 C 5.23 g/m*3 1.4 C 0 km/h
389 23-01-2020 08:20:00 1.5 C 5.26 g/m*3 1.5 C 0 km/h
390 23-01-2020 08:25:00 1.5 C 5.26 g/m*3 1.5 C 0 km/h
391 23-01-2020 08:30:00 1.5 C 5.26 g/m*3 1.5 C 0 km/h
392 23-01-2020 08:35:00 1.5 C 5.26 g/m*3 1.5 C 0 km/h
393 23-01-2020 08:40:00 1.6 C 5.3 g/m*3 1.6 C 0 km/h
394 23-01-2020 08:45:00 1.6 C 5.3 g/m*3 1.6 C 0 km/h
395 23-01-2020 08:50:00 1.6 C 5.3 g/m*3 1.6 C 0 km/h
396 23-01-2020 08:55:00 1.6 C 5.3 g/m*3 1.6 C 0 km/h
397 23-01-2020 09:00:00 1.6 C 5.3 g/m*3 1.6 C 0 km/h
398 23-01-2020 09:05:00 1.6 C 5.3 g/m*3 1.6 C 0 km/h
399 23-01-2020 09:10:00 1.6 C 5.3 g/m*3 1.6 C 1.6 km/h
400 23-01-2020 09:15:00 1.7 C 5.34 g/m*3 1.7 C 0 km/h
Sensor: Nr:Datum:Temp:Abs-Feuchte:Windchill:Wind:
Aussen-T/F 401 23-01-2020 09:20:00 1.7 C 5.34 g/m*3 1.7 C 0 km/h
402 23-01-2020 09:25:00 1.7 C 5.34 g/m*3 1.7 C 0 km/h
403 23-01-2020 09:30:00 1.7 C 5.34 g/m*3 1.7 C 0 km/h
404 23-01-2020 09:35:00 1.7 C 5.34 g/m*3 1.7 C 0 km/h
405 23-01-2020 09:40:00 1.8 C 5.37 g/m*3 1.8 C 4.8 km/h
406 23-01-2020 09:45:00 1.8 C 5.37 g/m*3 1.8 C 0 km/h
407 23-01-2020 09:50:00 1.8 C 5.37 g/m*3 1.8 C 4.8 km/h
408 23-01-2020 09:55:00 1.8 C 5.37 g/m*3 1.8 C 4.8 km/h
409 23-01-2020 10:00:00 1.8 C 5.37 g/m*3 1.8 C 0 km/h
410 23-01-2020 10:05:00 1.8 C 5.37 g/m*3 1.8 C 3.2 km/h
411 23-01-2020 10:10:00 1.8 C 5.37 g/m*3 1.8 C 3.2 km/h
412 23-01-2020 10:15:00 1.8 C 5.37 g/m*3 1.8 C 3.2 km/h
413 23-01-2020 10:20:00 1.8 C 5.37 g/m*3 1.8 C 0 km/h
414 23-01-2020 10:25:00 1.8 C 5.37 g/m*3 1.8 C 0 km/h
415 23-01-2020 10:30:00 1.9 C 5.41 g/m*3 1.9 C 4.8 km/h
416 23-01-2020 10:35:00 1.9 C 5.41 g/m*3 1.9 C 1.6 km/h
417 23-01-2020 10:40:00 1.9 C 5.41 g/m*3 1.9 C 0 km/h
418 23-01-2020 10:45:00 1.9 C 5.41 g/m*3 1.9 C 0 km/h
419 23-01-2020 10:50:00 1.9 C 5.41 g/m*3 1.9 C 0 km/h
420 23-01-2020 10:55:00 2 C 5.45 g/m*3 2 C 0 km/h
421 23-01-2020 11:00:00 2 C 5.45 g/m*3 2 C 3.2 km/h
422 23-01-2020 11:05:00 2 C 5.45 g/m*3 2 C 0 km/h
423 23-01-2020 11:10:00 2 C 5.45 g/m*3 2 C 0 km/h
424 23-01-2020 11:15:00 2.1 C 5.48 g/m*3 2.1 C 0 km/h
425 23-01-2020 11:20:00 2.1 C 5.48 g/m*3 2.1 C 0 km/h
Sensor: Nr:Datum:Temp:Abs-Feuchte:Windchill:Wind:
Aussen-T/F 426 23-01-2020 11:25:00 2.1 C 5.48 g/m*3 2.1 C 3.2 km/h
427 23-01-2020 11:30:00 2.1 C 5.48 g/m*3 2.1 C 0 km/h
428 23-01-2020 11:35:00 2.2 C 5.52 g/m*3 2.2 C 0 km/h
429 23-01-2020 11:40:00 2.2 C 5.52 g/m*3 2.2 C 1.6 km/h
430 23-01-2020 11:45:00 2.1 C 5.48 g/m*3 2.1 C 1.6 km/h
431 23-01-2020 11:50:00 2.1 C 5.48 g/m*3 2.1 C 3.2 km/h
432 23-01-2020 11:55:00 2.1 C 5.48 g/m*3 2.1 C 3.2 km/h
433 23-01-2020 12:00:00 2.1 C 5.48 g/m*3 2.1 C 4.8 km/h
434 23-01-2020 12:05:00 2.1 C 5.48 g/m*3 2.1 C 3.2 km/h
435 23-01-2020 12:10:00 2.2 C 5.52 g/m*3 2.2 C 0 km/h
436 23-01-2020 12:15:00 2.2 C 5.52 g/m*3 2.2 C 0 km/h
437 23-01-2020 12:20:00 2.3 C 5.56 g/m*3 2.3 C 3.2 km/h
438 23-01-2020 12:25:00 2.2 C 5.52 g/m*3 2.2 C 4.8 km/h
439 23-01-2020 12:30:00 2.2 C 5.52 g/m*3 2.2 C 1.6 km/h
440 23-01-2020 12:35:00 2.2 C 5.52 g/m*3 2.2 C 3.2 km/h
441 23-01-2020 12:40:00 2.2 C 5.52 g/m*3 2.2 C 3.2 km/h
442 23-01-2020 12:45:00 2.2 C 5.52 g/m*3 2.2 C 0 km/h
443 23-01-2020 12:50:00 2.3 C 5.56 g/m*3 2.3 C 1.6 km/h
444 23-01-2020 12:55:00 2.3 C 5.56 g/m*3 0.47 C 6.4 km/h
445 23-01-2020 13:00:00 2.3 C 5.56 g/m*3 2.3 C 0 km/h
446 23-01-2020 13:05:00 2.3 C 5.56 g/m*3 2.3 C 1.6 km/h
447 23-01-2020 13:10:00 2.3 C 5.5 g/m*3 2.3 C 0 km/h
448 23-01-2020 13:15:00 2.4 C 5.54 g/m*3 2.4 C 0 km/h
449 23-01-2020 13:20:00 2.4 C 5.54 g/m*3 2.4 C 0 km/h
450 23-01-2020 13:25:00 2.4 C 5.54 g/m*3 2.4 C 1.6 km/h
Sensor: Nr:Datum:Temp:Abs-Feuchte:Windchill:Wind:
Aussen-T/F 451 23-01-2020 13:30:00 2.4 C 5.6 g/m*3 2.4 C 0 km/h
452 23-01-2020 13:35:00 2.4 C 5.6 g/m*3 2.4 C 0 km/h
453 23-01-2020 13:40:00 2.5 C 5.58 g/m*3 2.5 C 0 km/h
454 23-01-2020 13:45:00 2.6 C 5.61 g/m*3 2.6 C 0 km/h
455 23-01-2020 13:50:00 2.5 C 5.58 g/m*3 2.5 C 0 km/h
456 23-01-2020 13:55:00 2.4 C 5.54 g/m*3 2.4 C 1.6 km/h
457 23-01-2020 14:00:00 2.5 C 5.58 g/m*3 2.5 C 1.6 km/h
458 23-01-2020 14:05:00 2.4 C 5.54 g/m*3 2.4 C 4.8 km/h
459 23-01-2020 14:10:00 2.5 C 5.58 g/m*3 2.5 C 1.6 km/h
460 23-01-2020 14:15:00 2.6 C 5.61 g/m*3 2.6 C 0 km/h
461 23-01-2020 14:20:00 2.6 C 5.61 g/m*3 2.6 C 0 km/h
462 23-01-2020 14:25:00 2.6 C 5.61 g/m*3 2.6 C 0 km/h
463 23-01-2020 14:30:00 2.7 C 5.65 g/m*3 2.7 C 3.2 km/h
464 23-01-2020 14:35:00 2.6 C 5.56 g/m*3 2.6 C 4.8 km/h
465 23-01-2020 14:40:00 2.6 C 5.56 g/m*3 2.6 C 1.6 km/h
466 23-01-2020 14:45:00 2.6 C 5.56 g/m*3 2.6 C 0 km/h
467 23-01-2020 14:50:00 2.6 C 5.56 g/m*3 2.6 C 0 km/h
468 23-01-2020 14:55:00 2.6 C 5.56 g/m*3 2.6 C 0 km/h
469 23-01-2020 15:00:00 2.7 C 5.59 g/m*3 2.7 C 0 km/h
470 23-01-2020 15:05:00 2.6 C 5.56 g/m*3 2.6 C 3.2 km/h
471 23-01-2020 15:10:00 2.6 C 5.56 g/m*3 2.6 C 0 km/h
472 23-01-2020 15:15:00 2.6 C 5.56 g/m*3 2.6 C 0 km/h
473 23-01-2020 15:20:00 2.6 C 5.56 g/m*3 2.6 C 0 km/h
474 23-01-2020 15:25:00 2.6 C 5.56 g/m*3 2.6 C 0 km/h
475 23-01-2020 15:30:00 2.7 C 5.59 g/m*3 2.7 C 0 km/h
Sensor: Nr:Datum:Temp:Abs-Feuchte:Windchill:Wind:
Aussen-T/F 476 23-01-2020 15:35:00 2.7 C 5.59 g/m*3 2.7 C 0 km/h
477 23-01-2020 15:40:00 2.7 C 5.59 g/m*3 2.7 C 0 km/h
478 23-01-2020 15:45:00 2.7 C 5.54 g/m*3 2.7 C 0 km/h
479 23-01-2020 15:50:00 2.7 C 5.54 g/m*3 2.7 C 0 km/h
480 23-01-2020 15:55:00 2.7 C 5.54 g/m*3 2.7 C 0 km/h
481 23-01-2020 16:00:00 2.7 C 5.54 g/m*3 2.7 C 0 km/h
482 23-01-2020 16:05:00 2.7 C 5.54 g/m*3 2.7 C 0 km/h
483 23-01-2020 16:10:00 2.7 C 5.54 g/m*3 0.4 C 8.1 km/h
484 23-01-2020 16:15:00 2.6 C 5.5 g/m*3 0.29 C 8.1 km/h
485 23-01-2020 16:20:00 2.6 C 5.5 g/m*3 2.6 C 3.2 km/h
486 23-01-2020 16:25:00 2.6 C 5.5 g/m*3 2.6 C 0 km/h
487 23-01-2020 16:30:00 2.6 C 5.5 g/m*3 2.6 C 0 km/h
488 23-01-2020 16:35:00 2.6 C 5.5 g/m*3 2.6 C 0 km/h
489 23-01-2020 16:40:00 2.6 C 5.5 g/m*3 2.6 C 0 km/h
490 23-01-2020 16:45:00 2.5 C 5.46 g/m*3 2.5 C 0 km/h
491 23-01-2020 16:50:00 2.5 C 5.46 g/m*3 2.5 C 0 km/h
492 23-01-2020 16:55:00 2.5 C 5.46 g/m*3 2.5 C 0 km/h
493 23-01-2020 17:00:00 2.5 C 5.46 g/m*3 2.5 C 0 km/h
494 23-01-2020 17:05:00 2.4 C 5.42 g/m*3 2.4 C 0 km/h
495 23-01-2020 17:10:00 2.4 C 5.42 g/m*3 2.4 C 0 km/h
496 23-01-2020 17:15:00 2.4 C 5.42 g/m*3 2.4 C 0 km/h
497 23-01-2020 17:20:00 2.4 C 5.42 g/m*3 2.4 C 0 km/h
498 23-01-2020 17:25:00 2.3 C 5.39 g/m*3 2.3 C 0 km/h
499 23-01-2020 17:30:00 2.3 C 5.39 g/m*3 2.3 C 0 km/h
500 23-01-2020 17:35:00 2.2 C 5.35 g/m*3 2.2 C 0 km/h
Sensor: Nr:Datum:Temp:Abs-Feuchte:Windchill:Wind:
Aussen-T/F 501 23-01-2020 17:40:00 2.1 C 5.31 g/m*3 2.1 C 0 km/h
502 23-01-2020 17:45:00 1.9 C 5.24 g/m*3 1.9 C 0 km/h
503 23-01-2020 17:50:00 1.7 C 5.12 g/m*3 1.7 C 1.6 km/h
504 23-01-2020 17:55:00 1.4 C 5.01 g/m*3 1.4 C 1.6 km/h
505 23-01-2020 18:00:00 1.2 C 4.95 g/m*3 1.2 C 0 km/h
506 23-01-2020 18:05:00 1 C 4.88 g/m*3 1 C 0 km/h
507 23-01-2020 18:10:00 0.8 C 4.81 g/m*3 0.8 C 0 km/h
508 23-01-2020 18:15:00 0.7 C 4.78 g/m*3 0.7 C 0 km/h
509 23-01-2020 18:20:00 0.6 C 4.8 g/m*3 0.6 C 0 km/h
510 23-01-2020 18:25:00 0.6 C 4.8 g/m*3 0.6 C 0 km/h
511 23-01-2020 18:30:00 0.4 C 4.73 g/m*3 0.4 C 0 km/h
512 23-01-2020 18:35:00 0.4 C 4.73 g/m*3 0.4 C 0 km/h
513 23-01-2020 18:40:00 0.3 C 4.7 g/m*3 0.3 C 0 km/h
514 23-01-2020 18:45:00 0.3 C 4.7 g/m*3 0.3 C 0 km/h
515 23-01-2020 18:50:00 0.3 C 4.7 g/m*3 0.3 C 0 km/h
516 23-01-2020 18:55:00 0.3 C 4.7 g/m*3 0.3 C 0 km/h
517 23-01-2020 19:00:00 0.3 C 4.75 g/m*3 0.3 C 0 km/h
518 23-01-2020 19:05:00 0.2 C 4.72 g/m*3 0.2 C 0 km/h
519 23-01-2020 19:10:00 0.1 C 4.63 g/m*3 0.1 C 0 km/h
520 23-01-2020 19:15:00 0 C 4.6 g/m*3 0 C 0 km/h
521 23-01-2020 19:20:00 -0.1 C 4.57 g/m*3 -0.1 C 0 km/h
522 23-01-2020 19:25:00 -0.1 C 4.57 g/m*3 -0.1 C 0 km/h
523 23-01-2020 19:30:00 -0.2 C 4.54 g/m*3 -0.2 C 0 km/h
524 23-01-2020 19:35:00 -0.2 C 4.59 g/m*3 -0.2 C 0 km/h
525 23-01-2020 19:40:00 -0.2 C 4.59 g/m*3 -0.2 C 0 km/h
Sensor: Nr:Datum:Temp:Abs-Feuchte:Windchill:Wind:
Aussen-T/F 526 23-01-2020 19:45:00 -0.3 C 4.56 g/m*3 -0.3 C 0 km/h
527 23-01-2020 19:50:00 -0.3 C 4.56 g/m*3 -0.3 C 0 km/h
528 23-01-2020 19:55:00 -0.3 C 4.56 g/m*3 -0.3 C 0 km/h
529 23-01-2020 20:00:00 -0.3 C 4.56 g/m*3 -0.3 C 0 km/h
530 23-01-2020 20:05:00 -0.4 C 4.52 g/m*3 -0.4 C 0 km/h
531 23-01-2020 20:10:00 -0.5 C 4.49 g/m*3 -0.5 C 0 km/h
532 23-01-2020 20:15:00 -0.6 C 4.46 g/m*3 -0.6 C 0 km/h
533 23-01-2020 20:20:00 -0.6 C 4.46 g/m*3 -0.6 C 0 km/h
534 23-01-2020 20:25:00 -0.7 C 4.43 g/m*3 -0.7 C 0 km/h
535 23-01-2020 20:30:00 -0.7 C 4.43 g/m*3 -0.7 C 0 km/h
536 23-01-2020 20:35:00 -0.7 C 4.43 g/m*3 -0.7 C 0 km/h
537 23-01-2020 20:40:00 -0.7 C 4.43 g/m*3 -0.7 C 0 km/h
538 23-01-2020 20:45:00 -0.7 C 4.43 g/m*3 -0.7 C 0 km/h
539 23-01-2020 20:50:00 -0.6 C 4.46 g/m*3 -0.6 C 0 km/h
540 23-01-2020 20:55:00 -0.6 C 4.46 g/m*3 -0.6 C 0 km/h
541 23-01-2020 21:00:00 -0.4 C 4.52 g/m*3 -0.4 C 0 km/h
542 23-01-2020 21:05:00 -0.3 C 4.6 g/m*3 -0.3 C 0 km/h
543 23-01-2020 21:10:00 -0.3 C 4.6 g/m*3 -0.3 C 0 km/h
544 23-01-2020 21:15:00 -0.2 C 4.64 g/m*3 -0.2 C 0 km/h
545 23-01-2020 21:20:00 -0.2 C 4.64 g/m*3 -0.2 C 0 km/h
546 23-01-2020 21:25:00 -0.1 C 4.67 g/m*3 -0.1 C 0 km/h
547 23-01-2020 21:30:00 -0.1 C 4.67 g/m*3 -0.1 C 0 km/h
548 23-01-2020 21:35:00 0 C 4.7 g/m*3 0 C 0 km/h
549 23-01-2020 21:40:00 0.1 C 4.73 g/m*3 0.1 C 0 km/h
550 23-01-2020 21:45:00 0.1 C 4.73 g/m*3 0.1 C 0 km/h
Sensor: Nr:Datum:Temp:Abs-Feuchte:Windchill:Wind:
Aussen-T/F 551 23-01-2020 21:50:00 0.1 C 4.73 g/m*3 0.1 C 0 km/h
552 23-01-2020 21:55:00 0.2 C 4.77 g/m*3 0.2 C 0 km/h
553 23-01-2020 22:00:00 0.2 C 4.77 g/m*3 0.2 C 0 km/h
554 23-01-2020 22:05:00 0.2 C 4.77 g/m*3 0.2 C 0 km/h
555 23-01-2020 22:10:00 0.2 C 4.77 g/m*3 0.2 C 0 km/h
556 23-01-2020 22:15:00 0.3 C 4.8 g/m*3 0.3 C 0 km/h
557 23-01-2020 22:20:00 0.3 C 4.8 g/m*3 0.3 C 0 km/h
558 23-01-2020 22:25:00 0.3 C 4.8 g/m*3 0.3 C 0 km/h
559 23-01-2020 22:30:00 0.4 C 4.83 g/m*3 0.4 C 0 km/h
560 23-01-2020 22:35:00 0.4 C 4.83 g/m*3 0.4 C 0 km/h
561 23-01-2020 22:40:00 0.4 C 4.83 g/m*3 0.4 C 0 km/h
562 23-01-2020 22:45:00 0.5 C 4.86 g/m*3 0.5 C 0 km/h
563 23-01-2020 22:50:00 0.6 C 4.9 g/m*3 0.6 C 0 km/h
564 23-01-2020 22:55:00 0.6 C 4.9 g/m*3 0.6 C 0 km/h
565 23-01-2020 23:00:00 0.6 C 4.9 g/m*3 0.6 C 0 km/h
566 23-01-2020 23:05:00 0.6 C 4.9 g/m*3 0.6 C 0 km/h
567 23-01-2020 23:10:00 0.7 C 4.93 g/m*3 0.7 C 0 km/h
568 23-01-2020 23:15:00 0.7 C 4.93 g/m*3 0.7 C 0 km/h
569 23-01-2020 23:20:00 0.7 C 4.93 g/m*3 0.7 C 0 km/h
570 23-01-2020 23:25:00 0.7 C 4.93 g/m*3 0.7 C 0 km/h
571 23-01-2020 23:30:00 0.7 C 4.93 g/m*3 0.7 C 0 km/h
572 23-01-2020 23:35:00 0.7 C 4.93 g/m*3 0.7 C 0 km/h
573 23-01-2020 23:40:00 0.7 C 4.93 g/m*3 0.7 C 0 km/h
574 23-01-2020 23:45:00 0.7 C 4.93 g/m*3 0.7 C 0 km/h
575 23-01-2020 23:50:00 0.7 C 4.93 g/m*3 0.7 C 0 km/h
Sensor: Nr:Datum:Temp:Abs-Feuchte:Windchill:Wind:
Aussen-T/F 576 23-01-2020 23:55:00 0.7 C 4.93 g/m*3 0.7 C 0 km/h
577 24-01-2020 00:00:00 0.7 C 4.93 g/m*3 0.7 C 0 km/h
578 24-01-2020 00:05:00 0.8 C 4.97 g/m*3 0.8 C 0 km/h
579 24-01-2020 00:10:00 0.8 C 4.97 g/m*3 0.8 C 3.2 km/h
580 24-01-2020 00:15:00 0.8 C 4.97 g/m*3 0.8 C 0 km/h
581 24-01-2020 00:20:00 0.8 C 4.97 g/m*3 0.8 C 0 km/h
582 24-01-2020 00:25:00 0.8 C 4.97 g/m*3 0.8 C 0 km/h
583 24-01-2020 00:30:00 0.8 C 4.97 g/m*3 0.8 C 3.2 km/h
584 24-01-2020 00:35:00 0.8 C 4.97 g/m*3 0.8 C 0 km/h
585 24-01-2020 00:40:00 0.8 C 4.97 g/m*3 0.8 C 1.6 km/h
586 24-01-2020 00:45:00 0.8 C 4.97 g/m*3 0.8 C 0 km/h
587 24-01-2020 00:50:00 0.8 C 4.97 g/m*3 0.8 C 0 km/h
588 24-01-2020 00:55:00 0.8 C 4.97 g/m*3 0.8 C 0 km/h
589 24-01-2020 01:00:00 0.8 C 4.97 g/m*3 0.8 C 0 km/h
590 24-01-2020 01:05:00 0.8 C 4.97 g/m*3 0.8 C 0 km/h
591 24-01-2020 01:10:00 0.7 C 4.88 g/m*3 0.7 C 1.6 km/h
592 24-01-2020 01:15:00 0.7 C 4.88 g/m*3 0.7 C 0 km/h
593 24-01-2020 01:20:00 0.7 C 4.88 g/m*3 0.7 C 4.8 km/h
594 24-01-2020 01:25:00 0.7 C 4.88 g/m*3 0.7 C 4.8 km/h
595 24-01-2020 01:30:00 0.7 C 4.88 g/m*3 0.7 C 3.2 km/h
596 24-01-2020 01:35:00 0.7 C 4.88 g/m*3 -1.37 C 6.4 km/h
597 24-01-2020 01:40:00 0.7 C 4.88 g/m*3 0.7 C 3.2 km/h
598 24-01-2020 01:45:00 0.7 C 4.88 g/m*3 0.7 C 0 km/h
599 24-01-2020 01:50:00 0.7 C 4.88 g/m*3 0.7 C 3.2 km/h
600 24-01-2020 01:55:00 0.6 C 4.8 g/m*3 -2.92 C 11.3 km/h
Sensor: Nr:Datum:Temp:Abs-Feuchte:Windchill:Wind:
Aussen-T/F 601 24-01-2020 02:00:00 0.6 C 4.8 g/m*3 0.6 C 0 km/h
602 24-01-2020 02:05:00 0.7 C 4.83 g/m*3 0.7 C 0 km/h
603 24-01-2020 02:10:00 0.7 C 4.83 g/m*3 0.7 C 0 km/h
604 24-01-2020 02:15:00 0.7 C 4.83 g/m*3 0.7 C 0 km/h
605 24-01-2020 02:20:00 0.7 C 4.83 g/m*3 0.7 C 0 km/h
606 24-01-2020 02:25:00 0.7 C 4.83 g/m*3 -1.37 C 6.4 km/h
607 24-01-2020 02:30:00 0.7 C 4.83 g/m*3 0.7 C 3.2 km/h
608 24-01-2020 02:35:00 0.7 C 4.83 g/m*3 0.7 C 0 km/h
609 24-01-2020 02:40:00 0.7 C 4.83 g/m*3 0.7 C 0 km/h
610 24-01-2020 02:45:00 0.7 C 4.83 g/m*3 0.7 C 0 km/h
611 24-01-2020 02:50:00 0.7 C 4.78 g/m*3 0.7 C 0 km/h
612 24-01-2020 02:55:00 0.7 C 4.78 g/m*3 0.7 C 0 km/h
613 24-01-2020 03:00:00 0.7 C 4.78 g/m*3 0.7 C 0 km/h
614 24-01-2020 03:05:00 0.7 C 4.78 g/m*3 -1.37 C 6.4 km/h
615 24-01-2020 03:10:00 0.7 C 4.78 g/m*3 0.7 C 1.6 km/h
616 24-01-2020 03:15:00 0.7 C 4.78 g/m*3 0.7 C 3.2 km/h
617 24-01-2020 03:20:00 0.7 C 4.78 g/m*3 0.7 C 1.6 km/h
618 24-01-2020 03:25:00 0.8 C 4.81 g/m*3 0.8 C 1.6 km/h
619 24-01-2020 03:30:00 0.8 C 4.81 g/m*3 0.8 C 1.6 km/h
620 24-01-2020 03:35:00 0.8 C 4.76 g/m*3 0.8 C 0 km/h
621 24-01-2020 03:40:00 0.8 C 4.76 g/m*3 0.8 C 0 km/h
622 24-01-2020 03:45:00 0.8 C 4.76 g/m*3 0.8 C 0 km/h
623 24-01-2020 03:50:00 0.8 C 4.76 g/m*3 0.8 C 0 km/h
624 24-01-2020 03:55:00 0.8 C 4.76 g/m*3 0.8 C 0 km/h
625 24-01-2020 04:00:00 0.8 C 4.76 g/m*3 0.8 C 0 km/h
Sensor: Nr:Datum:Temp:Abs-Feuchte:Windchill:Wind:
Aussen-T/F 626 24-01-2020 04:05:00 0.8 C 4.76 g/m*3 0.8 C 0 km/h
627 24-01-2020 04:10:00 0.8 C 4.81 g/m*3 0.8 C 0 km/h
628 24-01-2020 04:15:00 0.8 C 4.76 g/m*3 -1.83 C 8.1 km/h
629 24-01-2020 04:20:00 0.8 C 4.76 g/m*3 -1.26 C 6.4 km/h
630 24-01-2020 04:25:00 0.8 C 4.76 g/m*3 0.8 C 1.6 km/h
631 24-01-2020 04:30:00 0.8 C 4.76 g/m*3 0.8 C 0 km/h
632 24-01-2020 04:35:00 0.8 C 4.76 g/m*3 0.8 C 0 km/h
633 24-01-2020 04:40:00 0.8 C 4.76 g/m*3 0.8 C 0 km/h
634 24-01-2020 04:45:00 0.8 C 4.76 g/m*3 0.8 C 0 km/h
635 24-01-2020 04:50:00 0.8 C 4.76 g/m*3 0.8 C 0 km/h
636 24-01-2020 04:55:00 0.8 C 4.76 g/m*3 0.8 C 4.8 km/h
637 24-01-2020 05:00:00 0.8 C 4.76 g/m*3 0.8 C 0 km/h
638 24-01-2020 05:05:00 0.8 C 4.76 g/m*3 0.8 C 0 km/h
639 24-01-2020 05:10:00 0.8 C 4.76 g/m*3 0.8 C 0 km/h
640 24-01-2020 05:15:00 0.7 C 4.73 g/m*3 0.7 C 0 km/h
641 24-01-2020 05:20:00 0.7 C 4.73 g/m*3 0.7 C 0 km/h
642 24-01-2020 05:25:00 0.7 C 4.73 g/m*3 0.7 C 1.6 km/h
643 24-01-2020 05:30:00 0.7 C 4.73 g/m*3 0.7 C 0 km/h
644 24-01-2020 05:35:00 0.7 C 4.73 g/m*3 0.7 C 1.6 km/h
645 24-01-2020 05:40:00 0.7 C 4.73 g/m*3 0.7 C 3.2 km/h
646 24-01-2020 05:45:00 0.7 C 4.73 g/m*3 0.7 C 0 km/h
647 24-01-2020 05:50:00 0.7 C 4.73 g/m*3 0.7 C 3.2 km/h
648 24-01-2020 05:55:00 0.7 C 4.73 g/m*3 0.7 C 3.2 km/h
649 24-01-2020 06:00:00 0.7 C 4.73 g/m*3 -1.37 C 6.4 km/h
650 24-01-2020 06:05:00 0.7 C 4.73 g/m*3 0.7 C 1.6 km/h
Sensor: Nr:Datum:Temp:Abs-Feuchte:Windchill:Wind:
Aussen-T/F 651 24-01-2020 06:10:00 0.7 C 4.73 g/m*3 0.7 C 4.8 km/h
652 24-01-2020 06:15:00 0.7 C 4.73 g/m*3 0.7 C 0 km/h
653 24-01-2020 06:20:00 0.7 C 4.73 g/m*3 0.7 C 0 km/h
654 24-01-2020 06:25:00 0.7 C 4.73 g/m*3 0.7 C 0 km/h
655 24-01-2020 06:30:00 0.7 C 4.73 g/m*3 0.7 C 0 km/h
656 24-01-2020 06:35:00 0.7 C 4.73 g/m*3 0.7 C 0 km/h
657 24-01-2020 06:40:00 0.7 C 4.73 g/m*3 0.7 C 4.8 km/h
658 24-01-2020 06:45:00 0.7 C 4.73 g/m*3 0.7 C 0 km/h
659 24-01-2020 06:50:00 0.7 C 4.73 g/m*3 0.7 C 0 km/h
660 24-01-2020 06:55:00 0.7 C 4.73 g/m*3 0.7 C 4.8 km/h
661 24-01-2020 07:00:00 0.7 C 4.73 g/m*3 0.7 C 0 km/h
662 24-01-2020 07:05:00 0.7 C 4.73 g/m*3 0.7 C 3.2 km/h
663 24-01-2020 07:10:00 0.6 C 4.7 g/m*3 0.6 C 4.8 km/h
664 24-01-2020 07:15:00 0.6 C 4.7 g/m*3 0.6 C 4.8 km/h
665 24-01-2020 07:20:00 0.6 C 4.7 g/m*3 0.6 C 0 km/h
666 24-01-2020 07:25:00 0.6 C 4.7 g/m*3 0.6 C 0 km/h
667 24-01-2020 07:30:00 0.6 C 4.7 g/m*3 0.6 C 0 km/h
668 24-01-2020 07:35:00 0.6 C 4.7 g/m*3 0.6 C 1.6 km/h
669 24-01-2020 07:40:00 0.6 C 4.7 g/m*3 0.6 C 3.2 km/h
670 24-01-2020 07:45:00 0.6 C 4.7 g/m*3 0.6 C 1.6 km/h
671 24-01-2020 07:50:00 0.6 C 4.7 g/m*3 0.6 C 0 km/h
672 24-01-2020 07:55:00 0.6 C 4.7 g/m*3 0.6 C 0 km/h
673 24-01-2020 08:00:00 0.6 C 4.65 g/m*3 0.6 C 3.2 km/h
674 24-01-2020 08:05:00 0.6 C 4.65 g/m*3 -1.49 C 6.4 km/h
675 24-01-2020 08:10:00 0.6 C 4.65 g/m*3 0.6 C 0 km/h
Sensor: Nr:Datum:Temp:Abs-Feuchte:Windchill:Wind:
Aussen-T/F 676 24-01-2020 08:15:00 0.6 C 4.65 g/m*3 0.6 C 0 km/h
677 24-01-2020 08:20:00 0.6 C 4.65 g/m*3 0.6 C 0 km/h
678 24-01-2020 08:25:00 0.6 C 4.65 g/m*3 0.6 C 0 km/h
679 24-01-2020 08:30:00 0.6 C 4.65 g/m*3 0.6 C 0 km/h
680 24-01-2020 08:35:00 0.6 C 4.65 g/m*3 0.6 C 4.8 km/h
681 24-01-2020 08:40:00 0.6 C 4.65 g/m*3 0.6 C 3.2 km/h
682 24-01-2020 08:45:00 0.6 C 4.65 g/m*3 0.6 C 0 km/h
683 24-01-2020 08:50:00 0.5 C 4.61 g/m*3 0.5 C 4.8 km/h
684 24-01-2020 08:55:00 0.5 C 4.61 g/m*3 0.5 C 3.2 km/h
685 24-01-2020 09:00:00 0.6 C 4.65 g/m*3 0.6 C 3.2 km/h
686 24-01-2020 09:05:00 0.5 C 4.61 g/m*3 0.5 C 4.8 km/h
687 24-01-2020 09:10:00 0.5 C 4.61 g/m*3 0.5 C 1.6 km/h
688 24-01-2020 09:15:00 0.6 C 4.65 g/m*3 0.6 C 3.2 km/h
689 24-01-2020 09:20:00 0.6 C 4.65 g/m*3 0.6 C 1.6 km/h
690 24-01-2020 09:25:00 0.6 C 4.65 g/m*3 0.6 C 1.6 km/h
691 24-01-2020 09:30:00 0.6 C 4.65 g/m*3 0.6 C 0 km/h
692 24-01-2020 09:35:00 0.7 C 4.68 g/m*3 0.7 C 0 km/h
693 24-01-2020 09:40:00 0.7 C 4.68 g/m*3 0.7 C 0 km/h
694 24-01-2020 09:45:00 0.7 C 4.68 g/m*3 0.7 C 0 km/h
695 24-01-2020 09:50:00 0.7 C 4.68 g/m*3 0.7 C 0 km/h
696 24-01-2020 09:55:00 0.7 C 4.68 g/m*3 0.7 C 0 km/h
697 24-01-2020 10:00:00 0.8 C 4.66 g/m*3 0.8 C 3.2 km/h
698 24-01-2020 10:05:00 0.8 C 4.66 g/m*3 0.8 C 4.8 km/h
699 24-01-2020 10:10:00 0.8 C 4.71 g/m*3 0.8 C 3.2 km/h
700 24-01-2020 10:15:00 0.8 C 4.66 g/m*3 0.8 C 4.8 km/h
Sensor: Nr:Datum:Temp:Abs-Feuchte:Windchill:Wind:
Aussen-T/F 701 24-01-2020 10:20:00 0.8 C 4.66 g/m*3 0.8 C 1.6 km/h
702 24-01-2020 10:25:00 0.9 C 4.69 g/m*3 0.9 C 1.6 km/h
703 24-01-2020 10:30:00 0.9 C 4.69 g/m*3 0.9 C 1.6 km/h
704 24-01-2020 10:35:00 0.9 C 4.69 g/m*3 0.9 C 1.6 km/h
705 24-01-2020 10:40:00 0.9 C 4.69 g/m*3 0.9 C 3.2 km/h
706 24-01-2020 10:45:00 1 C 4.72 g/m*3 1 C 1.6 km/h
707 24-01-2020 10:50:00 1.1 C 4.76 g/m*3 1.1 C 1.6 km/h
708 24-01-2020 10:55:00 1.1 C 4.76 g/m*3 -0.91 C 6.4 km/h
709 24-01-2020 11:00:00 1.1 C 4.76 g/m*3 1.1 C 3.2 km/h
710 24-01-2020 11:05:00 1.1 C 4.76 g/m*3 1.1 C 1.6 km/h
711 24-01-2020 11:10:00 1.2 C 4.79 g/m*3 1.2 C 0 km/h
712 24-01-2020 11:15:00 1.2 C 4.79 g/m*3 1.2 C 4.8 km/h
713 24-01-2020 11:20:00 1.2 C 4.79 g/m*3 1.2 C 3.2 km/h
714 24-01-2020 11:25:00 1.3 C 4.82 g/m*3 1.3 C 1.6 km/h
715 24-01-2020 11:30:00 1.3 C 4.77 g/m*3 -0.68 C 6.4 km/h
716 24-01-2020 11:35:00 1.3 C 4.77 g/m*3 1.3 C 3.2 km/h
717 24-01-2020 11:40:00 1.3 C 4.77 g/m*3 -0.68 C 6.4 km/h
718 24-01-2020 11:45:00 1.3 C 4.77 g/m*3 1.3 C 4.8 km/h
719 24-01-2020 11:50:00 1.4 C 4.8 g/m*3 1.4 C 3.2 km/h
720 24-01-2020 11:55:00 1.5 C 4.83 g/m*3 1.5 C 0 km/h
721 24-01-2020 12:00:00 1.6 C 4.87 g/m*3 1.6 C 0 km/h
722 24-01-2020 12:05:00 1.6 C 4.87 g/m*3 1.6 C 3.2 km/h
723 24-01-2020 12:10:00 1.7 C 4.9 g/m*3 1.7 C 1.6 km/h
724 24-01-2020 12:15:00 1.7 C 4.85 g/m*3 1.7 C 3.2 km/h
725 24-01-2020 12:20:00 1.8 C 4.88 g/m*3 1.8 C 3.2 km/h
Sensor: Nr:Datum:Temp:Abs-Feuchte:Windchill:Wind:
Aussen-T/F 726 24-01-2020 12:25:00 1.8 C 4.88 g/m*3 -1.09 C 9.7 km/h
727 24-01-2020 12:30:00 1.8 C 4.88 g/m*3 1.8 C 4.8 km/h
728 24-01-2020 12:35:00 1.8 C 4.82 g/m*3 -0.65 C 8.1 km/h
729 24-01-2020 12:40:00 1.9 C 4.86 g/m*3 -0.54 C 8.1 km/h
730 24-01-2020 12:45:00 1.9 C 4.86 g/m*3 0.01 C 6.4 km/h
731 24-01-2020 12:50:00 1.9 C 4.86 g/m*3 1.9 C 4.8 km/h
732 24-01-2020 12:55:00 1.9 C 4.8 g/m*3 -0.54 C 8.1 km/h
733 24-01-2020 13:00:00 2 C 4.89 g/m*3 0.13 C 6.4 km/h
734 24-01-2020 13:05:00 2.1 C 4.92 g/m*3 -0.3 C 8.1 km/h
735 24-01-2020 13:10:00 2.1 C 4.92 g/m*3 0.24 C 6.4 km/h
736 24-01-2020 13:15:00 2.1 C 4.87 g/m*3 2.1 C 4.8 km/h
737 24-01-2020 13:20:00 2.1 C 4.87 g/m*3 2.1 C 3.2 km/h
738 24-01-2020 13:25:00 2.2 C 4.96 g/m*3 2.2 C 3.2 km/h
739 24-01-2020 13:30:00 2.2 C 4.9 g/m*3 2.2 C 3.2 km/h
740 24-01-2020 13:35:00 2.3 C 4.93 g/m*3 2.3 C 3.2 km/h
741 24-01-2020 13:40:00 2.4 C 4.97 g/m*3 2.4 C 4.8 km/h
742 24-01-2020 13:45:00 2.4 C 4.97 g/m*3 2.4 C 4.8 km/h
743 24-01-2020 13:50:00 2.5 C 4.94 g/m*3 0.71 C 6.4 km/h
744 24-01-2020 13:55:00 2.5 C 4.94 g/m*3 2.5 C 4.8 km/h
745 24-01-2020 14:00:00 2.4 C 4.91 g/m*3 0.05 C 8.1 km/h
746 24-01-2020 14:05:00 2.4 C 4.91 g/m*3 2.4 C 4.8 km/h
747 24-01-2020 14:10:00 2.4 C 4.91 g/m*3 0.59 C 6.4 km/h
748 24-01-2020 14:15:00 2.4 C 4.91 g/m*3 0.59 C 6.4 km/h
749 24-01-2020 14:20:00 2.5 C 5 g/m*3 2.5 C 4.8 km/h
750 24-01-2020 14:25:00 2.6 C 4.98 g/m*3 2.6 C 3.2 km/h
Sensor: Nr:Datum:Temp:Abs-Feuchte:Windchill:Wind:
Aussen-T/F 751 24-01-2020 14:30:00 2.6 C 4.98 g/m*3 2.6 C 3.2 km/h
752 24-01-2020 14:35:00 2.6 C 4.98 g/m*3 2.6 C 3.2 km/h
753 24-01-2020 14:40:00 2.6 C 4.98 g/m*3 0.82 C 6.4 km/h
754 24-01-2020 14:45:00 2.6 C 5.03 g/m*3 2.6 C 1.6 km/h
755 24-01-2020 14:50:00 2.7 C 5.07 g/m*3 2.7 C 3.2 km/h
756 24-01-2020 14:55:00 2.7 C 5.07 g/m*3 0.94 C 6.4 km/h
757 24-01-2020 15:00:00 2.7 C 5.01 g/m*3 2.7 C 0 km/h
758 24-01-2020 15:05:00 2.7 C 5.07 g/m*3 0.94 C 6.4 km/h
759 24-01-2020 15:10:00 2.7 C 5.07 g/m*3 2.7 C 3.2 km/h
760 24-01-2020 15:15:00 2.6 C 5.03 g/m*3 2.6 C 3.2 km/h
761 24-01-2020 15:20:00 2.6 C 5.03 g/m*3 2.6 C 4.8 km/h
762 24-01-2020 15:25:00 2.6 C 5.03 g/m*3 2.6 C 4.8 km/h
763 24-01-2020 15:30:00 2.6 C 5.03 g/m*3 2.6 C 3.2 km/h
764 24-01-2020 15:35:00 2.6 C 5.03 g/m*3 2.6 C 4.8 km/h
765 24-01-2020 15:40:00 2.6 C 5.03 g/m*3 2.6 C 3.2 km/h
766 24-01-2020 15:45:00 2.6 C 5.03 g/m*3 2.6 C 0 km/h
767 24-01-2020 15:50:00 2.6 C 5.03 g/m*3 2.6 C 0 km/h
768 24-01-2020 15:55:00 2.6 C 5.03 g/m*3 2.6 C 1.6 km/h
769 24-01-2020 16:00:00 2.6 C 5.03 g/m*3 2.6 C 0 km/h
770 24-01-2020 16:05:00 2.6 C 5.03 g/m*3 2.6 C 0 km/h
771 24-01-2020 16:10:00 2.6 C 5.03 g/m*3 2.6 C 0 km/h
772 24-01-2020 16:15:00 2.6 C 5.09 g/m*3 2.6 C 0 km/h
773 24-01-2020 16:20:00 2.6 C 5.09 g/m*3 2.6 C 0 km/h
774 24-01-2020 16:25:00 2.6 C 5.09 g/m*3 2.6 C 0 km/h
775 24-01-2020 16:30:00 2.6 C 5.03 g/m*3 2.6 C 0 km/h
Sensor: Nr:Datum:Temp:Abs-Feuchte:Windchill:Wind:
Aussen-T/F 776 24-01-2020 16:35:00 2.5 C 5 g/m*3 2.5 C 0 km/h
777 24-01-2020 16:40:00 2.6 C 5.09 g/m*3 2.6 C 0 km/h
778 24-01-2020 16:45:00 2.6 C 5.09 g/m*3 2.6 C 1.6 km/h
779 24-01-2020 16:50:00 2.6 C 5.09 g/m*3 2.6 C 3.2 km/h
780 24-01-2020 16:55:00 2.6 C 5.09 g/m*3 2.6 C 3.2 km/h
781 24-01-2020 17:00:00 2.5 C 5.06 g/m*3 2.5 C 0 km/h
782 24-01-2020 17:05:00 2.5 C 5.06 g/m*3 2.5 C 0 km/h
783 24-01-2020 17:10:00 2.5 C 5.06 g/m*3 2.5 C 0 km/h
784 24-01-2020 17:15:00 2.4 C 5.02 g/m*3 2.4 C 0 km/h
785 24-01-2020 17:20:00 2.4 C 5.08 g/m*3 2.4 C 0 km/h
786 24-01-2020 17:25:00 2.4 C 5.08 g/m*3 2.4 C 0 km/h
787 24-01-2020 17:30:00 2.4 C 5.08 g/m*3 2.4 C 0 km/h
788 24-01-2020 17:35:00 2.4 C 5.08 g/m*3 2.4 C 0 km/h
789 24-01-2020 17:40:00 2.3 C 5.05 g/m*3 2.3 C 0 km/h
790 24-01-2020 17:45:00 2.3 C 5.05 g/m*3 2.3 C 0 km/h
791 24-01-2020 17:50:00 2.3 C 5.05 g/m*3 2.3 C 1.6 km/h
792 24-01-2020 17:55:00 2.3 C 5.1 g/m*3 2.3 C 0 km/h
793 24-01-2020 18:00:00 2.2 C 5.07 g/m*3 2.2 C 0 km/h
794 24-01-2020 18:05:00 2.2 C 5.07 g/m*3 2.2 C 0 km/h
795 24-01-2020 18:10:00 2.2 C 5.07 g/m*3 2.2 C 0 km/h
796 24-01-2020 18:15:00 2.2 C 5.07 g/m*3 2.2 C 0 km/h
797 24-01-2020 18:20:00 2.1 C 5.04 g/m*3 2.1 C 0 km/h
798 24-01-2020 18:25:00 2.1 C 5.04 g/m*3 2.1 C 0 km/h
799 24-01-2020 18:30:00 2.1 C 5.04 g/m*3 2.1 C 0 km/h
800 24-01-2020 18:35:00 2.1 C 5.04 g/m*3 2.1 C 0 km/h
Sensor: Nr:Datum:Temp:Abs-Feuchte:Windchill:Wind:
Aussen-T/F 801 24-01-2020 18:40:00 2.1 C 5.09 g/m*3 2.1 C 0 km/h
802 24-01-2020 18:45:00 2.1 C 5.09 g/m*3 2.1 C 0 km/h
803 24-01-2020 18:50:00 2 C 5.06 g/m*3 2 C 0 km/h
804 24-01-2020 18:55:00 2 C 5.06 g/m*3 2 C 0 km/h
805 24-01-2020 19:00:00 2 C 5.06 g/m*3 2 C 0 km/h
806 24-01-2020 19:05:00 2 C 5.06 g/m*3 2 C 0 km/h
807 24-01-2020 19:10:00 2 C 5.06 g/m*3 2 C 0 km/h
808 24-01-2020 19:15:00 2 C 5.06 g/m*3 2 C 0 km/h
809 24-01-2020 19:20:00 2 C 5.06 g/m*3 2 C 0 km/h
810 24-01-2020 19:25:00 2 C 5.06 g/m*3 2 C 0 km/h
811 24-01-2020 19:30:00 2 C 5.06 g/m*3 2 C 0 km/h
812 24-01-2020 19:35:00 2 C 5.06 g/m*3 2 C 0 km/h
813 24-01-2020 19:40:00 2 C 5.11 g/m*3 2 C 0 km/h
814 24-01-2020 19:45:00 2 C 5.11 g/m*3 2 C 1.6 km/h
815 24-01-2020 19:50:00 2 C 5.11 g/m*3 0.13 C 6.4 km/h
816 24-01-2020 19:55:00 2.1 C 5.15 g/m*3 2.1 C 0 km/h
817 24-01-2020 20:00:00 2.1 C 5.15 g/m*3 2.1 C 0 km/h
818 24-01-2020 20:05:00 2.1 C 5.15 g/m*3 2.1 C 0 km/h
819 24-01-2020 20:10:00 2.1 C 5.15 g/m*3 2.1 C 0 km/h
820 24-01-2020 20:15:00 2.1 C 5.15 g/m*3 2.1 C 0 km/h
821 24-01-2020 20:20:00 2.1 C 5.15 g/m*3 2.1 C 0 km/h
822 24-01-2020 20:25:00 2.1 C 5.15 g/m*3 2.1 C 0 km/h
823 24-01-2020 20:30:00 2.1 C 5.15 g/m*3 2.1 C 0 km/h
824 24-01-2020 20:35:00 2.1 C 5.15 g/m*3 2.1 C 0 km/h
825 24-01-2020 20:40:00 2.1 C 5.15 g/m*3 2.1 C 0 km/h
Sensor: Nr:Datum:Temp:Abs-Feuchte:Windchill:Wind:
Aussen-T/F 826 24-01-2020 20:45:00 2.1 C 5.15 g/m*3 2.1 C 1.6 km/h
827 24-01-2020 20:50:00 2.1 C 5.15 g/m*3 2.1 C 3.2 km/h
828 24-01-2020 20:55:00 2.2 C 5.18 g/m*3 2.2 C 1.6 km/h
829 24-01-2020 21:00:00 2.2 C 5.18 g/m*3 2.2 C 0 km/h
830 24-01-2020 21:05:00 2.1 C 5.15 g/m*3 2.1 C 1.6 km/h
831 24-01-2020 21:10:00 2.1 C 5.15 g/m*3 2.1 C 0 km/h
832 24-01-2020 21:15:00 2.1 C 5.15 g/m*3 2.1 C 0 km/h
833 24-01-2020 21:20:00 2.1 C 5.15 g/m*3 2.1 C 0 km/h
834 24-01-2020 21:25:00 2 C 5.11 g/m*3 2 C 0 km/h
835 24-01-2020 21:30:00 2 C 5.11 g/m*3 2 C 0 km/h
836 24-01-2020 21:35:00 1.9 C 5.08 g/m*3 1.9 C 0 km/h
837 24-01-2020 21:40:00 1.9 C 5.08 g/m*3 1.9 C 0 km/h
838 24-01-2020 21:45:00 1.8 C 5.04 g/m*3 1.8 C 0 km/h
839 24-01-2020 21:55:00 1.7 C 5.01 g/m*3 1.7 C 0 km/h
840 24-01-2020 22:00:00 1.6 C 4.97 g/m*3 1.6 C 0 km/h
841 24-01-2020 22:05:00 1.6 C 4.97 g/m*3 1.6 C 1.6 km/h
842 24-01-2020 22:10:00 1.6 C 4.97 g/m*3 1.6 C 1.6 km/h
843 24-01-2020 22:15:00 1.6 C 4.97 g/m*3 1.6 C 0 km/h
844 24-01-2020 22:20:00 1.5 C 4.94 g/m*3 1.5 C 0 km/h
845 24-01-2020 22:25:00 1.5 C 4.94 g/m*3 1.5 C 0 km/h
846 24-01-2020 22:30:00 1.5 C 4.94 g/m*3 1.5 C 0 km/h
847 24-01-2020 22:35:00 1.5 C 4.94 g/m*3 1.5 C 0 km/h
848 24-01-2020 22:40:00 1.4 C 4.91 g/m*3 1.4 C 0 km/h
849 24-01-2020 22:45:00 1.4 C 4.91 g/m*3 1.4 C 0 km/h
850 24-01-2020 22:50:00 1.4 C 4.91 g/m*3 1.4 C 0 km/h
Sensor: Nr:Datum:Temp:Abs-Feuchte:Windchill:Wind:
Aussen-T/F 851 24-01-2020 22:55:00 1.4 C 4.91 g/m*3 1.4 C 0 km/h
852 24-01-2020 23:00:00 1.4 C 4.91 g/m*3 1.4 C 0 km/h
853 24-01-2020 23:05:00 1.4 C 4.91 g/m*3 1.4 C 0 km/h
854 24-01-2020 23:10:00 1.4 C 4.91 g/m*3 1.4 C 0 km/h
855 24-01-2020 23:15:00 1.4 C 4.91 g/m*3 1.4 C 0 km/h
856 24-01-2020 23:20:00 1.4 C 4.91 g/m*3 1.4 C 0 km/h
857 24-01-2020 23:25:00 1.4 C 4.91 g/m*3 1.4 C 0 km/h
858 24-01-2020 23:30:00 1.4 C 4.91 g/m*3 1.4 C 0 km/h
859 24-01-2020 23:35:00 1.4 C 4.91 g/m*3 1.4 C 1.6 km/h
860 24-01-2020 23:40:00 1.4 C 4.91 g/m*3 1.4 C 0 km/h
861 24-01-2020 23:45:00 1.4 C 4.96 g/m*3 1.4 C 3.2 km/h
862 24-01-2020 23:50:00 1.4 C 4.96 g/m*3 1.4 C 0 km/h
863 24-01-2020 23:55:00 1.4 C 4.96 g/m*3 1.4 C 0 km/h
864 25-01-2020 00:00:00 1.4 C 4.96 g/m*3 1.4 C 0 km/h
865 25-01-2020 00:05:00 1.4 C 4.96 g/m*3 1.4 C 0 km/h
866 25-01-2020 01:25:00 1.5 C 4.99 g/m*3 1.5 C 0 km/h
867 25-01-2020 01:30:00 1.5 C 4.99 g/m*3 1.5 C 1.6 km/h
868 25-01-2020 01:35:00 1.5 C 4.99 g/m*3 1.5 C 1.6 km/h
869 25-01-2020 01:40:00 1.5 C 4.99 g/m*3 1.5 C 1.6 km/h
870 25-01-2020 01:45:00 1.5 C 4.99 g/m*3 1.5 C 0 km/h
871 25-01-2020 01:50:00 1.5 C 4.99 g/m*3 1.5 C 0 km/h
872 25-01-2020 01:55:00 1.5 C 4.99 g/m*3 1.5 C 0 km/h
873 25-01-2020 02:00:00 1.4 C 4.96 g/m*3 1.4 C 1.6 km/h
874 25-01-2020 02:05:00 1.4 C 4.96 g/m*3 1.4 C 0 km/h
875 25-01-2020 02:10:00 1.4 C 4.96 g/m*3 1.4 C 0 km/h
Sensor: Nr:Datum:Temp:Abs-Feuchte:Windchill:Wind:
Aussen-T/F 876 25-01-2020 02:15:00 1.4 C 4.96 g/m*3 1.4 C 0 km/h
877 25-01-2020 02:20:00 1.4 C 4.96 g/m*3 1.4 C 0 km/h
878 25-01-2020 02:25:00 1.4 C 4.96 g/m*3 1.4 C 0 km/h
879 25-01-2020 02:30:00 1.4 C 4.96 g/m*3 1.4 C 0 km/h
880 25-01-2020 02:35:00 1.4 C 5.01 g/m*3 1.4 C 0 km/h
881 25-01-2020 02:40:00 1.3 C 4.98 g/m*3 1.3 C 0 km/h
882 25-01-2020 02:45:00 1.4 C 5.01 g/m*3 1.4 C 0 km/h
883 25-01-2020 02:50:00 1.4 C 5.01 g/m*3 1.4 C 0 km/h
884 25-01-2020 02:55:00 1.4 C 5.01 g/m*3 1.4 C 1.6 km/h
885 25-01-2020 03:00:00 1.4 C 5.01 g/m*3 1.4 C 1.6 km/h
886 25-01-2020 03:05:00 1.4 C 5.01 g/m*3 1.4 C 3.2 km/h
887 25-01-2020 03:10:00 1.3 C 4.93 g/m*3 1.3 C 0 km/h
888 25-01-2020 03:15:00 1.3 C 4.93 g/m*3 1.3 C 1.6 km/h
889 25-01-2020 03:20:00 1.3 C 4.93 g/m*3 1.3 C 3.2 km/h
890 25-01-2020 03:25:00 1.3 C 4.93 g/m*3 1.3 C 0 km/h
891 25-01-2020 03:30:00 1.3 C 4.93 g/m*3 1.3 C 0 km/h
892 25-01-2020 03:35:00 1.3 C 4.93 g/m*3 1.3 C 0 km/h
893 25-01-2020 03:40:00 1.3 C 4.93 g/m*3 1.3 C 0 km/h
894 25-01-2020 03:45:00 1.3 C 4.93 g/m*3 1.3 C 1.6 km/h
895 25-01-2020 03:50:00 1.3 C 4.93 g/m*3 1.3 C 0 km/h
896 25-01-2020 03:55:00 1.3 C 4.93 g/m*3 1.3 C 0 km/h
897 25-01-2020 04:00:00 1.3 C 4.93 g/m*3 1.3 C 0 km/h
898 25-01-2020 04:05:00 1.3 C 4.98 g/m*3 1.3 C 0 km/h
899 25-01-2020 04:10:00 1.3 C 4.98 g/m*3 1.3 C 0 km/h
900 25-01-2020 04:15:00 1.2 C 4.95 g/m*3 1.2 C 0 km/h
Sensor: Nr:Datum:Temp:Abs-Feuchte:Windchill:Wind:
Aussen-T/F 901 25-01-2020 04:20:00 1.2 C 4.95 g/m*3 1.2 C 0 km/h
902 25-01-2020 04:25:00 1.2 C 4.95 g/m*3 1.2 C 0 km/h
903 25-01-2020 04:30:00 1.2 C 4.89 g/m*3 1.2 C 4.8 km/h
904 25-01-2020 04:35:00 1.2 C 4.89 g/m*3 1.2 C 0 km/h
905 25-01-2020 04:40:00 1.2 C 4.95 g/m*3 1.2 C 1.6 km/h
906 25-01-2020 04:45:00 1.2 C 4.89 g/m*3 1.2 C 0 km/h
907 25-01-2020 04:50:00 1.2 C 4.89 g/m*3 1.2 C 0 km/h
908 25-01-2020 04:55:00 1.2 C 4.89 g/m*3 1.2 C 0 km/h
909 25-01-2020 05:00:00 1.2 C 4.89 g/m*3 1.2 C 1.6 km/h
910 25-01-2020 05:05:00 1.2 C 4.89 g/m*3 1.2 C 0 km/h
911 25-01-2020 05:10:00 1.2 C 4.89 g/m*3 1.2 C 0 km/h
912 25-01-2020 05:15:00 1.2 C 4.89 g/m*3 1.2 C 0 km/h
913 25-01-2020 05:20:00 1.2 C 4.89 g/m*3 1.2 C 0 km/h
914 25-01-2020 05:25:00 1.2 C 4.89 g/m*3 1.2 C 3.2 km/h
915 25-01-2020 05:30:00 1.2 C 4.89 g/m*3 1.2 C 3.2 km/h
916 25-01-2020 05:35:00 1.2 C 4.89 g/m*3 1.2 C 0 km/h
917 25-01-2020 05:40:00 1.2 C 4.89 g/m*3 1.2 C 0 km/h
918 25-01-2020 05:45:00 1.2 C 4.89 g/m*3 1.2 C 0 km/h
919 25-01-2020 05:50:00 1.2 C 4.89 g/m*3 1.2 C 0 km/h
920 25-01-2020 05:55:00 1.1 C 4.86 g/m*3 1.1 C 0 km/h
921 25-01-2020 06:00:00 1.1 C 4.86 g/m*3 1.1 C 0 km/h
922 25-01-2020 06:05:00 1.1 C 4.86 g/m*3 1.1 C 0 km/h
923 25-01-2020 06:10:00 1.1 C 4.86 g/m*3 1.1 C 0 km/h
924 25-01-2020 06:15:00 1.1 C 4.86 g/m*3 1.1 C 0 km/h
925 25-01-2020 06:20:00 1.1 C 4.86 g/m*3 1.1 C 0 km/h
Sensor: Nr:Datum:Temp:Abs-Feuchte:Windchill:Wind:
Aussen-T/F 926 25-01-2020 06:25:00 1.1 C 4.86 g/m*3 1.1 C 0 km/h
927 25-01-2020 06:30:00 1.1 C 4.86 g/m*3 1.1 C 0 km/h
928 25-01-2020 06:35:00 1.1 C 4.86 g/m*3 1.1 C 0 km/h
929 25-01-2020 06:40:00 1.1 C 4.86 g/m*3 1.1 C 0 km/h
930 25-01-2020 06:45:00 1.1 C 4.86 g/m*3 1.1 C 0 km/h
931 25-01-2020 06:50:00 1.2 C 4.89 g/m*3 1.2 C 0 km/h
932 25-01-2020 06:55:00 1.2 C 4.89 g/m*3 1.2 C 0 km/h
933 25-01-2020 07:00:00 1.2 C 4.89 g/m*3 1.2 C 0 km/h
934 25-01-2020 07:05:00 1.2 C 4.89 g/m*3 1.2 C 0 km/h
935 25-01-2020 07:10:00 1.2 C 4.89 g/m*3 1.2 C 0 km/h
936 25-01-2020 07:15:00 1.2 C 4.89 g/m*3 1.2 C 0 km/h
937 25-01-2020 07:20:00 1.2 C 4.89 g/m*3 1.2 C 0 km/h
938 25-01-2020 07:25:00 1.2 C 4.89 g/m*3 1.2 C 0 km/h
939 25-01-2020 07:30:00 1.2 C 4.95 g/m*3 1.2 C 0 km/h
940 25-01-2020 07:35:00 1.2 C 4.95 g/m*3 1.2 C 0 km/h
941 25-01-2020 07:40:00 1.3 C 4.98 g/m*3 1.3 C 0 km/h
942 25-01-2020 07:45:00 1.3 C 4.98 g/m*3 1.3 C 0 km/h
943 25-01-2020 07:50:00 1.3 C 4.98 g/m*3 1.3 C 0 km/h
944 25-01-2020 07:55:00 1.3 C 4.98 g/m*3 1.3 C 0 km/h
945 25-01-2020 08:00:00 1.3 C 4.98 g/m*3 1.3 C 0 km/h
946 25-01-2020 08:05:00 1.3 C 4.98 g/m*3 1.3 C 0 km/h
947 25-01-2020 08:10:00 1.3 C 4.98 g/m*3 1.3 C 0 km/h
948 25-01-2020 08:15:00 1.3 C 4.98 g/m*3 1.3 C 0 km/h
949 25-01-2020 08:20:00 1.3 C 4.98 g/m*3 1.3 C 0 km/h
950 25-01-2020 08:25:00 1.3 C 4.98 g/m*3 1.3 C 0 km/h
Sensor: Nr:Datum:Temp:Abs-Feuchte:Windchill:Wind:
Aussen-T/F 951 25-01-2020 08:30:00 1.3 C 4.98 g/m*3 1.3 C 0 km/h
952 25-01-2020 08:35:00 1.3 C 4.98 g/m*3 1.3 C 0 km/h
953 25-01-2020 08:40:00 1.3 C 4.98 g/m*3 1.3 C 0 km/h
954 25-01-2020 08:45:00 1.3 C 4.98 g/m*3 1.3 C 0 km/h
955 25-01-2020 08:50:00 1.3 C 4.98 g/m*3 1.3 C 0 km/h
956 25-01-2020 08:55:00 1.4 C 5.01 g/m*3 1.4 C 0 km/h
957 25-01-2020 09:00:00 1.4 C 5.01 g/m*3 1.4 C 0 km/h
958 25-01-2020 09:05:00 1.4 C 5.01 g/m*3 1.4 C 0 km/h
959 25-01-2020 09:10:00 1.4 C 5.01 g/m*3 1.4 C 0 km/h
960 25-01-2020 09:15:00 1.5 C 5.05 g/m*3 1.5 C 0 km/h
961 25-01-2020 09:20:00 1.5 C 5.1 g/m*3 1.5 C 0 km/h
962 25-01-2020 09:25:00 1.6 C 5.14 g/m*3 1.6 C 0 km/h
963 25-01-2020 09:30:00 1.6 C 5.14 g/m*3 1.6 C 0 km/h
964 25-01-2020 09:35:00 1.6 C 5.14 g/m*3 1.6 C 0 km/h
965 25-01-2020 09:40:00 1.7 C 5.17 g/m*3 1.7 C 0 km/h
966 25-01-2020 09:45:00 1.7 C 5.17 g/m*3 1.7 C 0 km/h
967 25-01-2020 09:50:00 1.7 C 5.17 g/m*3 1.7 C 0 km/h
968 25-01-2020 09:55:00 1.8 C 5.21 g/m*3 1.8 C 0 km/h
969 25-01-2020 10:00:00 1.8 C 5.21 g/m*3 1.8 C 0 km/h
970 25-01-2020 10:05:00 1.8 C 5.21 g/m*3 1.8 C 0 km/h
971 25-01-2020 10:10:00 1.9 C 5.24 g/m*3 1.9 C 0 km/h
972 25-01-2020 10:15:00 1.9 C 5.24 g/m*3 1.9 C 0 km/h
973 25-01-2020 10:20:00 1.9 C 5.24 g/m*3 1.9 C 0 km/h
974 25-01-2020 10:25:00 2 C 5.28 g/m*3 2 C 0 km/h
975 25-01-2020 10:30:00 2 C 5.28 g/m*3 2 C 0 km/h
Sensor: Nr:Datum:Temp:Abs-Feuchte:Windchill:Wind:
Aussen-T/F 976 25-01-2020 10:35:00 2.1 C 5.31 g/m*3 2.1 C 0 km/h
977 25-01-2020 10:40:00 2.1 C 5.31 g/m*3 2.1 C 0 km/h
978 25-01-2020 10:45:00 2.1 C 5.31 g/m*3 2.1 C 0 km/h
979 25-01-2020 10:50:00 2.2 C 5.41 g/m*3 2.2 C 0 km/h
980 25-01-2020 10:55:00 2.2 C 5.41 g/m*3 2.2 C 0 km/h
981 25-01-2020 11:00:00 2.2 C 5.41 g/m*3 2.2 C 0 km/h
982 25-01-2020 11:05:00 2.3 C 5.44 g/m*3 2.3 C 0 km/h
983 25-01-2020 11:10:00 2.4 C 5.48 g/m*3 2.4 C 0 km/h
984 25-01-2020 11:15:00 2.4 C 5.48 g/m*3 2.4 C 0 km/h
985 25-01-2020 11:20:00 2.4 C 5.48 g/m*3 2.4 C 0 km/h
986 25-01-2020 11:25:00 2.4 C 5.48 g/m*3 2.4 C 0 km/h
987 25-01-2020 11:30:00 2.5 C 5.52 g/m*3 2.5 C 0 km/h
988 25-01-2020 11:35:00 2.6 C 5.56 g/m*3 2.6 C 0 km/h
989 25-01-2020 11:40:00 2.7 C 5.59 g/m*3 2.7 C 0 km/h
990 25-01-2020 11:45:00 2.7 C 5.59 g/m*3 2.7 C 0 km/h
991 25-01-2020 11:50:00 2.8 C 5.63 g/m*3 2.8 C 0 km/h
992 25-01-2020 11:55:00 2.8 C 5.63 g/m*3 2.8 C 0 km/h
993 25-01-2020 12:00:00 2.9 C 5.67 g/m*3 2.9 C 0 km/h
994 25-01-2020 12:05:00 3 C 5.71 g/m*3 3 C 0 km/h
995 25-01-2020 12:10:00 3.1 C 5.75 g/m*3 3.1 C 0 km/h
996 25-01-2020 12:15:00 3.1 C 5.75 g/m*3 3.1 C 0 km/h
997 25-01-2020 12:20:00 3.2 C 5.79 g/m*3 3.2 C 0 km/h
998 25-01-2020 12:25:00 3.2 C 5.79 g/m*3 3.2 C 0 km/h
999 25-01-2020 12:30:00 3.3 C 5.76 g/m*3 3.3 C 1.6 km/h
1000 25-01-2020 12:35:00 3.3 C 5.76 g/m*3 3.3 C 1.6 km/h
Sensor: Nr:Datum:Temp:Abs-Feuchte:Windchill:Wind:
Aussen-T/F 1001 25-01-2020 12:40:00 3.4 C 5.8 g/m*3 3.4 C 3.2 km/h
1002 25-01-2020 12:45:00 3.4 C 5.8 g/m*3 3.4 C 3.2 km/h
1003 25-01-2020 12:50:00 3.5 C 5.84 g/m*3 3.5 C 3.2 km/h
1004 25-01-2020 12:55:00 3.6 C 5.88 g/m*3 3.6 C 4.8 km/h
1005 25-01-2020 13:00:00 3.6 C 5.88 g/m*3 3.6 C 1.6 km/h
1006 25-01-2020 13:05:00 3.7 C 5.92 g/m*3 3.7 C 3.2 km/h
1007 25-01-2020 13:10:00 3.7 C 5.86 g/m*3 3.7 C 3.2 km/h
1008 25-01-2020 13:15:00 3.7 C 5.86 g/m*3 3.7 C 4.8 km/h
1009 25-01-2020 13:20:00 3.7 C 5.86 g/m*3 3.7 C 0 km/h
1010 25-01-2020 13:25:00 3.7 C 5.86 g/m*3 3.7 C 1.6 km/h
1011 25-01-2020 13:30:00 3.8 C 5.9 g/m*3 3.8 C 3.2 km/h
1012 25-01-2020 13:35:00 3.8 C 5.9 g/m*3 3.8 C 1.6 km/h
1013 25-01-2020 13:40:00 3.8 C 5.9 g/m*3 3.8 C 3.2 km/h
1014 25-01-2020 13:45:00 3.9 C 5.94 g/m*3 3.9 C 1.6 km/h
1015 25-01-2020 13:50:00 3.9 C 5.94 g/m*3 3.9 C 1.6 km/h
1016 25-01-2020 13:55:00 3.9 C 5.94 g/m*3 3.9 C 1.6 km/h
1017 25-01-2020 14:00:00 4 C 5.98 g/m*3 4 C 1.6 km/h
1018 25-01-2020 14:05:00 4.1 C 6.02 g/m*3 4.1 C 0 km/h
1019 25-01-2020 14:10:00 4.1 C 6.02 g/m*3 4.1 C 0 km/h
1020 25-01-2020 14:15:00 4.1 C 6.02 g/m*3 4.1 C 0 km/h
1021 25-01-2020 14:20:00 4.2 C 6.06 g/m*3 4.2 C 0 km/h
1022 25-01-2020 14:25:00 4.2 C 6.06 g/m*3 4.2 C 0 km/h
1023 25-01-2020 14:30:00 4.2 C 6.06 g/m*3 4.2 C 0 km/h
1024 25-01-2020 14:35:00 4.2 C 6.06 g/m*3 4.2 C 0 km/h
1025 25-01-2020 14:40:00 4.3 C 6.1 g/m*3 4.3 C 0 km/h
Sensor: Nr:Datum:Temp:Abs-Feuchte:Windchill:Wind:
Aussen-T/F 1026 25-01-2020 14:45:00 4.3 C 6.1 g/m*3 4.3 C 0 km/h
1027 25-01-2020 14:50:00 4.3 C 6.1 g/m*3 4.3 C 0 km/h
1028 25-01-2020 14:55:00 4.4 C 6.14 g/m*3 4.4 C 0 km/h
1029 25-01-2020 15:00:00 4.4 C 6.07 g/m*3 4.4 C 0 km/h
1030 25-01-2020 15:05:00 4.4 C 6.07 g/m*3 4.4 C 0 km/h
1031 25-01-2020 15:10:00 4.5 C 6.11 g/m*3 4.5 C 0 km/h
1032 25-01-2020 15:15:00 4.5 C 6.11 g/m*3 4.5 C 0 km/h
1033 25-01-2020 15:20:00 4.5 C 6.11 g/m*3 4.5 C 0 km/h
1034 25-01-2020 15:25:00 4.5 C 6.11 g/m*3 4.5 C 0 km/h
1035 25-01-2020 15:30:00 4.5 C 6.11 g/m*3 4.5 C 0 km/h
1036 25-01-2020 15:35:00 4.6 C 6.15 g/m*3 4.6 C 0 km/h
1037 25-01-2020 15:40:00 4.6 C 6.15 g/m*3 4.6 C 0 km/h
1038 25-01-2020 15:45:00 4.6 C 6.15 g/m*3 4.6 C 0 km/h
1039 25-01-2020 15:50:00 4.5 C 6.11 g/m*3 4.5 C 0 km/h
1040 25-01-2020 15:55:00 4.6 C 6.15 g/m*3 4.6 C 0 km/h
1041 25-01-2020 16:00:00 4.6 C 6.15 g/m*3 4.6 C 0 km/h
1042 25-01-2020 16:05:00 4.6 C 6.15 g/m*3 4.6 C 0 km/h
1043 25-01-2020 16:10:00 4.6 C 6.15 g/m*3 4.6 C 0 km/h
1044 25-01-2020 16:15:00 4.6 C 6.15 g/m*3 4.6 C 0 km/h
1045 25-01-2020 16:20:00 4.6 C 6.15 g/m*3 4.6 C 0 km/h
1046 25-01-2020 16:25:00 4.6 C 6.15 g/m*3 4.6 C 0 km/h
1047 25-01-2020 16:30:00 4.6 C 6.15 g/m*3 4.6 C 0 km/h
1048 25-01-2020 16:35:00 4.5 C 6.11 g/m*3 4.5 C 0 km/h
1049 25-01-2020 16:40:00 4.5 C 6.11 g/m*3 4.5 C 0 km/h
1050 25-01-2020 16:45:00 4.5 C 6.11 g/m*3 4.5 C 0 km/h
Sensor: Nr:Datum:Temp:Abs-Feuchte:Windchill:Wind:
Aussen-T/F 1051 25-01-2020 16:50:00 4.4 C 6.07 g/m*3 4.4 C 0 km/h
1052 25-01-2020 16:55:00 4.4 C 6.07 g/m*3 4.4 C 0 km/h
1053 25-01-2020 17:00:00 4.4 C 6.07 g/m*3 4.4 C 0 km/h
1054 25-01-2020 17:05:00 4.4 C 6.07 g/m*3 4.4 C 0 km/h
1055 25-01-2020 17:10:00 4.4 C 6.07 g/m*3 4.4 C 0 km/h
1056 25-01-2020 17:15:00 4.4 C 6.07 g/m*3 4.4 C 0 km/h
1057 25-01-2020 17:20:00 4.4 C 6.07 g/m*3 4.4 C 0 km/h
1058 25-01-2020 17:25:00 4.4 C 6.07 g/m*3 4.4 C 0 km/h
1059 25-01-2020 17:30:00 4.4 C 6.07 g/m*3 4.4 C 0 km/h
1060 25-01-2020 17:35:00 4.3 C 6.03 g/m*3 4.3 C 0 km/h
1061 25-01-2020 17:40:00 4.3 C 6.1 g/m*3 4.3 C 4.8 km/h
1062 25-01-2020 17:45:00 4.3 C 6.1 g/m*3 4.3 C 3.2 km/h
1063 25-01-2020 17:50:00 4.3 C 6.1 g/m*3 4.3 C 1.6 km/h
1064 25-01-2020 17:55:00 4.3 C 6.1 g/m*3 2.78 C 6.4 km/h
1065 25-01-2020 18:00:00 4.3 C 6.1 g/m*3 4.3 C 0 km/h
1066 25-01-2020 18:05:00 4.2 C 6.06 g/m*3 4.2 C 0 km/h
1067 25-01-2020 18:10:00 4.2 C 6.06 g/m*3 4.2 C 0 km/h
1068 25-01-2020 18:15:00 4.2 C 6.06 g/m*3 4.2 C 0 km/h
1069 25-01-2020 18:20:00 4.2 C 6.06 g/m*3 4.2 C 0 km/h
1070 25-01-2020 18:25:00 4.2 C 6.06 g/m*3 4.2 C 0 km/h
1071 25-01-2020 18:30:00 4.2 C 6.06 g/m*3 4.2 C 0 km/h
1072 25-01-2020 18:35:00 4.2 C 6.06 g/m*3 4.2 C 0 km/h
1073 25-01-2020 18:40:00 4.1 C 6.02 g/m*3 4.1 C 0 km/h
1074 25-01-2020 18:45:00 4.1 C 6.02 g/m*3 4.1 C 0 km/h
1075 25-01-2020 18:50:00 4.1 C 6.02 g/m*3 4.1 C 0 km/h
Sensor: Nr:Datum:Temp:Abs-Feuchte:Windchill:Wind:
Aussen-T/F 1076 25-01-2020 18:55:00 4 C 5.98 g/m*3 4 C 0 km/h
1077 25-01-2020 19:00:00 4 C 5.98 g/m*3 4 C 0 km/h
1078 25-01-2020 19:05:00 3.9 C 5.94 g/m*3 3.9 C 0 km/h
1079 25-01-2020 19:10:00 4 C 5.98 g/m*3 4 C 0 km/h
1080 25-01-2020 19:15:00 3.9 C 5.94 g/m*3 3.9 C 0 km/h
1081 25-01-2020 19:20:00 3.9 C 5.94 g/m*3 3.9 C 0 km/h
1082 25-01-2020 19:25:00 3.9 C 5.94 g/m*3 3.9 C 0 km/h
1083 25-01-2020 19:30:00 3.9 C 5.94 g/m*3 3.9 C 0 km/h
1084 25-01-2020 19:35:00 3.9 C 5.94 g/m*3 3.9 C 0 km/h
1085 25-01-2020 19:40:00 3.9 C 5.94 g/m*3 3.9 C 0 km/h
1086 25-01-2020 19:45:00 3.9 C 5.94 g/m*3 3.9 C 3.2 km/h
1087 25-01-2020 19:50:00 3.9 C 5.94 g/m*3 3.9 C 3.2 km/h
1088 25-01-2020 19:55:00 3.9 C 5.94 g/m*3 3.9 C 0 km/h
1089 25-01-2020 20:00:00 3.9 C 5.94 g/m*3 3.9 C 0 km/h
1090 25-01-2020 20:05:00 3.9 C 6 g/m*3 3.9 C 0 km/h
1091 25-01-2020 20:10:00 3.9 C 6 g/m*3 3.9 C 0 km/h
1092 25-01-2020 20:15:00 3.8 C 5.96 g/m*3 3.8 C 0 km/h
1093 25-01-2020 20:20:00 3.8 C 5.96 g/m*3 3.8 C 0 km/h
1094 25-01-2020 20:25:00 3.8 C 5.96 g/m*3 3.8 C 0 km/h
1095 25-01-2020 20:30:00 3.8 C 5.96 g/m*3 3.8 C 0 km/h
1096 25-01-2020 20:35:00 3.8 C 5.96 g/m*3 3.8 C 0 km/h
1097 25-01-2020 20:40:00 3.8 C 5.96 g/m*3 3.8 C 0 km/h
1098 25-01-2020 20:45:00 3.7 C 5.92 g/m*3 3.7 C 0 km/h
1099 25-01-2020 20:50:00 3.7 C 5.92 g/m*3 3.7 C 3.2 km/h
1100 25-01-2020 20:55:00 3.6 C 5.88 g/m*3 3.6 C 0 km/h
Sensor: Nr:Datum:Temp:Abs-Feuchte:Windchill:Wind:
Aussen-T/F 1101 25-01-2020 21:00:00 3.6 C 5.88 g/m*3 3.6 C 0 km/h
1102 25-01-2020 21:05:00 3.4 C 5.8 g/m*3 3.4 C 0 km/h
1103 25-01-2020 21:10:00 3.4 C 5.74 g/m*3 3.4 C 0 km/h
1104 25-01-2020 21:15:00 3.4 C 5.74 g/m*3 3.4 C 0 km/h
1105 25-01-2020 21:20:00 3.3 C 5.7 g/m*3 3.3 C 0 km/h
1106 25-01-2020 21:25:00 3.3 C 5.76 g/m*3 3.3 C 1.6 km/h
1107 25-01-2020 21:30:00 3.2 C 5.72 g/m*3 3.2 C 3.2 km/h
1108 25-01-2020 21:35:00 3.1 C 5.69 g/m*3 3.1 C 3.2 km/h
1109 25-01-2020 21:40:00 3.1 C 5.63 g/m*3 3.1 C 0 km/h
1110 25-01-2020 21:45:00 3 C 5.59 g/m*3 3 C 3.2 km/h
1111 25-01-2020 21:50:00 2.9 C 5.55 g/m*3 2.9 C 3.2 km/h
1112 25-01-2020 21:55:00 2.9 C 5.61 g/m*3 2.9 C 1.6 km/h
1113 25-01-2020 22:00:00 2.8 C 5.51 g/m*3 2.8 C 3.2 km/h
1114 25-01-2020 22:05:00 2.8 C 5.51 g/m*3 2.8 C 1.6 km/h
1115 25-01-2020 22:10:00 2.7 C 5.48 g/m*3 2.7 C 3.2 km/h
1116 25-01-2020 22:15:00 2.7 C 5.54 g/m*3 2.7 C 4.8 km/h
1117 25-01-2020 22:20:00 2.6 C 5.5 g/m*3 2.6 C 4.8 km/h
1118 25-01-2020 22:25:00 2.6 C 5.5 g/m*3 2.6 C 3.2 km/h
1119 25-01-2020 22:30:00 2.5 C 5.46 g/m*3 2.5 C 0 km/h
1120 25-01-2020 22:35:00 2.4 C 5.42 g/m*3 0.59 C 6.4 km/h
1121 25-01-2020 22:40:00 2.4 C 5.42 g/m*3 2.4 C 3.2 km/h
1122 25-01-2020 22:45:00 2.4 C 5.42 g/m*3 2.4 C 0 km/h
1123 25-01-2020 22:50:00 2.3 C 5.39 g/m*3 2.3 C 4.8 km/h
1124 25-01-2020 22:55:00 2.3 C 5.39 g/m*3 2.3 C 3.2 km/h
1125 25-01-2020 23:00:00 2.3 C 5.39 g/m*3 2.3 C 4.8 km/h
Sensor: Nr:Datum:Temp:Abs-Feuchte:Windchill:Wind:
Aussen-T/F 1126 25-01-2020 23:05:00 2.2 C 5.35 g/m*3 2.2 C 0 km/h
1127 25-01-2020 23:10:00 2.2 C 5.35 g/m*3 2.2 C 0 km/h
1128 25-01-2020 23:15:00 2.2 C 5.35 g/m*3 2.2 C 1.6 km/h
1129 25-01-2020 23:20:00 2.1 C 5.31 g/m*3 0.24 C 6.4 km/h
1130 25-01-2020 23:25:00 2.1 C 5.31 g/m*3 2.1 C 3.2 km/h
1131 25-01-2020 23:30:00 2 C 5.28 g/m*3 2 C 1.6 km/h
1132 25-01-2020 23:35:00 2 C 5.28 g/m*3 2 C 3.2 km/h
1133 25-01-2020 23:40:00 2 C 5.28 g/m*3 2 C 0 km/h
1134 25-01-2020 23:45:00 1.9 C 5.24 g/m*3 1.9 C 0 km/h
1135 25-01-2020 23:50:00 1.9 C 5.24 g/m*3 1.9 C 4.8 km/h
1136 25-01-2020 23:55:00 1.9 C 5.24 g/m*3 1.9 C 0 km/h
1137 26-01-2020 00:00:00 1.9 C 5.24 g/m*3 1.9 C 0 km/h
1138 26-01-2020 00:05:00 1.9 C 5.24 g/m*3 1.9 C 0 km/h
1139 26-01-2020 00:10:00 1.8 C 5.21 g/m*3 1.8 C 0 km/h
1140 26-01-2020 00:15:00 1.8 C 5.21 g/m*3 1.8 C 0 km/h
1141 26-01-2020 00:20:00 1.8 C 5.21 g/m*3 1.8 C 0 km/h
1142 26-01-2020 00:25:00 1.8 C 5.21 g/m*3 1.8 C 0 km/h
1143 26-01-2020 00:30:00 1.8 C 5.21 g/m*3 1.8 C 0 km/h
1144 26-01-2020 00:35:00 1.8 C 5.21 g/m*3 1.8 C 0 km/h
1145 26-01-2020 00:40:00 1.8 C 5.21 g/m*3 1.8 C 0 km/h
1146 26-01-2020 00:45:00 1.8 C 5.21 g/m*3 1.8 C 0 km/h
1147 26-01-2020 00:50:00 1.7 C 5.17 g/m*3 1.7 C 0 km/h
1148 26-01-2020 00:55:00 1.7 C 5.17 g/m*3 1.7 C 0 km/h
1149 26-01-2020 01:00:00 1.7 C 5.17 g/m*3 1.7 C 0 km/h
1150 26-01-2020 01:05:00 1.7 C 5.17 g/m*3 1.7 C 0 km/h
Sensor: Nr:Datum:Temp:Abs-Feuchte:Windchill:Wind:
Aussen-T/F 1151 26-01-2020 01:10:00 1.6 C 5.19 g/m*3 1.6 C 0 km/h
1152 26-01-2020 01:15:00 1.6 C 5.19 g/m*3 1.6 C 0 km/h
1153 26-01-2020 01:20:00 1.6 C 5.19 g/m*3 1.6 C 0 km/h
1154 26-01-2020 01:25:00 1.6 C 5.19 g/m*3 1.6 C 0 km/h
1155 26-01-2020 01:30:00 1.6 C 5.19 g/m*3 1.6 C 0 km/h
1156 26-01-2020 01:35:00 1.6 C 5.19 g/m*3 1.6 C 0 km/h
1157 26-01-2020 01:40:00 1.5 C 5.16 g/m*3 1.5 C 0 km/h
1158 26-01-2020 01:45:00 1.5 C 5.16 g/m*3 1.5 C 0 km/h
1159 26-01-2020 01:50:00 1.5 C 5.16 g/m*3 1.5 C 0 km/h
1160 26-01-2020 01:55:00 1.5 C 5.16 g/m*3 1.5 C 0 km/h
1161 26-01-2020 02:00:00 1.5 C 5.16 g/m*3 1.5 C 0 km/h
1162 26-01-2020 02:05:00 1.5 C 5.16 g/m*3 1.5 C 0 km/h
1163 26-01-2020 02:10:00 1.5 C 5.16 g/m*3 1.5 C 0 km/h
1164 26-01-2020 02:15:00 1.5 C 5.16 g/m*3 1.5 C 0 km/h
1165 26-01-2020 02:20:00 1.5 C 5.16 g/m*3 1.5 C 0 km/h
1166 26-01-2020 02:25:00 1.5 C 5.16 g/m*3 1.5 C 0 km/h
1167 26-01-2020 02:30:00 1.5 C 5.16 g/m*3 1.5 C 0 km/h
1168 26-01-2020 02:35:00 1.5 C 5.16 g/m*3 1.5 C 0 km/h
1169 26-01-2020 02:40:00 1.5 C 5.16 g/m*3 1.5 C 0 km/h
1170 26-01-2020 02:45:00 1.5 C 5.16 g/m*3 1.5 C 0 km/h
1171 26-01-2020 02:50:00 1.5 C 5.16 g/m*3 1.5 C 0 km/h
1172 26-01-2020 02:55:00 1.5 C 5.16 g/m*3 1.5 C 0 km/h
1173 26-01-2020 03:00:00 1.5 C 5.16 g/m*3 1.5 C 0 km/h
1174 26-01-2020 03:05:00 1.5 C 5.16 g/m*3 1.5 C 0 km/h
1175 26-01-2020 03:10:00 1.5 C 5.16 g/m*3 1.5 C 0 km/h
Sensor: Nr:Datum:Temp:Abs-Feuchte:Windchill:Wind:
Aussen-T/F 1176 26-01-2020 03:15:00 1.5 C 5.16 g/m*3 1.5 C 0 km/h
1177 26-01-2020 03:20:00 1.4 C 5.12 g/m*3 1.4 C 0 km/h
1178 26-01-2020 03:25:00 1.4 C 5.12 g/m*3 1.4 C 0 km/h
1179 26-01-2020 03:30:00 1.4 C 5.12 g/m*3 1.4 C 1.6 km/h
1180 26-01-2020 03:35:00 1.4 C 5.12 g/m*3 1.4 C 0 km/h
1181 26-01-2020 03:40:00 1.4 C 5.12 g/m*3 1.4 C 0 km/h
1182 26-01-2020 03:45:00 1.4 C 5.12 g/m*3 1.4 C 1.6 km/h
1183 26-01-2020 03:50:00 1.3 C 5.09 g/m*3 1.3 C 1.6 km/h
1184 26-01-2020 03:55:00 1.3 C 5.09 g/m*3 1.3 C 0 km/h
1185 26-01-2020 04:00:00 1.3 C 5.09 g/m*3 1.3 C 0 km/h
1186 26-01-2020 04:05:00 1.3 C 5.09 g/m*3 1.3 C 0 km/h
1187 26-01-2020 04:10:00 1.3 C 5.09 g/m*3 1.3 C 0 km/h
1188 26-01-2020 04:15:00 1.3 C 5.09 g/m*3 1.3 C 0 km/h
1189 26-01-2020 04:20:00 1.3 C 5.09 g/m*3 1.3 C 0 km/h
1190 26-01-2020 04:25:00 1.3 C 5.09 g/m*3 1.3 C 0 km/h
1191 26-01-2020 04:30:00 1.3 C 5.09 g/m*3 1.3 C 0 km/h
1192 26-01-2020 04:35:00 1.3 C 5.09 g/m*3 1.3 C 0 km/h
1193 26-01-2020 04:40:00 1.3 C 5.09 g/m*3 1.3 C 0 km/h
1194 26-01-2020 04:45:00 1.3 C 5.09 g/m*3 1.3 C 0 km/h
1195 26-01-2020 04:50:00 1.3 C 5.09 g/m*3 1.3 C 0 km/h
1196 26-01-2020 04:55:00 1.3 C 5.09 g/m*3 1.3 C 0 km/h
1197 26-01-2020 05:00:00 1.3 C 5.09 g/m*3 1.3 C 0 km/h
1198 26-01-2020 05:05:00 1.3 C 5.09 g/m*3 1.3 C 0 km/h
1199 26-01-2020 05:10:00 1.3 C 5.09 g/m*3 1.3 C 0 km/h
1200 26-01-2020 05:15:00 1.3 C 5.09 g/m*3 1.3 C 0 km/h
Sensor: Nr:Datum:Temp:Abs-Feuchte:Windchill:Wind:
Aussen-T/F 1201 26-01-2020 05:20:00 1.3 C 5.09 g/m*3 1.3 C 0 km/h
1202 26-01-2020 05:25:00 1.3 C 5.09 g/m*3 1.3 C 0 km/h
1203 26-01-2020 05:30:00 1.3 C 5.09 g/m*3 1.3 C 0 km/h
1204 26-01-2020 05:35:00 1.3 C 5.09 g/m*3 1.3 C 0 km/h
1205 26-01-2020 05:40:00 1.3 C 5.09 g/m*3 1.3 C 0 km/h
1206 26-01-2020 05:45:00 1.3 C 5.09 g/m*3 1.3 C 0 km/h
1207 26-01-2020 05:50:00 1.3 C 5.09 g/m*3 1.3 C 0 km/h
1208 26-01-2020 05:55:00 1.3 C 5.09 g/m*3 1.3 C 0 km/h
1209 26-01-2020 06:00:00 1.3 C 5.09 g/m*3 1.3 C 0 km/h
1210 26-01-2020 06:05:00 1.3 C 5.09 g/m*3 1.3 C 0 km/h
1211 26-01-2020 06:10:00 1.3 C 5.09 g/m*3 1.3 C 0 km/h
1212 26-01-2020 06:15:00 1.3 C 5.09 g/m*3 1.3 C 0 km/h
1213 26-01-2020 06:20:00 1.3 C 5.09 g/m*3 1.3 C 0 km/h
1214 26-01-2020 06:25:00 1.3 C 5.09 g/m*3 1.3 C 0 km/h
1215 26-01-2020 06:30:00 1.3 C 5.09 g/m*3 1.3 C 0 km/h
1216 26-01-2020 06:35:00 1.3 C 5.09 g/m*3 1.3 C 0 km/h
1217 26-01-2020 06:40:00 1.3 C 5.09 g/m*3 1.3 C 0 km/h
1218 26-01-2020 06:45:00 1.3 C 5.09 g/m*3 1.3 C 0 km/h
1219 26-01-2020 06:50:00 1.3 C 5.09 g/m*3 1.3 C 0 km/h
1220 26-01-2020 06:55:00 1.3 C 5.09 g/m*3 1.3 C 0 km/h
1221 26-01-2020 07:00:00 1.4 C 5.12 g/m*3 1.4 C 0 km/h
1222 26-01-2020 07:05:00 1.4 C 5.12 g/m*3 1.4 C 0 km/h
1223 26-01-2020 07:10:00 1.4 C 5.12 g/m*3 1.4 C 0 km/h
1224 26-01-2020 07:15:00 1.4 C 5.12 g/m*3 1.4 C 0 km/h
1225 26-01-2020 07:20:00 1.4 C 5.12 g/m*3 1.4 C 0 km/h
Sensor: Nr:Datum:Temp:Abs-Feuchte:Windchill:Wind:
Aussen-T/F 1226 26-01-2020 07:25:00 1.4 C 5.12 g/m*3 1.4 C 0 km/h
1227 26-01-2020 07:30:00 1.4 C 5.12 g/m*3 1.4 C 0 km/h
1228 26-01-2020 07:35:00 1.4 C 5.12 g/m*3 1.4 C 0 km/h
1229 26-01-2020 07:40:00 1.4 C 5.12 g/m*3 1.4 C 0 km/h
1230 26-01-2020 07:45:00 1.4 C 5.12 g/m*3 1.4 C 0 km/h
1231 26-01-2020 07:50:00 1.4 C 5.12 g/m*3 1.4 C 0 km/h
1232 26-01-2020 07:55:00 1.4 C 5.12 g/m*3 1.4 C 0 km/h
1233 26-01-2020 08:00:00 1.4 C 5.12 g/m*3 1.4 C 0 km/h
1234 26-01-2020 08:05:00 1.4 C 5.12 g/m*3 1.4 C 0 km/h
1235 26-01-2020 08:10:00 1.4 C 5.12 g/m*3 1.4 C 0 km/h
1236 26-01-2020 08:15:00 1.4 C 5.12 g/m*3 1.4 C 0 km/h
1237 26-01-2020 08:20:00 1.4 C 5.12 g/m*3 1.4 C 0 km/h
1238 26-01-2020 08:25:00 1.4 C 5.12 g/m*3 1.4 C 0 km/h
1239 26-01-2020 08:30:00 1.4 C 5.12 g/m*3 1.4 C 0 km/h
1240 26-01-2020 08:35:00 1.4 C 5.12 g/m*3 1.4 C 0 km/h
1241 26-01-2020 08:40:00 1.4 C 5.12 g/m*3 1.4 C 0 km/h
1242 26-01-2020 08:45:00 1.4 C 5.12 g/m*3 1.4 C 0 km/h
1243 26-01-2020 08:50:00 1.4 C 5.12 g/m*3 1.4 C 0 km/h
1244 26-01-2020 08:55:00 1.4 C 5.12 g/m*3 1.4 C 0 km/h
1245 26-01-2020 09:00:00 1.4 C 5.12 g/m*3 1.4 C 0 km/h
1246 26-01-2020 09:05:00 1.5 C 5.16 g/m*3 1.5 C 0 km/h
1247 26-01-2020 09:10:00 1.5 C 5.16 g/m*3 1.5 C 0 km/h
1248 26-01-2020 09:15:00 1.5 C 5.16 g/m*3 1.5 C 0 km/h
1249 26-01-2020 09:20:00 1.5 C 5.16 g/m*3 1.5 C 0 km/h
1250 26-01-2020 09:25:00 1.5 C 5.16 g/m*3 1.5 C 0 km/h
Sensor: Nr:Datum:Temp:Abs-Feuchte:Windchill:Wind:
Aussen-T/F 1251 26-01-2020 09:30:00 1.5 C 5.16 g/m*3 1.5 C 0 km/h
1252 26-01-2020 09:35:00 1.5 C 5.16 g/m*3 1.5 C 0 km/h
1253 26-01-2020 09:40:00 1.5 C 5.16 g/m*3 1.5 C 0 km/h
1254 26-01-2020 09:45:00 1.5 C 5.16 g/m*3 1.5 C 0 km/h
1255 26-01-2020 09:50:00 1.5 C 5.16 g/m*3 1.5 C 0 km/h
1256 26-01-2020 09:55:00 1.5 C 5.16 g/m*3 1.5 C 0 km/h
1257 26-01-2020 10:00:00 1.5 C 5.16 g/m*3 1.5 C 0 km/h
1258 26-01-2020 10:05:00 1.5 C 5.16 g/m*3 1.5 C 0 km/h
1259 26-01-2020 10:10:00 1.5 C 5.1 g/m*3 1.5 C 0 km/h
1260 26-01-2020 10:15:00 1.5 C 5.1 g/m*3 1.5 C 0 km/h
1261 26-01-2020 10:20:00 1.5 C 5.16 g/m*3 1.5 C 0 km/h
1262 26-01-2020 10:25:00 1.6 C 5.19 g/m*3 1.6 C 0 km/h
1263 26-01-2020 10:30:00 1.7 C 5.23 g/m*3 1.7 C 0 km/h
1264 26-01-2020 10:35:00 1.8 C 5.26 g/m*3 1.8 C 0 km/h
1265 26-01-2020 10:40:00 1.8 C 5.26 g/m*3 1.8 C 0 km/h
1266 26-01-2020 10:45:00 2 C 5.33 g/m*3 2 C 0 km/h
1267 26-01-2020 10:50:00 2.1 C 5.37 g/m*3 2.1 C 0 km/h
1268 26-01-2020 10:55:00 2.2 C 5.41 g/m*3 2.2 C 0 km/h
1269 26-01-2020 11:00:00 2.3 C 5.44 g/m*3 2.3 C 0 km/h
1270 26-01-2020 11:05:00 2.3 C 5.44 g/m*3 2.3 C 0 km/h
1271 26-01-2020 11:10:00 2.4 C 5.42 g/m*3 2.4 C 0 km/h
1272 26-01-2020 11:15:00 2.4 C 5.48 g/m*3 2.4 C 0 km/h
1273 26-01-2020 11:20:00 2.5 C 5.46 g/m*3 2.5 C 0 km/h
1274 26-01-2020 11:25:00 2.6 C 5.5 g/m*3 2.6 C 0 km/h
1275 26-01-2020 11:30:00 2.7 C 5.54 g/m*3 2.7 C 0 km/h
Sensor: Nr:Datum:Temp:Abs-Feuchte:Windchill:Wind:
Aussen-T/F 1276 26-01-2020 11:35:00 2.7 C 5.54 g/m*3 2.7 C 0 km/h
1277 26-01-2020 11:40:00 2.8 C 5.57 g/m*3 2.8 C 0 km/h
1278 26-01-2020 11:45:00 2.8 C 5.57 g/m*3 2.8 C 0 km/h
1279 26-01-2020 11:50:00 2.9 C 5.61 g/m*3 2.9 C 0 km/h
1280 26-01-2020 11:55:00 3.1 C 5.69 g/m*3 3.1 C 0 km/h
1281 26-01-2020 12:00:00 3.2 C 5.79 g/m*3 3.2 C 0 km/h
1282 26-01-2020 12:05:00 3.4 C 5.86 g/m*3 3.4 C 0 km/h
1283 26-01-2020 12:10:00 3.6 C 5.94 g/m*3 3.6 C 0 km/h
1284 26-01-2020 12:15:00 3.8 C 5.96 g/m*3 3.8 C 0 km/h
1285 26-01-2020 12:20:00 3.9 C 6 g/m*3 3.9 C 3.2 km/h
1286 26-01-2020 12:25:00 4 C 5.98 g/m*3 4 C 0 km/h
1287 26-01-2020 12:30:00 4.1 C 6.02 g/m*3 4.1 C 0 km/h
1288 26-01-2020 12:35:00 4.1 C 6.02 g/m*3 4.1 C 0 km/h
1289 26-01-2020 12:40:00 4.2 C 6.06 g/m*3 4.2 C 0 km/h
1290 26-01-2020 12:45:00 4.2 C 6.06 g/m*3 4.2 C 0 km/h
1291 26-01-2020 12:50:00 4.3 C 6.1 g/m*3 4.3 C 0 km/h
1292 26-01-2020 12:55:00 4.4 C 6.14 g/m*3 4.4 C 0 km/h
1293 26-01-2020 13:00:00 4.4 C 6.14 g/m*3 4.4 C 0 km/h
1294 26-01-2020 13:05:00 4.5 C 6.18 g/m*3 4.5 C 0 km/h
1295 26-01-2020 13:10:00 4.6 C 6.22 g/m*3 4.6 C 0 km/h
1296 26-01-2020 13:15:00 4.6 C 6.22 g/m*3 4.6 C 0 km/h
1297 26-01-2020 13:20:00 4.6 C 6.22 g/m*3 4.6 C 0 km/h
1298 26-01-2020 13:25:00 4.7 C 6.26 g/m*3 4.7 C 0 km/h
1299 26-01-2020 13:30:00 4.7 C 6.26 g/m*3 4.7 C 0 km/h
1300 26-01-2020 13:35:00 4.8 C 6.3 g/m*3 4.8 C 0 km/h
Sensor: Nr:Datum:Temp:Abs-Feuchte:Windchill:Wind:
Aussen-T/F 1301 26-01-2020 13:40:00 4.9 C 6.35 g/m*3 4.9 C 0 km/h
1302 26-01-2020 13:45:00 4.9 C 6.35 g/m*3 4.9 C 0 km/h
1303 26-01-2020 13:50:00 5 C 6.39 g/m*3 5 C 0 km/h
1304 26-01-2020 13:55:00 5.1 C 6.43 g/m*3 5.1 C 0 km/h
1305 26-01-2020 14:00:00 5.1 C 6.43 g/m*3 5.1 C 0 km/h
1306 26-01-2020 14:05:00 5.1 C 6.43 g/m*3 5.1 C 0 km/h
1307 26-01-2020 14:10:00 5.2 C 6.47 g/m*3 5.2 C 0 km/h
1308 26-01-2020 14:15:00 5.2 C 6.47 g/m*3 5.2 C 0 km/h
1309 26-01-2020 14:20:00 5.3 C 6.52 g/m*3 5.3 C 1.6 km/h
1310 26-01-2020 14:25:00 5.3 C 6.52 g/m*3 5.3 C 0 km/h
1311 26-01-2020 14:30:00 5.3 C 6.52 g/m*3 5.3 C 1.6 km/h
1312 26-01-2020 14:35:00 5.3 C 6.52 g/m*3 5.3 C 0 km/h
1313 26-01-2020 14:40:00 5.4 C 6.56 g/m*3 5.4 C 0 km/h
1314 26-01-2020 14:45:00 5.4 C 6.56 g/m*3 5.4 C 0 km/h
1315 26-01-2020 14:50:00 5.4 C 6.56 g/m*3 5.4 C 0 km/h
1316 26-01-2020 14:55:00 5.5 C 6.67 g/m*3 5.5 C 0 km/h
1317 26-01-2020 15:00:00 5.7 C 6.76 g/m*3 5.7 C 1.6 km/h
1318 26-01-2020 15:05:00 6 C 6.9 g/m*3 6 C 4.8 km/h
1319 26-01-2020 15:10:00 6.3 C 7.03 g/m*3 6.3 C 4.8 km/h
1320 26-01-2020 15:15:00 6.4 C 6.93 g/m*3 6.4 C 4.8 km/h
1321 26-01-2020 15:20:00 6.4 C 6.93 g/m*3 6.4 C 3.2 km/h
1322 26-01-2020 15:25:00 6.5 C 6.9 g/m*3 6.5 C 1.6 km/h
1323 26-01-2020 15:30:00 6.5 C 6.9 g/m*3 6.5 C 1.6 km/h
1324 26-01-2020 15:35:00 6.4 C 6.85 g/m*3 6.4 C 1.6 km/h
1325 26-01-2020 15:40:00 6.3 C 6.81 g/m*3 6.3 C 0 km/h
Sensor: Nr:Datum:Temp:Abs-Feuchte:Windchill:Wind:
Aussen-T/F 1326 26-01-2020 15:45:00 6.3 C 6.74 g/m*3 6.3 C 1.6 km/h
1327 26-01-2020 15:50:00 6.1 C 6.65 g/m*3 6.1 C 1.6 km/h
1328 26-01-2020 15:55:00 6 C 6.6 g/m*3 6 C 1.6 km/h
1329 26-01-2020 16:00:00 5.8 C 6.52 g/m*3 5.8 C 1.6 km/h
1330 26-01-2020 16:05:00 5.7 C 6.55 g/m*3 5.7 C 0 km/h
1331 26-01-2020 16:10:00 5.6 C 6.5 g/m*3 5.6 C 0 km/h
1332 26-01-2020 16:15:00 5.4 C 6.42 g/m*3 5.4 C 1.6 km/h
1333 26-01-2020 16:20:00 5.3 C 6.38 g/m*3 5.3 C 0 km/h
1334 26-01-2020 16:25:00 5.2 C 6.33 g/m*3 5.2 C 0 km/h
1335 26-01-2020 16:30:00 5.1 C 6.29 g/m*3 5.1 C 0 km/h
1336 26-01-2020 16:35:00 4.9 C 6.21 g/m*3 4.9 C 0 km/h
1337 26-01-2020 16:40:00 4.8 C 6.17 g/m*3 4.8 C 0 km/h
1338 26-01-2020 16:45:00 4.7 C 6.13 g/m*3 4.7 C 3.2 km/h
1339 26-01-2020 16:50:00 4.6 C 6.15 g/m*3 4.6 C 4.8 km/h
1340 26-01-2020 16:55:00 4.6 C 6.15 g/m*3 4.6 C 4.8 km/h
1341 26-01-2020 17:00:00 4.6 C 6.15 g/m*3 3.13 C 6.4 km/h
1342 26-01-2020 17:05:00 4.6 C 6.15 g/m*3 3.13 C 6.4 km/h
1343 26-01-2020 17:10:00 4.4 C 6.07 g/m*3 2.9 C 6.4 km/h
1344 26-01-2020 17:15:00 4.3 C 6.03 g/m*3 2.78 C 6.4 km/h
1345 26-01-2020 17:20:00 4.3 C 6.03 g/m*3 2.78 C 6.4 km/h
1346 26-01-2020 17:25:00 4.2 C 5.99 g/m*3 4.2 C 3.2 km/h
1347 26-01-2020 17:30:00 4.2 C 5.99 g/m*3 4.2 C 4.8 km/h
1348 26-01-2020 17:35:00 4.2 C 6.06 g/m*3 4.2 C 4.8 km/h
1349 26-01-2020 17:40:00 4.2 C 6.06 g/m*3 4.2 C 3.2 km/h
1350 26-01-2020 17:45:00 4.3 C 6.1 g/m*3 4.3 C 4.8 km/h
Sensor: Nr:Datum:Temp:Abs-Feuchte:Windchill:Wind:
Aussen-T/F 1351 26-01-2020 17:50:00 4.3 C 6.1 g/m*3 4.3 C 3.2 km/h
1352 26-01-2020 17:55:00 4.3 C 6.1 g/m*3 4.3 C 1.6 km/h
1353 26-01-2020 18:00:00 4.4 C 6.14 g/m*3 4.4 C 3.2 km/h
1354 26-01-2020 18:05:00 4.4 C 6.14 g/m*3 2.9 C 6.4 km/h
1355 26-01-2020 18:10:00 4.4 C 6.14 g/m*3 4.4 C 4.8 km/h
1356 26-01-2020 18:15:00 4.4 C 6.14 g/m*3 2.9 C 6.4 km/h
1357 26-01-2020 18:20:00 4.4 C 6.14 g/m*3 4.4 C 4.8 km/h
1358 26-01-2020 18:25:00 4.4 C 6.14 g/m*3 2.9 C 6.4 km/h
1359 26-01-2020 18:30:00 4.4 C 6.14 g/m*3 4.4 C 4.8 km/h
1360 26-01-2020 18:35:00 4.5 C 6.18 g/m*3 4.5 C 3.2 km/h
1361 26-01-2020 18:40:00 4.4 C 6.14 g/m*3 4.4 C 1.6 km/h
1362 26-01-2020 18:45:00 4.4 C 6.07 g/m*3 4.4 C 3.2 km/h
1363 26-01-2020 18:50:00 4.4 C 6.07 g/m*3 4.4 C 0 km/h
1364 26-01-2020 18:55:00 4.3 C 6.1 g/m*3 4.3 C 1.6 km/h
1365 26-01-2020 19:00:00 4.3 C 6.03 g/m*3 4.3 C 0 km/h
1366 26-01-2020 19:05:00 4.2 C 5.99 g/m*3 4.2 C 3.2 km/h
1367 26-01-2020 19:10:00 4.2 C 5.99 g/m*3 4.2 C 3.2 km/h
1368 26-01-2020 19:15:00 4.1 C 5.95 g/m*3 4.1 C 0 km/h
1369 26-01-2020 19:20:00 4.1 C 5.95 g/m*3 4.1 C 0 km/h
1370 26-01-2020 19:25:00 4 C 5.98 g/m*3 4 C 1.6 km/h
1371 26-01-2020 19:30:00 3.9 C 5.94 g/m*3 3.9 C 1.6 km/h
1372 26-01-2020 19:35:00 3.9 C 5.94 g/m*3 3.9 C 3.2 km/h
1373 26-01-2020 19:40:00 3.9 C 5.94 g/m*3 3.9 C 1.6 km/h
1374 26-01-2020 19:45:00 3.9 C 5.94 g/m*3 3.9 C 1.6 km/h
1375 26-01-2020 19:50:00 3.9 C 5.94 g/m*3 3.9 C 0 km/h
Sensor: Nr:Datum:Temp:Abs-Feuchte:Windchill:Wind:
Aussen-T/F 1376 26-01-2020 19:55:00 3.9 C 5.94 g/m*3 3.9 C 0 km/h
1377 26-01-2020 20:00:00 3.8 C 5.9 g/m*3 3.8 C 0 km/h
1378 26-01-2020 20:05:00 3.8 C 5.9 g/m*3 3.8 C 0 km/h
1379 26-01-2020 20:10:00 3.8 C 5.9 g/m*3 3.8 C 0 km/h
1380 26-01-2020 20:15:00 3.8 C 5.9 g/m*3 3.8 C 0 km/h
1381 26-01-2020 20:20:00 3.8 C 5.9 g/m*3 3.8 C 0 km/h
1382 26-01-2020 20:25:00 3.8 C 5.9 g/m*3 3.8 C 0 km/h
1383 26-01-2020 20:30:00 3.7 C 5.92 g/m*3 3.7 C 0 km/h
1384 26-01-2020 20:35:00 3.7 C 5.86 g/m*3 3.7 C 0 km/h
1385 26-01-2020 20:40:00 3.7 C 5.86 g/m*3 3.7 C 0 km/h
1386 26-01-2020 20:45:00 3.7 C 5.86 g/m*3 3.7 C 0 km/h
1387 26-01-2020 20:50:00 3.7 C 5.86 g/m*3 3.7 C 0 km/h
1388 26-01-2020 20:55:00 3.6 C 5.82 g/m*3 3.6 C 0 km/h
1389 26-01-2020 21:00:00 3.4 C 5.74 g/m*3 3.4 C 0 km/h
1390 26-01-2020 21:05:00 3.3 C 5.7 g/m*3 3.3 C 0 km/h
1391 26-01-2020 21:10:00 3.3 C 5.7 g/m*3 3.3 C 0 km/h
1392 26-01-2020 21:15:00 3.2 C 5.66 g/m*3 3.2 C 0 km/h
1393 26-01-2020 21:20:00 3.2 C 5.72 g/m*3 3.2 C 0 km/h
1394 26-01-2020 21:25:00 3.1 C 5.69 g/m*3 3.1 C 0 km/h
1395 26-01-2020 21:30:00 3.1 C 5.69 g/m*3 3.1 C 0 km/h
1396 26-01-2020 21:35:00 3.1 C 5.69 g/m*3 3.1 C 0 km/h
1397 26-01-2020 21:40:00 3.1 C 5.69 g/m*3 3.1 C 0 km/h
1398 26-01-2020 21:45:00 3 C 5.65 g/m*3 3 C 0 km/h
1399 26-01-2020 21:50:00 2.9 C 5.61 g/m*3 2.9 C 0 km/h
1400 26-01-2020 21:55:00 2.8 C 5.57 g/m*3 2.8 C 0 km/h
Sensor: Nr:Datum:Temp:Abs-Feuchte:Windchill:Wind:
Aussen-T/F 1401 26-01-2020 22:00:00 2.7 C 5.54 g/m*3 2.7 C 0 km/h
1402 26-01-2020 22:05:00 2.4 C 5.37 g/m*3 2.4 C 1.6 km/h
1403 26-01-2020 22:10:00 2.3 C 5.39 g/m*3 2.3 C 0 km/h
1404 26-01-2020 22:15:00 2.2 C 5.35 g/m*3 2.2 C 0 km/h
1405 26-01-2020 22:20:00 2.1 C 5.31 g/m*3 2.1 C 0 km/h
1406 26-01-2020 22:25:00 2 C 5.28 g/m*3 2 C 0 km/h
1407 26-01-2020 22:30:00 1.9 C 5.24 g/m*3 1.9 C 0 km/h
1408 26-01-2020 22:35:00 1.8 C 5.21 g/m*3 1.8 C 0 km/h
1409 26-01-2020 22:40:00 1.7 C 5.17 g/m*3 1.7 C 0 km/h
1410 26-01-2020 22:45:00 1.6 C 5.14 g/m*3 1.6 C 0 km/h
1411 26-01-2020 22:50:00 1.4 C 5.07 g/m*3 1.4 C 0 km/h
1412 26-01-2020 22:55:00 1.4 C 5.07 g/m*3 1.4 C 0 km/h
1413 26-01-2020 23:00:00 1.4 C 5.07 g/m*3 1.4 C 0 km/h
1414 26-01-2020 23:05:00 1.4 C 5.07 g/m*3 1.4 C 1.6 km/h
1415 26-01-2020 23:10:00 1.4 C 5.07 g/m*3 1.4 C 3.2 km/h
1416 26-01-2020 23:15:00 1.4 C 5.12 g/m*3 1.4 C 0 km/h
1417 26-01-2020 23:20:00 1.4 C 5.12 g/m*3 1.4 C 0 km/h
1418 26-01-2020 23:25:00 1.5 C 5.16 g/m*3 1.5 C 0 km/h
1419 26-01-2020 23:30:00 1.6 C 5.19 g/m*3 1.6 C 0 km/h
1420 26-01-2020 23:35:00 1.7 C 5.23 g/m*3 1.7 C 0 km/h
1421 26-01-2020 23:40:00 1.9 C 5.3 g/m*3 1.9 C 0 km/h
1422 26-01-2020 23:45:00 2 C 5.33 g/m*3 2 C 0 km/h
1423 26-01-2020 23:50:00 2.2 C 5.41 g/m*3 2.2 C 0 km/h
1424 26-01-2020 23:55:00 2.3 C 5.5 g/m*3 2.3 C 0 km/h
1425 27-01-2020 00:00:00 2.3 C 5.5 g/m*3 2.3 C 0 km/h
Sensor: Nr:Datum:Temp:Abs-Feuchte:Windchill:Wind:
Aussen-T/F 1426 27-01-2020 00:05:00 2.4 C 5.54 g/m*3 2.4 C 0 km/h
1427 27-01-2020 00:10:00 2.5 C 5.58 g/m*3 2.5 C 0 km/h
1428 27-01-2020 00:15:00 2.6 C 5.61 g/m*3 2.6 C 0 km/h
1429 27-01-2020 00:20:00 2.6 C 5.61 g/m*3 2.6 C 0 km/h
1430 27-01-2020 00:25:00 2.6 C 5.61 g/m*3 2.6 C 0 km/h
1431 27-01-2020 00:30:00 2.7 C 5.65 g/m*3 2.7 C 0 km/h
1432 27-01-2020 00:35:00 2.7 C 5.65 g/m*3 2.7 C 0 km/h
1433 27-01-2020 00:40:00 2.7 C 5.65 g/m*3 2.7 C 0 km/h
1434 27-01-2020 00:45:00 2.7 C 5.59 g/m*3 2.7 C 0 km/h
1435 27-01-2020 00:50:00 2.7 C 5.59 g/m*3 2.7 C 0 km/h
1436 27-01-2020 00:55:00 2.6 C 5.56 g/m*3 2.6 C 0 km/h
1437 27-01-2020 01:00:00 2.6 C 5.56 g/m*3 2.6 C 0 km/h
1438 27-01-2020 01:05:00 2.6 C 5.56 g/m*3 2.6 C 0 km/h
1439 27-01-2020 01:10:00 2.6 C 5.56 g/m*3 2.6 C 0 km/h
1440 27-01-2020 01:15:00 2.6 C 5.56 g/m*3 2.6 C 0 km/h
1441 27-01-2020 01:20:00 2.6 C 5.61 g/m*3 2.6 C 0 km/h
1442 27-01-2020 01:25:00 2.4 C 5.48 g/m*3 2.4 C 0 km/h
1443 27-01-2020 01:30:00 2.2 C 5.41 g/m*3 2.2 C 0 km/h
1444 27-01-2020 01:35:00 2.1 C 5.37 g/m*3 2.1 C 0 km/h
1445 27-01-2020 01:40:00 1.9 C 5.3 g/m*3 1.9 C 0 km/h
1446 27-01-2020 01:45:00 1.8 C 5.26 g/m*3 1.8 C 0 km/h
1447 27-01-2020 01:50:00 1.8 C 5.26 g/m*3 1.8 C 0 km/h
1448 27-01-2020 01:55:00 1.7 C 5.23 g/m*3 1.7 C 0 km/h
1449 27-01-2020 02:00:00 1.7 C 5.23 g/m*3 1.7 C 0 km/h
1450 27-01-2020 02:05:00 1.7 C 5.23 g/m*3 1.7 C 0 km/h
Sensor: Nr:Datum:Temp:Abs-Feuchte:Windchill:Wind:
Aussen-T/F 1451 27-01-2020 02:10:00 1.7 C 5.23 g/m*3 1.7 C 0 km/h
1452 27-01-2020 02:15:00 1.9 C 5.35 g/m*3 1.9 C 0 km/h
1453 27-01-2020 02:20:00 2.1 C 5.43 g/m*3 2.1 C 0 km/h
1454 27-01-2020 02:25:00 2.3 C 5.5 g/m*3 2.3 C 0 km/h
1455 27-01-2020 02:30:00 2.4 C 5.54 g/m*3 2.4 C 0 km/h
1456 27-01-2020 02:35:00 2.6 C 5.61 g/m*3 2.6 C 0 km/h
1457 27-01-2020 02:40:00 2.7 C 5.65 g/m*3 2.7 C 0 km/h
1458 27-01-2020 02:45:00 2.7 C 5.65 g/m*3 2.7 C 0 km/h
1459 27-01-2020 02:50:00 2.8 C 5.69 g/m*3 2.8 C 0 km/h
1460 27-01-2020 02:55:00 2.9 C 5.73 g/m*3 2.9 C 0 km/h
1461 27-01-2020 03:00:00 3 C 5.77 g/m*3 3 C 0 km/h
1462 27-01-2020 03:05:00 3.1 C 5.81 g/m*3 3.1 C 3.2 km/h
1463 27-01-2020 03:10:00 3.1 C 5.81 g/m*3 3.1 C 0 km/h
1464 27-01-2020 03:15:00 3.1 C 5.81 g/m*3 3.1 C 0 km/h
1465 27-01-2020 03:20:00 3.2 C 5.85 g/m*3 3.2 C 0 km/h
1466 27-01-2020 03:25:00 3.2 C 5.85 g/m*3 3.2 C 0 km/h
1467 27-01-2020 03:30:00 3.3 C 5.88 g/m*3 3.3 C 0 km/h
1468 27-01-2020 03:35:00 3.3 C 5.88 g/m*3 3.3 C 0 km/h
1469 27-01-2020 03:40:00 3.2 C 5.85 g/m*3 3.2 C 0 km/h
1470 27-01-2020 03:45:00 3.1 C 5.81 g/m*3 3.1 C 0 km/h
1471 27-01-2020 03:50:00 3.1 C 5.81 g/m*3 3.1 C 0 km/h
1472 27-01-2020 03:55:00 3.1 C 5.81 g/m*3 3.1 C 0 km/h
1473 27-01-2020 04:00:00 3.2 C 5.85 g/m*3 3.2 C 0 km/h
1474 27-01-2020 04:05:00 3.4 C 5.92 g/m*3 3.4 C 0 km/h
1475 27-01-2020 04:10:00 3.6 C 6 g/m*3 3.6 C 0 km/h
Sensor: Nr:Datum:Temp:Abs-Feuchte:Windchill:Wind:
Aussen-T/F 1476 27-01-2020 04:15:00 3.7 C 6.04 g/m*3 3.7 C 0 km/h
1477 27-01-2020 04:20:00 3.8 C 6.09 g/m*3 3.8 C 0 km/h
1478 27-01-2020 04:25:00 4.1 C 6.27 g/m*3 4.1 C 3.2 km/h
1479 27-01-2020 04:30:00 4.2 C 6.25 g/m*3 4.2 C 0 km/h
1480 27-01-2020 04:35:00 4.3 C 6.29 g/m*3 4.3 C 0 km/h
1481 27-01-2020 04:40:00 4.3 C 6.36 g/m*3 4.3 C 3.2 km/h
1482 27-01-2020 04:45:00 4.3 C 6.36 g/m*3 4.3 C 0 km/h
1483 27-01-2020 04:50:00 4.4 C 6.4 g/m*3 4.4 C 0 km/h
1484 27-01-2020 04:55:00 4.4 C 6.4 g/m*3 4.4 C 1.6 km/h
1485 27-01-2020 05:00:00 4.4 C 6.4 g/m*3 4.4 C 0 km/h
1486 27-01-2020 05:05:00 4.4 C 6.33 g/m*3 4.4 C 0 km/h
1487 27-01-2020 05:10:00 4.4 C 6.33 g/m*3 4.4 C 0 km/h
1488 27-01-2020 05:15:00 4.5 C 6.38 g/m*3 4.5 C 0 km/h
1489 27-01-2020 05:20:00 4.6 C 6.42 g/m*3 4.6 C 0 km/h
1490 27-01-2020 05:25:00 4.6 C 6.42 g/m*3 4.6 C 0 km/h
1491 27-01-2020 05:30:00 4.6 C 6.42 g/m*3 4.6 C 0 km/h
1492 27-01-2020 05:35:00 4.7 C 6.53 g/m*3 4.7 C 0 km/h
1493 27-01-2020 05:40:00 4.7 C 6.53 g/m*3 4.7 C 0 km/h
1494 27-01-2020 05:45:00 4.7 C 6.53 g/m*3 4.7 C 0 km/h
1495 27-01-2020 05:50:00 4.8 C 6.57 g/m*3 4.8 C 0 km/h
1496 27-01-2020 05:55:00 4.8 C 6.57 g/m*3 4.8 C 0 km/h
1497 27-01-2020 06:00:00 4.9 C 6.55 g/m*3 4.9 C 0 km/h
1498 27-01-2020 06:05:00 4.9 C 6.55 g/m*3 4.9 C 3.2 km/h
1499 27-01-2020 06:10:00 5.1 C 6.7 g/m*3 5.1 C 0 km/h
1500 27-01-2020 06:15:00 5.2 C 6.75 g/m*3 5.2 C 1.6 km/h
Sensor: Nr:Datum:Temp:Abs-Feuchte:Windchill:Wind:
Aussen-T/F 1501 27-01-2020 06:20:00 5.4 C 6.84 g/m*3 5.4 C 1.6 km/h
1502 27-01-2020 06:25:00 5.6 C 6.93 g/m*3 5.6 C 1.6 km/h
1503 27-01-2020 06:30:00 5.7 C 6.97 g/m*3 5.7 C 0 km/h
1504 27-01-2020 06:35:00 5.9 C 7.07 g/m*3 5.9 C 0 km/h
1505 27-01-2020 06:40:00 6.1 C 7.16 g/m*3 4.86 C 6.4 km/h
1506 27-01-2020 06:45:00 6.3 C 7.25 g/m*3 5.1 C 6.4 km/h
1507 27-01-2020 06:50:00 6.4 C 7.3 g/m*3 4.75 C 8.1 km/h
1508 27-01-2020 06:55:00 6.5 C 7.35 g/m*3 4.87 C 8.1 km/h
1509 27-01-2020 07:00:00 6.6 C 7.4 g/m*3 6.6 C 4.8 km/h
1510 27-01-2020 07:05:00 6.6 C 7.4 g/m*3 6.6 C 0 km/h
1511 27-01-2020 07:10:00 6.7 C 7.45 g/m*3 6.7 C 0 km/h
1512 27-01-2020 07:15:00 6.7 C 7.45 g/m*3 6.7 C 0 km/h
1513 27-01-2020 07:20:00 6.7 C 7.45 g/m*3 6.7 C 3.2 km/h
1514 27-01-2020 07:25:00 6.7 C 7.45 g/m*3 6.7 C 0 km/h
1515 27-01-2020 07:30:00 6.7 C 7.45 g/m*3 6.7 C 1.6 km/h
1516 27-01-2020 07:35:00 6.7 C 7.45 g/m*3 6.7 C 0 km/h
1517 27-01-2020 07:40:00 6.7 C 7.45 g/m*3 6.7 C 3.2 km/h
1518 27-01-2020 07:45:00 6.6 C 7.32 g/m*3 6.6 C 4.8 km/h
1519 27-01-2020 07:50:00 6.7 C 7.37 g/m*3 6.7 C 4.8 km/h
1520 27-01-2020 07:55:00 6.6 C 7.32 g/m*3 4.99 C 8.1 km/h
1521 27-01-2020 08:00:00 6.6 C 7.32 g/m*3 6.6 C 1.6 km/h
1522 27-01-2020 08:05:00 6.6 C 7.32 g/m*3 6.6 C 3.2 km/h
1523 27-01-2020 08:10:00 6.5 C 7.27 g/m*3 6.5 C 4.8 km/h
1524 27-01-2020 08:15:00 6.4 C 7.23 g/m*3 6.4 C 4.8 km/h
1525 27-01-2020 08:20:00 6.4 C 7.23 g/m*3 6.4 C 0 km/h
Sensor: Nr:Datum:Temp:Abs-Feuchte:Windchill:Wind:
Aussen-T/F 1526 27-01-2020 08:25:00 6.3 C 7.18 g/m*3 6.3 C 3.2 km/h
1527 27-01-2020 08:30:00 6.4 C 7.23 g/m*3 6.4 C 1.6 km/h
1528 27-01-2020 08:35:00 6.4 C 7.23 g/m*3 6.4 C 0 km/h
1529 27-01-2020 08:40:00 6.5 C 7.27 g/m*3 6.5 C 3.2 km/h
1530 27-01-2020 08:45:00 6.6 C 7.32 g/m*3 6.6 C 3.2 km/h
1531 27-01-2020 08:50:00 6.6 C 7.32 g/m*3 6.6 C 1.6 km/h
1532 27-01-2020 08:55:00 6.7 C 7.37 g/m*3 6.7 C 1.6 km/h
1533 27-01-2020 09:00:00 6.7 C 7.37 g/m*3 6.7 C 3.2 km/h
1534 27-01-2020 09:05:00 6.8 C 7.42 g/m*3 6.8 C 4.8 km/h
1535 27-01-2020 09:10:00 6.9 C 7.47 g/m*3 6.9 C 3.2 km/h
1536 27-01-2020 09:15:00 7 C 7.52 g/m*3 7 C 1.6 km/h
1537 27-01-2020 09:20:00 7.1 C 7.57 g/m*3 5.58 C 8.1 km/h
1538 27-01-2020 09:25:00 7.2 C 7.54 g/m*3 5.69 C 8.1 km/h
1539 27-01-2020 09:30:00 7.3 C 7.58 g/m*3 7.3 C 0 km/h
1540 27-01-2020 09:35:00 7.4 C 7.55 g/m*3 7.4 C 0 km/h
1541 27-01-2020 09:40:00 7.4 C 7.55 g/m*3 7.4 C 1.6 km/h
1542 27-01-2020 09:45:00 7.5 C 7.6 g/m*3 7.5 C 0 km/h
1543 27-01-2020 09:50:00 7.6 C 7.65 g/m*3 7.6 C 1.6 km/h
1544 27-01-2020 09:55:00 7.7 C 7.62 g/m*3 5.94 C 9.7 km/h
1545 27-01-2020 10:00:00 7.8 C 7.59 g/m*3 7.8 C 4.8 km/h
1546 27-01-2020 10:05:00 7.9 C 7.56 g/m*3 7.9 C 3.2 km/h
1547 27-01-2020 10:10:00 8.1 C 7.57 g/m*3 7.17 C 6.4 km/h
1548 27-01-2020 10:15:00 8.2 C 7.54 g/m*3 8.2 C 4.8 km/h
1549 27-01-2020 10:20:00 8.4 C 7.63 g/m*3 8.4 C 4.8 km/h
1550 27-01-2020 10:25:00 8.4 C 7.63 g/m*3 8.4 C 3.2 km/h
Sensor: Nr:Datum:Temp:Abs-Feuchte:Windchill:Wind:
Aussen-T/F 1551 27-01-2020 10:30:00 8.5 C 7.6 g/m*3 8.5 C 3.2 km/h
1552 27-01-2020 10:35:00 8.6 C 7.73 g/m*3 8.6 C 0 km/h
1553 27-01-2020 10:40:00 8.6 C 7.73 g/m*3 7.75 C 6.4 km/h
1554 27-01-2020 10:45:00 8.6 C 7.65 g/m*3 8.6 C 4.8 km/h
1555 27-01-2020 10:50:00 8.6 C 7.56 g/m*3 8.6 C 4.8 km/h
1556 27-01-2020 10:55:00 8.7 C 7.7 g/m*3 8.7 C 1.6 km/h
1557 27-01-2020 11:00:00 8.6 C 7.65 g/m*3 8.6 C 1.6 km/h
1558 27-01-2020 11:05:00 8.6 C 7.56 g/m*3 8.6 C 1.6 km/h
1559 27-01-2020 11:10:00 8.6 C 7.56 g/m*3 8.6 C 3.2 km/h
1560 27-01-2020 11:15:00 8.6 C 7.65 g/m*3 8.6 C 3.2 km/h
1561 27-01-2020 11:20:00 8.6 C 7.65 g/m*3 8.6 C 1.6 km/h
1562 27-01-2020 11:25:00 8.6 C 7.65 g/m*3 8.6 C 0 km/h
1563 27-01-2020 11:30:00 8.6 C 7.65 g/m*3 7.01 C 9.7 km/h
1564 27-01-2020 11:35:00 8.6 C 7.65 g/m*3 8.6 C 4.8 km/h
1565 27-01-2020 11:40:00 8.7 C 7.7 g/m*3 8.7 C 0 km/h
1566 27-01-2020 11:45:00 8.7 C 7.7 g/m*3 8.7 C 4.8 km/h
1567 27-01-2020 11:50:00 8.8 C 7.75 g/m*3 6.97 C 11.3 km/h
1568 27-01-2020 11:55:00 8.8 C 7.83 g/m*3 8.8 C 4.8 km/h
1569 27-01-2020 12:00:00 8.8 C 7.83 g/m*3 8.8 C 3.2 km/h
1570 27-01-2020 12:05:00 8.8 C 7.75 g/m*3 7.25 C 9.7 km/h
1571 27-01-2020 12:10:00 8.9 C 7.8 g/m*3 8.9 C 3.2 km/h
1572 27-01-2020 12:15:00 8.9 C 7.8 g/m*3 8.9 C 4.8 km/h
1573 27-01-2020 12:20:00 9 C 7.76 g/m*3 7.21 C 11.3 km/h
1574 27-01-2020 12:25:00 9.1 C 7.81 g/m*3 9.1 C 1.6 km/h
1575 27-01-2020 12:30:00 9.2 C 7.77 g/m*3 7.73 C 9.7 km/h
Sensor: Nr:Datum:Temp:Abs-Feuchte:Windchill:Wind:
Aussen-T/F 1576 27-01-2020 12:35:00 9.2 C 7.77 g/m*3 9.2 C 4.8 km/h
1577 27-01-2020 12:40:00 9.3 C 7.73 g/m*3 8.16 C 8.1 km/h
1578 27-01-2020 12:45:00 9.3 C 7.73 g/m*3 8.16 C 8.1 km/h
1579 27-01-2020 12:50:00 9.3 C 7.73 g/m*3 8.16 C 8.1 km/h
1580 27-01-2020 12:55:00 9.4 C 7.69 g/m*3 7.7 C 11.3 km/h
1581 27-01-2020 13:00:00 9.4 C 7.69 g/m*3 7.7 C 11.3 km/h
1582 27-01-2020 13:05:00 9.4 C 7.69 g/m*3 7.97 C 9.7 km/h
1583 27-01-2020 13:10:00 9.4 C 7.69 g/m*3 7.24 C 14.5 km/h
1584 27-01-2020 13:15:00 9.4 C 7.69 g/m*3 7.7 C 11.3 km/h
1585 27-01-2020 13:20:00 9.3 C 7.64 g/m*3 6.73 C 17.7 km/h
1586 27-01-2020 13:25:00 9.2 C 7.68 g/m*3 7.46 C 11.3 km/h
1587 27-01-2020 13:30:00 8.9 C 7.62 g/m*3 8.1 C 6.4 km/h
1588 27-01-2020 13:35:00 8.8 C 7.66 g/m*3 7.25 C 9.7 km/h
1589 27-01-2020 13:40:00 8.7 C 7.7 g/m*3 7.87 C 6.4 km/h
1590 27-01-2020 13:45:00 8.5 C 7.6 g/m*3 7.64 C 6.4 km/h
1591 27-01-2020 13:50:00 8.4 C 7.63 g/m*3 8.4 C 4.8 km/h
1592 27-01-2020 13:55:00 8.3 C 7.59 g/m*3 8.3 C 3.2 km/h
1593 27-01-2020 14:00:00 8.3 C 7.67 g/m*3 8.3 C 0 km/h
1594 27-01-2020 14:05:00 8.2 C 7.62 g/m*3 6.87 C 8.1 km/h
1595 27-01-2020 14:10:00 8.2 C 7.62 g/m*3 8.2 C 1.6 km/h
1596 27-01-2020 14:15:00 8.2 C 7.7 g/m*3 8.2 C 4.8 km/h
1597 27-01-2020 14:20:00 8.1 C 7.66 g/m*3 8.1 C 4.8 km/h
1598 27-01-2020 14:25:00 8.1 C 7.66 g/m*3 8.1 C 0 km/h
1599 27-01-2020 14:30:00 8.1 C 7.66 g/m*3 8.1 C 4.8 km/h
1600 27-01-2020 14:35:00 8 C 7.61 g/m*3 8 C 4.8 km/h
Sensor: Nr:Datum:Temp:Abs-Feuchte:Windchill:Wind:
Aussen-T/F 1601 27-01-2020 14:40:00 8 C 7.61 g/m*3 8 C 0 km/h
1602 27-01-2020 14:45:00 8 C 7.61 g/m*3 8 C 4.8 km/h
1603 27-01-2020 14:50:00 7.9 C 7.56 g/m*3 7.9 C 4.8 km/h
1604 27-01-2020 14:55:00 7.9 C 7.64 g/m*3 7.9 C 1.6 km/h
1605 27-01-2020 15:00:00 7.9 C 7.56 g/m*3 7.9 C 4.8 km/h
1606 27-01-2020 15:05:00 7.8 C 7.59 g/m*3 7.8 C 1.6 km/h
1607 27-01-2020 15:10:00 7.8 C 7.59 g/m*3 7.8 C 1.6 km/h
1608 27-01-2020 15:15:00 7.8 C 7.59 g/m*3 7.8 C 0 km/h
1609 27-01-2020 15:20:00 7.8 C 7.59 g/m*3 6.06 C 9.7 km/h
1610 27-01-2020 15:25:00 7.7 C 7.46 g/m*3 5.15 C 14.5 km/h
1611 27-01-2020 15:30:00 7.8 C 7.59 g/m*3 7.8 C 1.6 km/h
1612 27-01-2020 15:35:00 7.7 C 7.46 g/m*3 7.7 C 3.2 km/h
1613 27-01-2020 15:40:00 7.7 C 7.46 g/m*3 7.7 C 4.8 km/h
1614 27-01-2020 15:45:00 7.7 C 7.46 g/m*3 6.28 C 8.1 km/h
1615 27-01-2020 15:50:00 7.7 C 7.46 g/m*3 7.7 C 1.6 km/h
1616 27-01-2020 15:55:00 7.7 C 7.46 g/m*3 7.7 C 4.8 km/h
1617 27-01-2020 16:00:00 7.6 C 7.41 g/m*3 7.6 C 1.6 km/h
1618 27-01-2020 16:05:00 7.6 C 7.41 g/m*3 7.6 C 0 km/h
1619 27-01-2020 16:10:00 7.6 C 7.49 g/m*3 7.6 C 0 km/h
1620 27-01-2020 16:15:00 7.6 C 7.49 g/m*3 7.6 C 0 km/h
1621 27-01-2020 16:20:00 7.5 C 7.44 g/m*3 7.5 C 0 km/h
1622 27-01-2020 16:25:00 7.5 C 7.44 g/m*3 7.5 C 4.8 km/h
1623 27-01-2020 16:30:00 7.4 C 7.4 g/m*3 7.4 C 0 km/h
1624 27-01-2020 16:35:00 7.4 C 7.4 g/m*3 6.37 C 6.4 km/h
1625 27-01-2020 16:40:00 7.3 C 7.35 g/m*3 7.3 C 3.2 km/h
Sensor: Nr:Datum:Temp:Abs-Feuchte:Windchill:Wind:
Aussen-T/F 1626 27-01-2020 16:45:00 7.3 C 7.35 g/m*3 7.3 C 3.2 km/h
1627 27-01-2020 16:50:00 7.3 C 7.35 g/m*3 7.3 C 0 km/h
1628 27-01-2020 16:55:00 7.3 C 7.35 g/m*3 7.3 C 4.8 km/h
1629 27-01-2020 17:00:00 7.3 C 7.43 g/m*3 7.3 C 1.6 km/h
1630 27-01-2020 17:05:00 7.2 C 7.3 g/m*3 7.2 C 4.8 km/h
1631 27-01-2020 17:10:00 7.2 C 7.3 g/m*3 7.2 C 4.8 km/h
1632 27-01-2020 17:15:00 7.2 C 7.3 g/m*3 7.2 C 3.2 km/h
1633 27-01-2020 17:20:00 7.3 C 7.35 g/m*3 7.3 C 1.6 km/h
1634 27-01-2020 17:25:00 7.3 C 7.35 g/m*3 7.3 C 3.2 km/h
1635 27-01-2020 17:30:00 7.3 C 7.35 g/m*3 7.3 C 0 km/h
1636 27-01-2020 17:35:00 7.3 C 7.35 g/m*3 7.3 C 1.6 km/h
1637 27-01-2020 17:40:00 7.2 C 7.3 g/m*3 7.2 C 1.6 km/h
1638 27-01-2020 17:45:00 7.2 C 7.3 g/m*3 7.2 C 3.2 km/h
1639 27-01-2020 17:50:00 7.2 C 7.3 g/m*3 7.2 C 4.8 km/h
1640 27-01-2020 17:55:00 7.3 C 7.35 g/m*3 7.3 C 1.6 km/h
1641 27-01-2020 18:00:00 7.3 C 7.27 g/m*3 7.3 C 0 km/h
1642 27-01-2020 18:05:00 7.3 C 7.27 g/m*3 7.3 C 0 km/h
1643 27-01-2020 18:10:00 7.3 C 7.27 g/m*3 7.3 C 3.2 km/h
1644 27-01-2020 18:15:00 7.2 C 7.22 g/m*3 7.2 C 0 km/h
1645 27-01-2020 18:20:00 7.2 C 7.3 g/m*3 7.2 C 0 km/h
1646 27-01-2020 18:25:00 7.2 C 7.3 g/m*3 7.2 C 1.6 km/h
1647 27-01-2020 18:30:00 7.2 C 7.3 g/m*3 7.2 C 0 km/h
1648 27-01-2020 18:35:00 7.2 C 7.3 g/m*3 7.2 C 1.6 km/h
1649 27-01-2020 18:40:00 7.2 C 7.22 g/m*3 5.69 C 8.1 km/h
1650 27-01-2020 18:45:00 7.2 C 7.22 g/m*3 7.2 C 3.2 km/h
Sensor: Nr:Datum:Temp:Abs-Feuchte:Windchill:Wind:
Aussen-T/F 1651 27-01-2020 18:50:00 7.3 C 7.27 g/m*3 7.3 C 4.8 km/h
1652 27-01-2020 18:55:00 7.3 C 7.27 g/m*3 7.3 C 4.8 km/h
1653 27-01-2020 19:00:00 7.3 C 7.27 g/m*3 7.3 C 3.2 km/h
1654 27-01-2020 19:05:00 7.4 C 7.32 g/m*3 7.4 C 1.6 km/h
1655 27-01-2020 19:10:00 7.4 C 7.32 g/m*3 7.4 C 0 km/h
1656 27-01-2020 19:15:00 7.4 C 7.32 g/m*3 7.4 C 0 km/h
1657 27-01-2020 19:20:00 7.3 C 7.27 g/m*3 7.3 C 1.6 km/h
1658 27-01-2020 19:25:00 7.3 C 7.27 g/m*3 7.3 C 1.6 km/h
1659 27-01-2020 19:30:00 7.3 C 7.27 g/m*3 7.3 C 0 km/h
1660 27-01-2020 19:35:00 7.2 C 7.3 g/m*3 7.2 C 3.2 km/h
1661 27-01-2020 19:40:00 7.2 C 7.3 g/m*3 7.2 C 1.6 km/h
1662 27-01-2020 19:45:00 7.2 C 7.3 g/m*3 7.2 C 3.2 km/h
1663 27-01-2020 19:50:00 7.2 C 7.3 g/m*3 7.2 C 0 km/h
1664 27-01-2020 19:55:00 7.2 C 7.3 g/m*3 7.2 C 0 km/h
1665 27-01-2020 20:00:00 7.1 C 7.25 g/m*3 7.1 C 0 km/h
1666 27-01-2020 20:05:00 7 C 7.28 g/m*3 7 C 0 km/h
1667 27-01-2020 20:10:00 6.9 C 7.24 g/m*3 6.9 C 3.2 km/h
1668 27-01-2020 20:15:00 6.9 C 7.24 g/m*3 6.9 C 0 km/h
1669 27-01-2020 20:20:00 6.9 C 7.24 g/m*3 6.9 C 0 km/h
1670 27-01-2020 20:25:00 6.8 C 7.19 g/m*3 5.67 C 6.4 km/h
1671 27-01-2020 20:30:00 6.8 C 7.19 g/m*3 6.8 C 3.2 km/h
1672 27-01-2020 20:35:00 6.8 C 7.19 g/m*3 6.8 C 1.6 km/h
1673 27-01-2020 20:40:00 6.7 C 7.14 g/m*3 6.7 C 1.6 km/h
1674 27-01-2020 20:45:00 6.6 C 7.1 g/m*3 6.6 C 1.6 km/h
1675 27-01-2020 20:50:00 6.5 C 7.05 g/m*3 6.5 C 0 km/h
Sensor: Nr:Datum:Temp:Abs-Feuchte:Windchill:Wind:
Aussen-T/F 1676 27-01-2020 20:55:00 6.4 C 7 g/m*3 6.4 C 0 km/h
1677 27-01-2020 21:00:00 6.4 C 7 g/m*3 6.4 C 0 km/h
1678 27-01-2020 21:05:00 6.4 C 7 g/m*3 6.4 C 0 km/h
1679 27-01-2020 21:10:00 6.4 C 7.08 g/m*3 6.4 C 0 km/h
1680 27-01-2020 21:15:00 6.4 C 7.08 g/m*3 6.4 C 1.6 km/h
1681 27-01-2020 21:20:00 6.3 C 7.03 g/m*3 4.64 C 8.1 km/h
1682 27-01-2020 21:25:00 6.3 C 7.03 g/m*3 6.3 C 0 km/h
1683 27-01-2020 21:30:00 6.3 C 7.03 g/m*3 6.3 C 0 km/h
1684 27-01-2020 21:35:00 6.3 C 7.03 g/m*3 6.3 C 1.6 km/h
1685 27-01-2020 21:40:00 6.3 C 7.03 g/m*3 6.3 C 1.6 km/h
1686 27-01-2020 21:45:00 6.3 C 7.03 g/m*3 6.3 C 3.2 km/h
1687 27-01-2020 21:50:00 6.3 C 7.03 g/m*3 6.3 C 0 km/h
1688 27-01-2020 21:55:00 6.3 C 7.03 g/m*3 6.3 C 0 km/h
1689 27-01-2020 22:00:00 6.3 C 7.03 g/m*3 6.3 C 1.6 km/h
1690 27-01-2020 22:05:00 6.2 C 6.99 g/m*3 6.2 C 0 km/h
1691 27-01-2020 22:10:00 6.2 C 6.99 g/m*3 6.2 C 1.6 km/h
1692 27-01-2020 22:15:00 6.2 C 6.99 g/m*3 6.2 C 0 km/h
1693 27-01-2020 22:20:00 6.2 C 6.99 g/m*3 6.2 C 3.2 km/h
1694 27-01-2020 22:25:00 6.2 C 6.99 g/m*3 6.2 C 4.8 km/h
1695 27-01-2020 22:30:00 6.3 C 7.03 g/m*3 6.3 C 3.2 km/h
1696 27-01-2020 22:35:00 6.3 C 7.03 g/m*3 5.1 C 6.4 km/h
1697 27-01-2020 22:40:00 6.3 C 7.03 g/m*3 6.3 C 3.2 km/h
1698 27-01-2020 22:45:00 6.3 C 7.03 g/m*3 6.3 C 3.2 km/h
1699 27-01-2020 22:50:00 6.3 C 7.03 g/m*3 5.1 C 6.4 km/h
1700 27-01-2020 22:55:00 6.3 C 7.03 g/m*3 4.64 C 8.1 km/h
Sensor: Nr:Datum:Temp:Abs-Feuchte:Windchill:Wind:
Aussen-T/F 1701 27-01-2020 23:00:00 6.4 C 7.08 g/m*3 5.21 C 6.4 km/h
1702 27-01-2020 23:05:00 6.4 C 7.08 g/m*3 6.4 C 4.8 km/h
1703 27-01-2020 23:10:00 6.5 C 7.12 g/m*3 6.5 C 0 km/h
1704 27-01-2020 23:15:00 6.5 C 7.12 g/m*3 6.5 C 0 km/h
1705 27-01-2020 23:20:00 6.5 C 7.12 g/m*3 5.33 C 6.4 km/h
1706 27-01-2020 23:25:00 6.5 C 7.12 g/m*3 6.5 C 4.8 km/h
1707 27-01-2020 23:30:00 6.6 C 7.17 g/m*3 4.32 C 11.3 km/h
1708 27-01-2020 23:35:00 6.6 C 7.17 g/m*3 6.6 C 3.2 km/h
1709 27-01-2020 23:40:00 6.6 C 7.1 g/m*3 4.99 C 8.1 km/h
1710 27-01-2020 23:45:00 6.6 C 7.1 g/m*3 6.6 C 1.6 km/h
1711 27-01-2020 23:50:00 6.6 C 7.1 g/m*3 6.6 C 3.2 km/h
1712 27-01-2020 23:55:00 6.6 C 7.1 g/m*3 6.6 C 3.2 km/h
1713 28-01-2020 00:00:00 6.7 C 7.14 g/m*3 6.7 C 1.6 km/h
1714 28-01-2020 00:05:00 6.7 C 7.07 g/m*3 4.75 C 9.7 km/h
1715 28-01-2020 00:10:00 6.8 C 7.11 g/m*3 6.8 C 0 km/h
1716 28-01-2020 00:15:00 6.7 C 7.07 g/m*3 5.56 C 6.4 km/h
1717 28-01-2020 00:20:00 6.8 C 7.11 g/m*3 5.67 C 6.4 km/h
1718 28-01-2020 00:25:00 6.8 C 7.11 g/m*3 6.8 C 3.2 km/h
1719 28-01-2020 00:30:00 6.9 C 7.16 g/m*3 6.9 C 4.8 km/h
1720 28-01-2020 00:35:00 6.9 C 7.16 g/m*3 6.9 C 4.8 km/h
1721 28-01-2020 00:40:00 7 C 7.21 g/m*3 7 C 4.8 km/h
1722 28-01-2020 00:45:00 7.1 C 7.18 g/m*3 4.41 C 14.5 km/h
1723 28-01-2020 00:50:00 7.1 C 7.18 g/m*3 4.41 C 14.5 km/h
1724 28-01-2020 00:55:00 7.3 C 7.27 g/m*3 4.9 C 12.9 km/h
1725 28-01-2020 01:00:00 7.4 C 7.24 g/m*3 6.37 C 6.4 km/h
Sensor: Nr:Datum:Temp:Abs-Feuchte:Windchill:Wind:
Aussen-T/F 1726 28-01-2020 01:05:00 7.4 C 7.24 g/m*3 6.37 C 6.4 km/h
1727 28-01-2020 01:10:00 7.5 C 7.28 g/m*3 4.9 C 14.5 km/h
1728 28-01-2020 01:15:00 7.6 C 7.25 g/m*3 5.26 C 12.9 km/h
1729 28-01-2020 01:20:00 7.6 C 7.25 g/m*3 5.02 C 14.5 km/h
1730 28-01-2020 01:25:00 7.7 C 7.3 g/m*3 5.38 C 12.9 km/h
1731 28-01-2020 01:30:00 7.7 C 7.3 g/m*3 6.28 C 8.1 km/h
1732 28-01-2020 01:35:00 7.7 C 7.3 g/m*3 7.7 C 4.8 km/h
1733 28-01-2020 01:40:00 7.7 C 7.3 g/m*3 6.28 C 8.1 km/h
1734 28-01-2020 01:45:00 7.7 C 7.38 g/m*3 5.65 C 11.3 km/h
1735 28-01-2020 01:50:00 7.7 C 7.38 g/m*3 4.73 C 17.7 km/h
1736 28-01-2020 01:55:00 7.7 C 7.38 g/m*3 4.55 C 19.3 km/h
1737 28-01-2020 02:00:00 7.8 C 7.43 g/m*3 4.68 C 19.3 km/h
1738 28-01-2020 02:05:00 7.8 C 7.43 g/m*3 5.27 C 14.5 km/h
1739 28-01-2020 02:10:00 7.8 C 7.35 g/m*3 5.06 C 16.1 km/h
1740 28-01-2020 02:15:00 7.8 C 7.35 g/m*3 5.51 C 12.9 km/h
1741 28-01-2020 02:20:00 7.8 C 7.35 g/m*3 6.06 C 9.7 km/h
1742 28-01-2020 02:25:00 7.8 C 7.35 g/m*3 5.27 C 14.5 km/h
1743 28-01-2020 02:30:00 7.8 C 7.35 g/m*3 5.27 C 14.5 km/h
1744 28-01-2020 02:35:00 7.9 C 7.39 g/m*3 6.52 C 8.1 km/h
1745 28-01-2020 02:40:00 7.8 C 7.26 g/m*3 6.83 C 6.4 km/h
1746 28-01-2020 02:45:00 7.7 C 7.22 g/m*3 5.94 C 9.7 km/h
1747 28-01-2020 02:50:00 7.7 C 7.3 g/m*3 4.93 C 16.1 km/h
1748 28-01-2020 02:55:00 7.8 C 7.35 g/m*3 4.86 C 17.7 km/h
1749 28-01-2020 03:00:00 7.9 C 7.39 g/m*3 4.98 C 17.7 km/h
1750 28-01-2020 03:05:00 8 C 7.36 g/m*3 5.52 C 14.5 km/h
Sensor: Nr:Datum:Temp:Abs-Feuchte:Windchill:Wind:
Aussen-T/F 1751 28-01-2020 03:10:00 8 C 7.36 g/m*3 5.75 C 12.9 km/h
1752 28-01-2020 03:15:00 8.1 C 7.41 g/m*3 5.87 C 12.9 km/h
1753 28-01-2020 03:20:00 8.1 C 7.32 g/m*3 5.23 C 17.7 km/h
1754 28-01-2020 03:25:00 8.2 C 7.37 g/m*3 5.99 C 12.9 km/h
1755 28-01-2020 03:30:00 8.2 C 7.29 g/m*3 6.25 C 11.3 km/h
1756 28-01-2020 03:35:00 8.2 C 7.29 g/m*3 5.55 C 16.1 km/h
1757 28-01-2020 03:40:00 8.2 C 7.29 g/m*3 4.86 C 22.5 km/h
1758 28-01-2020 03:45:00 8.1 C 7.32 g/m*3 5.64 C 14.5 km/h
1759 28-01-2020 03:50:00 7.8 C 7.26 g/m*3 4.68 C 19.3 km/h
1760 28-01-2020 03:55:00 7.6 C 7.25 g/m*3 5.26 C 12.9 km/h
1761 28-01-2020 04:00:00 7.4 C 7.16 g/m*3 7.4 C 1.6 km/h
1762 28-01-2020 04:05:00 7.2 C 7.14 g/m*3 4.31 C 16.1 km/h
1763 28-01-2020 04:10:00 7.1 C 7.1 g/m*3 4.65 C 12.9 km/h
1764 28-01-2020 04:15:00 6.9 C 7.01 g/m*3 5.79 C 6.4 km/h
1765 28-01-2020 04:20:00 6.8 C 6.96 g/m*3 4.56 C 11.3 km/h
1766 28-01-2020 04:25:00 6.8 C 6.96 g/m*3 3.82 C 16.1 km/h
1767 28-01-2020 04:30:00 6.7 C 6.99 g/m*3 6.7 C 4.8 km/h
1768 28-01-2020 04:35:00 6.7 C 6.99 g/m*3 5.11 C 8.1 km/h
1769 28-01-2020 04:40:00 6.6 C 6.95 g/m*3 6.6 C 1.6 km/h
1770 28-01-2020 04:45:00 6.6 C 7.02 g/m*3 5.44 C 6.4 km/h
1771 28-01-2020 04:50:00 6.5 C 6.97 g/m*3 6.5 C 4.8 km/h
1772 28-01-2020 04:55:00 6.5 C 6.97 g/m*3 5.33 C 6.4 km/h
1773 28-01-2020 05:00:00 6.5 C 6.97 g/m*3 5.33 C 6.4 km/h
1774 28-01-2020 05:05:00 6.5 C 6.97 g/m*3 5.33 C 6.4 km/h
1775 28-01-2020 05:10:00 6.6 C 7.02 g/m*3 6.6 C 3.2 km/h
Sensor: Nr:Datum:Temp:Abs-Feuchte:Windchill:Wind:
Aussen-T/F 1776 28-01-2020 05:15:00 6.6 C 7.02 g/m*3 6.6 C 4.8 km/h
1777 28-01-2020 05:20:00 6.7 C 7.07 g/m*3 4.17 C 12.9 km/h
1778 28-01-2020 05:25:00 6.8 C 7.04 g/m*3 5.22 C 8.1 km/h
1779 28-01-2020 05:30:00 6.7 C 6.99 g/m*3 5.56 C 6.4 km/h
1780 28-01-2020 05:35:00 6.7 C 6.99 g/m*3 6.7 C 4.8 km/h
1781 28-01-2020 05:40:00 6.7 C 6.99 g/m*3 5.56 C 6.4 km/h
1782 28-01-2020 05:45:00 6.6 C 6.95 g/m*3 6.6 C 1.6 km/h
1783 28-01-2020 05:50:00 6.6 C 6.95 g/m*3 4.63 C 9.7 km/h
1784 28-01-2020 05:55:00 6.6 C 6.95 g/m*3 6.6 C 3.2 km/h
1785 28-01-2020 06:00:00 6.7 C 6.99 g/m*3 5.11 C 8.1 km/h
1786 28-01-2020 06:05:00 6.8 C 7.04 g/m*3 3.82 C 16.1 km/h
1787 28-01-2020 06:10:00 6.9 C 7.08 g/m*3 3.37 C 20.9 km/h
1788 28-01-2020 06:15:00 6.9 C 7.08 g/m*3 3.94 C 16.1 km/h
1789 28-01-2020 06:20:00 6.8 C 7.04 g/m*3 4.56 C 11.3 km/h
1790 28-01-2020 06:25:00 6.7 C 6.99 g/m*3 3.69 C 16.1 km/h
1791 28-01-2020 06:30:00 6.5 C 6.9 g/m*3 4.2 C 11.3 km/h
1792 28-01-2020 06:35:00 6.3 C 6.81 g/m*3 3.43 C 14.5 km/h
1793 28-01-2020 06:40:00 6.2 C 6.84 g/m*3 4.15 C 9.7 km/h
1794 28-01-2020 06:45:00 5.9 C 6.63 g/m*3 3.48 C 11.3 km/h
1795 28-01-2020 06:50:00 5.8 C 6.59 g/m*3 2.58 C 16.1 km/h
1796 28-01-2020 06:55:00 5.6 C 6.5 g/m*3 3.44 C 9.7 km/h
1797 28-01-2020 07:00:00 5.5 C 6.53 g/m*3 2.2 C 16.1 km/h
1798 28-01-2020 07:05:00 5.4 C 6.49 g/m*3 5.4 C 4.8 km/h
1799 28-01-2020 07:10:00 5.4 C 6.49 g/m*3 2.87 C 11.3 km/h
1800 28-01-2020 07:15:00 5.3 C 6.45 g/m*3 3.94 C 6.4 km/h
Sensor: Nr:Datum:Temp:Abs-Feuchte:Windchill:Wind:
Aussen-T/F 1801 28-01-2020 07:20:00 5.3 C 6.52 g/m*3 5.3 C 1.6 km/h
1802 28-01-2020 07:25:00 5.2 C 6.4 g/m*3 5.2 C 0 km/h
1803 28-01-2020 07:30:00 5.2 C 6.47 g/m*3 5.2 C 4.8 km/h
1804 28-01-2020 07:35:00 5.1 C 6.43 g/m*3 5.1 C 4.8 km/h
1805 28-01-2020 07:40:00 5.1 C 6.43 g/m*3 3.23 C 8.1 km/h
1806 28-01-2020 07:45:00 5.2 C 6.47 g/m*3 1.4 C 19.3 km/h
1807 28-01-2020 07:50:00 5.2 C 6.47 g/m*3 0.54 C 27.4 km/h
1808 28-01-2020 07:55:00 5.1 C 6.43 g/m*3 2.51 C 11.3 km/h
1809 28-01-2020 08:00:00 5.1 C 6.43 g/m*3 2.51 C 11.3 km/h
1810 28-01-2020 08:05:00 5.1 C 6.43 g/m*3 2.51 C 11.3 km/h
1811 28-01-2020 08:10:00 5.1 C 6.43 g/m*3 3.23 C 8.1 km/h
1812 28-01-2020 08:15:00 5 C 6.39 g/m*3 2.39 C 11.3 km/h
1813 28-01-2020 08:20:00 5 C 6.39 g/m*3 2.39 C 11.3 km/h
1814 28-01-2020 08:25:00 5.1 C 6.36 g/m*3 2.22 C 12.9 km/h
1815 28-01-2020 08:30:00 5 C 6.32 g/m*3 5 C 3.2 km/h
1816 28-01-2020 08:35:00 4.9 C 6.28 g/m*3 1.97 C 12.9 km/h
1817 28-01-2020 08:40:00 4.9 C 6.35 g/m*3 3.48 C 6.4 km/h
1818 28-01-2020 08:45:00 4.9 C 6.35 g/m*3 2.99 C 8.1 km/h
1819 28-01-2020 08:50:00 5 C 6.39 g/m*3 3.11 C 8.1 km/h
1820 28-01-2020 08:55:00 5.1 C 6.43 g/m*3 3.23 C 8.1 km/h
1821 28-01-2020 09:00:00 5.2 C 6.47 g/m*3 2.07 C 14.5 km/h
1822 28-01-2020 09:05:00 5.3 C 6.52 g/m*3 3.94 C 6.4 km/h
1823 28-01-2020 09:10:00 5.3 C 6.52 g/m*3 5.3 C 3.2 km/h
1824 28-01-2020 09:15:00 5.2 C 6.47 g/m*3 5.2 C 4.8 km/h
1825 28-01-2020 09:20:00 5.2 C 6.47 g/m*3 2.63 C 11.3 km/h
Sensor: Nr:Datum:Temp:Abs-Feuchte:Windchill:Wind:
Aussen-T/F 1826 28-01-2020 09:25:00 5.1 C 6.43 g/m*3 0.91 C 22.5 km/h
1827 28-01-2020 09:30:00 4.8 C 6.24 g/m*3 0.9 C 19.3 km/h
1828 28-01-2020 09:35:00 4.7 C 6.19 g/m*3 0.78 C 19.3 km/h
1829 28-01-2020 09:40:00 4.7 C 6.19 g/m*3 2.03 C 11.3 km/h
1830 28-01-2020 09:45:00 4.6 C 6.15 g/m*3 0.27 C 22.5 km/h
1831 28-01-2020 09:50:00 4.6 C 6.15 g/m*3 1.61 C 12.9 km/h
1832 28-01-2020 09:55:00 4.6 C 6.15 g/m*3 2.25 C 9.7 km/h
1833 28-01-2020 10:00:00 4.7 C 6.19 g/m*3 2.37 C 9.7 km/h
1834 28-01-2020 10:05:00 4.6 C 6.22 g/m*3 2.64 C 8.1 km/h
1835 28-01-2020 10:10:00 4.6 C 6.15 g/m*3 1.91 C 11.3 km/h
1836 28-01-2020 10:15:00 4.6 C 6.15 g/m*3 2.64 C 8.1 km/h
1837 28-01-2020 10:20:00 4.7 C 6.19 g/m*3 2.76 C 8.1 km/h
1838 28-01-2020 10:25:00 4.7 C 6.19 g/m*3 2.03 C 11.3 km/h
1839 28-01-2020 10:30:00 4.8 C 6.17 g/m*3 2.49 C 9.7 km/h
1840 28-01-2020 10:35:00 4.8 C 6.17 g/m*3 2.15 C 11.3 km/h
1841 28-01-2020 10:40:00 4.9 C 6.21 g/m*3 2.27 C 11.3 km/h
1842 28-01-2020 10:45:00 5 C 6.25 g/m*3 1.58 C 16.1 km/h
1843 28-01-2020 10:50:00 5.1 C 6.22 g/m*3 1.49 C 17.7 km/h
1844 28-01-2020 10:55:00 5.1 C 6.22 g/m*3 1.71 C 16.1 km/h
1845 28-01-2020 11:00:00 5.2 C 6.27 g/m*3 2.07 C 14.5 km/h
1846 28-01-2020 11:05:00 5.3 C 6.31 g/m*3 1.53 C 19.3 km/h
1847 28-01-2020 11:10:00 5.3 C 6.24 g/m*3 1.74 C 17.7 km/h
1848 28-01-2020 11:15:00 5.3 C 6.24 g/m*3 1.96 C 16.1 km/h
1849 28-01-2020 11:20:00 5.3 C 6.31 g/m*3 1.74 C 17.7 km/h
1850 28-01-2020 11:25:00 5.3 C 6.31 g/m*3 2.46 C 12.9 km/h
Sensor: Nr:Datum:Temp:Abs-Feuchte:Windchill:Wind:
Aussen-T/F 1851 28-01-2020 11:30:00 5.4 C 6.28 g/m*3 1.86 C 17.7 km/h
1852 28-01-2020 11:35:00 5.5 C 6.32 g/m*3 1.99 C 17.7 km/h
1853 28-01-2020 11:40:00 5.6 C 6.29 g/m*3 2.33 C 16.1 km/h
1854 28-01-2020 11:45:00 5.7 C 6.33 g/m*3 2.45 C 16.1 km/h
1855 28-01-2020 11:50:00 5.8 C 6.38 g/m*3 1.97 C 20.9 km/h
1856 28-01-2020 11:55:00 5.8 C 6.38 g/m*3 1.97 C 20.9 km/h
1857 28-01-2020 12:00:00 5.8 C 6.3 g/m*3 2.58 C 16.1 km/h
1858 28-01-2020 12:05:00 5.8 C 6.3 g/m*3 3.07 C 12.9 km/h
1859 28-01-2020 12:10:00 5.9 C 6.27 g/m*3 3.8 C 9.7 km/h
1860 28-01-2020 12:15:00 5.9 C 5.91 g/m*3 2.48 C 17.7 km/h
1861 28-01-2020 12:20:00 6.2 C 6.03 g/m*3 3.3 C 14.5 km/h
1862 28-01-2020 12:25:00 6.3 C 6.07 g/m*3 3.2 C 16.1 km/h
1863 28-01-2020 12:30:00 6.3 C 6 g/m*3 2.27 C 24.1 km/h
1864 28-01-2020 12:35:00 6.4 C 6.04 g/m*3 3.11 C 17.7 km/h
1865 28-01-2020 12:40:00 6.4 C 6.04 g/m*3 3.32 C 16.1 km/h
1866 28-01-2020 12:45:00 6.4 C 6.11 g/m*3 2.56 C 22.5 km/h
1867 28-01-2020 12:50:00 6.4 C 5.96 g/m*3 2.25 C 25.7 km/h
1868 28-01-2020 12:55:00 6.6 C 5.96 g/m*3 2.99 C 20.9 km/h
1869 28-01-2020 13:00:00 6.6 C 5.89 g/m*3 2.82 C 22.5 km/h
1870 28-01-2020 13:05:00 6.6 C 5.81 g/m*3 2.51 C 25.7 km/h
1871 28-01-2020 13:10:00 6.6 C 5.89 g/m*3 2.82 C 22.5 km/h
1872 28-01-2020 13:15:00 6.6 C 5.89 g/m*3 2.82 C 22.5 km/h
1873 28-01-2020 13:20:00 6.6 C 5.74 g/m*3 2.99 C 20.9 km/h
1874 28-01-2020 13:25:00 6.7 C 5.93 g/m*3 4.17 C 12.9 km/h
1875 28-01-2020 13:30:00 6.7 C 5.93 g/m*3 3.92 C 14.5 km/h
Sensor: Nr:Datum:Temp:Abs-Feuchte:Windchill:Wind:
Aussen-T/F 1876 28-01-2020 13:35:00 6.7 C 5.93 g/m*3 3.69 C 16.1 km/h
1877 28-01-2020 13:40:00 6.7 C 5.85 g/m*3 4.44 C 11.3 km/h
1878 28-01-2020 13:45:00 6.7 C 5.85 g/m*3 4.17 C 12.9 km/h
1879 28-01-2020 13:50:00 6.6 C 5.89 g/m*3 3.57 C 16.1 km/h
1880 28-01-2020 13:55:00 6.6 C 5.96 g/m*3 4.04 C 12.9 km/h
1881 28-01-2020 14:00:00 6.4 C 5.89 g/m*3 2.4 C 24.1 km/h
1882 28-01-2020 14:05:00 6.5 C 5.92 g/m*3 3.04 C 19.3 km/h
1883 28-01-2020 14:10:00 6.4 C 5.81 g/m*3 2.4 C 24.1 km/h
1884 28-01-2020 14:15:00 6.4 C 5.74 g/m*3 2.91 C 19.3 km/h
1885 28-01-2020 14:20:00 6.3 C 5.63 g/m*3 2.98 C 17.7 km/h
1886 28-01-2020 14:25:00 6.3 C 5.55 g/m*3 1.97 C 27.4 km/h
1887 28-01-2020 14:30:00 6.4 C 5.59 g/m*3 3.32 C 16.1 km/h
1888 28-01-2020 14:35:00 6.4 C 5.59 g/m*3 2.25 C 25.7 km/h
1889 28-01-2020 14:40:00 6.3 C 5.63 g/m*3 2.12 C 25.7 km/h
1890 28-01-2020 14:45:00 6.2 C 5.74 g/m*3 3.3 C 14.5 km/h
1891 28-01-2020 14:50:00 6.2 C 5.81 g/m*3 3.84 C 11.3 km/h
1892 28-01-2020 14:55:00 6.2 C 5.66 g/m*3 2.66 C 19.3 km/h
1893 28-01-2020 15:00:00 6.3 C 5.63 g/m*3 3.43 C 14.5 km/h
1894 28-01-2020 15:05:00 6.4 C 5.66 g/m*3 2.91 C 19.3 km/h
1895 28-01-2020 15:10:00 6.6 C 5.59 g/m*3 3.57 C 16.1 km/h
1896 28-01-2020 15:15:00 6.6 C 5.36 g/m*3 2.66 C 24.1 km/h
1897 28-01-2020 15:20:00 6.7 C 5.55 g/m*3 2.94 C 22.5 km/h
1898 28-01-2020 15:25:00 6.7 C 5.7 g/m*3 3.92 C 14.5 km/h
1899 28-01-2020 15:30:00 6.5 C 5.7 g/m*3 4.2 C 11.3 km/h
1900 28-01-2020 15:35:00 6.3 C 5.7 g/m*3 3.96 C 11.3 km/h
Sensor: Nr:Datum:Temp:Abs-Feuchte:Windchill:Wind:
Aussen-T/F 1901 28-01-2020 15:40:00 6.2 C 5.74 g/m*3 3.84 C 11.3 km/h
1902 28-01-2020 15:45:00 6.1 C 5.7 g/m*3 2.54 C 19.3 km/h
1903 28-01-2020 15:50:00 6 C 5.66 g/m*3 1.06 C 33.8 km/h
1904 28-01-2020 15:55:00 5.9 C 5.7 g/m*3 1.61 C 25.7 km/h
1905 28-01-2020 16:00:00 5.8 C 5.73 g/m*3 2.16 C 19.3 km/h
1906 28-01-2020 16:05:00 5.7 C 5.69 g/m*3 1.5 C 24.1 km/h
1907 28-01-2020 16:10:00 5.6 C 5.66 g/m*3 2.83 C 12.9 km/h
1908 28-01-2020 16:15:00 5.4 C 5.51 g/m*3 1.47 C 20.9 km/h
1909 28-01-2020 16:20:00 5.4 C 5.51 g/m*3 2.32 C 14.5 km/h
1910 28-01-2020 16:25:00 5.3 C 5.41 g/m*3 2.75 C 11.3 km/h
1911 28-01-2020 16:30:00 5.3 C 5.34 g/m*3 2.75 C 11.3 km/h
1912 28-01-2020 16:35:00 5.3 C 5.34 g/m*3 5.3 C 4.8 km/h
1913 28-01-2020 16:40:00 5.2 C 5.23 g/m*3 2.34 C 12.9 km/h
1914 28-01-2020 16:45:00 5.2 C 5.23 g/m*3 2.34 C 12.9 km/h
1915 28-01-2020 16:50:00 5.1 C 5.2 g/m*3 2.22 C 12.9 km/h
1916 28-01-2020 16:55:00 5 C 5.16 g/m*3 2.09 C 12.9 km/h
1917 28-01-2020 17:00:00 4.9 C 5.13 g/m*3 1.7 C 14.5 km/h
1918 28-01-2020 17:05:00 4.9 C 5.2 g/m*3 1.46 C 16.1 km/h
1919 28-01-2020 17:10:00 4.8 C 5.16 g/m*3 1.85 C 12.9 km/h
1920 28-01-2020 17:15:00 4.7 C 5.13 g/m*3 2.37 C 9.7 km/h
1921 28-01-2020 17:20:00 4.5 C 5.13 g/m*3 2.13 C 9.7 km/h
1922 28-01-2020 17:25:00 4.4 C 5.09 g/m*3 1.36 C 12.9 km/h
1923 28-01-2020 17:30:00 4.4 C 5.16 g/m*3 2.01 C 9.7 km/h
1924 28-01-2020 17:35:00 4.6 C 5.23 g/m*3 1.34 C 14.5 km/h
1925 28-01-2020 17:40:00 4.6 C 5.23 g/m*3 1.09 C 16.1 km/h
Sensor: Nr:Datum:Temp:Abs-Feuchte:Windchill:Wind:
Aussen-T/F 1926 28-01-2020 17:45:00 4.7 C 5.2 g/m*3 1.21 C 16.1 km/h
1927 28-01-2020 17:50:00 4.7 C 5.2 g/m*3 2.03 C 11.3 km/h
1928 28-01-2020 17:55:00 4.6 C 5.16 g/m*3 2.64 C 8.1 km/h
1929 28-01-2020 18:00:00 4.5 C 5.13 g/m*3 1.48 C 12.9 km/h
1930 28-01-2020 18:05:00 4.4 C 5.16 g/m*3 2.9 C 6.4 km/h
1931 28-01-2020 18:10:00 4.3 C 5.12 g/m*3 0.72 C 16.1 km/h
1932 28-01-2020 18:15:00 4.3 C 5.19 g/m*3 1.89 C 9.7 km/h
1933 28-01-2020 18:20:00 4.2 C 5.15 g/m*3 1.12 C 12.9 km/h
1934 28-01-2020 18:25:00 4.2 C 5.15 g/m*3 4.2 C 4.8 km/h
1935 28-01-2020 18:30:00 4.1 C 5.18 g/m*3 1.31 C 11.3 km/h
1936 28-01-2020 18:35:00 4.1 C 5.18 g/m*3 4.1 C 4.8 km/h
1937 28-01-2020 18:40:00 4 C 5.21 g/m*3 0.6 C 14.5 km/h
1938 28-01-2020 18:45:00 4.1 C 5.25 g/m*3 0.47 C 16.1 km/h
1939 28-01-2020 18:50:00 4.2 C 5.22 g/m*3 1.43 C 11.3 km/h
1940 28-01-2020 18:55:00 4.2 C 5.22 g/m*3 0.84 C 14.5 km/h
1941 28-01-2020 19:00:00 4.2 C 5.22 g/m*3 1.43 C 11.3 km/h
1942 28-01-2020 19:05:00 4.2 C 5.22 g/m*3 0.36 C 17.7 km/h
1943 28-01-2020 19:10:00 4.2 C 5.22 g/m*3 1.77 C 9.7 km/h
1944 28-01-2020 19:15:00 4.2 C 5.22 g/m*3 1.43 C 11.3 km/h
1945 28-01-2020 19:20:00 4.3 C 5.19 g/m*3 0.27 C 19.3 km/h
1946 28-01-2020 19:25:00 4.4 C 5.16 g/m*3 0.84 C 16.1 km/h
1947 28-01-2020 19:30:00 4.5 C 5.19 g/m*3 0.14 C 22.5 km/h
1948 28-01-2020 19:35:00 4.5 C 5.13 g/m*3 0.96 C 16.1 km/h
1949 28-01-2020 19:40:00 4.5 C 5.19 g/m*3 2.13 C 9.7 km/h
1950 28-01-2020 19:45:00 4.4 C 5.16 g/m*3 0.61 C 17.7 km/h
Sensor: Nr:Datum:Temp:Abs-Feuchte:Windchill:Wind:
Aussen-T/F 1951 28-01-2020 19:50:00 4.4 C 5.22 g/m*3 1.67 C 11.3 km/h
1952 28-01-2020 19:55:00 4.3 C 5.19 g/m*3 1.24 C 12.9 km/h
1953 28-01-2020 20:00:00 4.2 C 5.22 g/m*3 0.59 C 16.1 km/h
1954 28-01-2020 20:05:00 4.2 C 5.22 g/m*3 1.43 C 11.3 km/h
1955 28-01-2020 20:10:00 4.1 C 5.25 g/m*3 0.47 C 16.1 km/h
1956 28-01-2020 20:15:00 4.2 C 5.28 g/m*3 0.84 C 14.5 km/h
1957 28-01-2020 20:20:00 4.3 C 5.32 g/m*3 0.72 C 16.1 km/h
1958 28-01-2020 20:25:00 4.3 C 5.32 g/m*3 0.97 C 14.5 km/h
1959 28-01-2020 20:30:00 4.4 C 5.35 g/m*3 0.84 C 16.1 km/h
1960 28-01-2020 20:35:00 4.4 C 5.35 g/m*3 0.01 C 22.5 km/h
1961 28-01-2020 20:40:00 4.5 C 5.32 g/m*3 0.33 C 20.9 km/h
1962 28-01-2020 20:45:00 4.6 C 5.36 g/m*3 0.65 C 19.3 km/h
1963 28-01-2020 20:50:00 4.5 C 5.39 g/m*3 0.14 C 22.5 km/h
1964 28-01-2020 20:55:00 4.4 C 5.35 g/m*3 -0.33 C 25.7 km/h
1965 28-01-2020 21:00:00 4.3 C 5.32 g/m*3 1.24 C 12.9 km/h
1966 28-01-2020 21:05:00 4.3 C 5.32 g/m*3 0.97 C 14.5 km/h
1967 28-01-2020 21:10:00 4.3 C 5.32 g/m*3 1.89 C 9.7 km/h
1968 28-01-2020 21:15:00 4.2 C 5.35 g/m*3 0.59 C 16.1 km/h
1969 28-01-2020 21:20:00 4.2 C 5.35 g/m*3 1.77 C 9.7 km/h
1970 28-01-2020 21:25:00 4.1 C 5.31 g/m*3 1 C 12.9 km/h
1971 28-01-2020 21:30:00 4.1 C 5.31 g/m*3 0.72 C 14.5 km/h
1972 28-01-2020 21:35:00 4.1 C 5.31 g/m*3 1 C 12.9 km/h
1973 28-01-2020 21:40:00 4.1 C 5.31 g/m*3 0.72 C 14.5 km/h
1974 28-01-2020 21:45:00 4.1 C 5.38 g/m*3 0.47 C 16.1 km/h
1975 28-01-2020 21:50:00 4 C 5.34 g/m*3 1.93 C 8.1 km/h
Sensor: Nr:Datum:Temp:Abs-Feuchte:Windchill:Wind:
Aussen-T/F 1976 28-01-2020 21:55:00 3.9 C 5.31 g/m*3 1.06 C 11.3 km/h
1977 28-01-2020 22:00:00 3.8 C 5.27 g/m*3 0.63 C 12.9 km/h
1978 28-01-2020 22:05:00 3.9 C 5.37 g/m*3 1.41 C 9.7 km/h
1979 28-01-2020 22:10:00 3.9 C 5.37 g/m*3 1.82 C 8.1 km/h
1980 28-01-2020 22:15:00 4.1 C 5.38 g/m*3 1.31 C 11.3 km/h
1981 28-01-2020 22:20:00 4.1 C 5.44 g/m*3 2.55 C 6.4 km/h
1982 28-01-2020 22:25:00 4.1 C 5.44 g/m*3 2.05 C 8.1 km/h
1983 28-01-2020 22:30:00 4.1 C 5.44 g/m*3 4.1 C 3.2 km/h
1984 28-01-2020 22:35:00 4.2 C 5.48 g/m*3 0.59 C 16.1 km/h
1985 28-01-2020 22:40:00 4.2 C 5.48 g/m*3 4.2 C 3.2 km/h
1986 28-01-2020 22:45:00 4.1 C 5.44 g/m*3 1.31 C 11.3 km/h
1987 28-01-2020 22:50:00 4.1 C 5.44 g/m*3 2.05 C 8.1 km/h
1988 28-01-2020 22:55:00 4.1 C 5.44 g/m*3 4.1 C 3.2 km/h
1989 28-01-2020 23:00:00 4.2 C 5.48 g/m*3 4.2 C 1.6 km/h
1990 28-01-2020 23:05:00 4.2 C 5.54 g/m*3 4.2 C 4.8 km/h
1991 28-01-2020 23:10:00 4.2 C 5.54 g/m*3 2.67 C 6.4 km/h
1992 28-01-2020 23:15:00 4.2 C 5.54 g/m*3 2.17 C 8.1 km/h
1993 28-01-2020 23:20:00 4.3 C 5.58 g/m*3 4.3 C 1.6 km/h
1994 28-01-2020 23:25:00 4.3 C 5.58 g/m*3 4.3 C 1.6 km/h
1995 28-01-2020 23:30:00 4.3 C 5.51 g/m*3 4.3 C 4.8 km/h
1996 28-01-2020 23:35:00 4.4 C 5.55 g/m*3 1.36 C 12.9 km/h
1997 28-01-2020 23:40:00 4.5 C 5.59 g/m*3 1.79 C 11.3 km/h
1998 28-01-2020 23:45:00 4.6 C 5.62 g/m*3 2.25 C 9.7 km/h
1999 28-01-2020 23:50:00 4.6 C 5.62 g/m*3 1.09 C 16.1 km/h
2000 28-01-2020 23:55:00 4.7 C 5.66 g/m*3 1.21 C 16.1 km/h
Sensor: Nr:Datum:Temp:Abs-Feuchte:Windchill:Wind:
Aussen-T/F 2001 29-01-2020 00:00:00 4.6 C 5.62 g/m*3 2.64 C 8.1 km/h
2002 29-01-2020 00:05:00 4.6 C 5.62 g/m*3 2.64 C 8.1 km/h
2003 29-01-2020 00:10:00 4.4 C 5.55 g/m*3 2.01 C 9.7 km/h
2004 29-01-2020 00:15:00 4.4 C 5.55 g/m*3 2.4 C 8.1 km/h
2005 29-01-2020 00:20:00 4.4 C 5.55 g/m*3 2.01 C 9.7 km/h
2006 29-01-2020 00:25:00 4.4 C 5.55 g/m*3 1.36 C 12.9 km/h
2007 29-01-2020 00:30:00 4.4 C 5.55 g/m*3 1.36 C 12.9 km/h
2008 29-01-2020 00:35:00 4.4 C 5.55 g/m*3 0.61 C 17.7 km/h
2009 29-01-2020 00:40:00 4.5 C 5.59 g/m*3 0.74 C 17.7 km/h
2010 29-01-2020 00:45:00 4.5 C 5.72 g/m*3 1.79 C 11.3 km/h
2011 29-01-2020 00:50:00 4.5 C 5.78 g/m*3 2.13 C 9.7 km/h
2012 29-01-2020 00:55:00 4.4 C 5.75 g/m*3 1.09 C 14.5 km/h
2013 29-01-2020 01:00:00 4.3 C 5.71 g/m*3 1.55 C 11.3 km/h
2014 29-01-2020 01:05:00 4.2 C 5.73 g/m*3 2.67 C 6.4 km/h
2015 29-01-2020 01:10:00 4.1 C 5.7 g/m*3 4.1 C 4.8 km/h
2016 29-01-2020 01:15:00 3.9 C 5.62 g/m*3 2.32 C 6.4 km/h
2017 29-01-2020 01:20:00 3.8 C 5.58 g/m*3 1.7 C 8.1 km/h
2018 29-01-2020 01:25:00 3.8 C 5.65 g/m*3 1.29 C 9.7 km/h
2019 29-01-2020 01:30:00 3.8 C 5.65 g/m*3 1.7 C 8.1 km/h
2020 29-01-2020 01:35:00 3.9 C 5.68 g/m*3 0.22 C 16.1 km/h
2021 29-01-2020 01:40:00 4 C 5.66 g/m*3 0.88 C 12.9 km/h
2022 29-01-2020 01:45:00 4.1 C 5.7 g/m*3 1.31 C 11.3 km/h
2023 29-01-2020 01:50:00 4.1 C 5.7 g/m*3 1 C 12.9 km/h
2024 29-01-2020 01:55:00 4 C 5.66 g/m*3 1.18 C 11.3 km/h
2025 29-01-2020 02:00:00 4 C 5.66 g/m*3 0.34 C 16.1 km/h
Sensor: Nr:Datum:Temp:Abs-Feuchte:Windchill:Wind:
Aussen-T/F 2026 29-01-2020 02:05:00 4 C 5.66 g/m*3 0.6 C 14.5 km/h
2027 29-01-2020 02:10:00 4.1 C 5.7 g/m*3 1.31 C 11.3 km/h
2028 29-01-2020 02:15:00 4.1 C 5.7 g/m*3 0.72 C 14.5 km/h
2029 29-01-2020 02:20:00 4.1 C 5.7 g/m*3 1.65 C 9.7 km/h
2030 29-01-2020 02:25:00 4 C 5.72 g/m*3 0.88 C 12.9 km/h
2031 29-01-2020 02:30:00 3.9 C 5.68 g/m*3 1.82 C 8.1 km/h
2032 29-01-2020 02:35:00 3.9 C 5.75 g/m*3 -0.43 C 20.9 km/h
2033 29-01-2020 02:40:00 3.8 C 5.71 g/m*3 1.29 C 9.7 km/h
2034 29-01-2020 02:45:00 3.7 C 5.73 g/m*3 1.58 C 8.1 km/h
2035 29-01-2020 02:50:00 3.7 C 5.73 g/m*3 1.18 C 9.7 km/h
2036 29-01-2020 02:55:00 3.7 C 5.73 g/m*3 1.18 C 9.7 km/h
2037 29-01-2020 03:00:00 3.6 C 5.69 g/m*3 1.46 C 8.1 km/h
2038 29-01-2020 03:05:00 3.6 C 5.69 g/m*3 1.06 C 9.7 km/h
2039 29-01-2020 03:10:00 3.6 C 5.69 g/m*3 1.46 C 8.1 km/h
2040 29-01-2020 03:15:00 3.6 C 5.69 g/m*3 3.6 C 4.8 km/h
2041 29-01-2020 03:20:00 3.6 C 5.69 g/m*3 1.98 C 6.4 km/h
2042 29-01-2020 03:25:00 3.6 C 5.69 g/m*3 1.06 C 9.7 km/h
2043 29-01-2020 03:30:00 3.6 C 5.69 g/m*3 3.6 C 3.2 km/h
2044 29-01-2020 03:35:00 3.6 C 5.69 g/m*3 1.46 C 8.1 km/h
2045 29-01-2020 03:40:00 3.6 C 5.69 g/m*3 3.6 C 3.2 km/h
2046 29-01-2020 03:45:00 3.6 C 5.69 g/m*3 3.6 C 3.2 km/h
2047 29-01-2020 03:50:00 3.6 C 5.69 g/m*3 3.6 C 1.6 km/h
2048 29-01-2020 03:55:00 3.5 C 5.66 g/m*3 3.5 C 1.6 km/h
2049 29-01-2020 04:00:00 3.4 C 5.62 g/m*3 3.4 C 0 km/h
2050 29-01-2020 04:05:00 3.4 C 5.62 g/m*3 3.4 C 4.8 km/h
Sensor: Nr:Datum:Temp:Abs-Feuchte:Windchill:Wind:
Aussen-T/F 2051 29-01-2020 04:10:00 3.4 C 5.62 g/m*3 3.4 C 0 km/h
2052 29-01-2020 04:15:00 3.4 C 5.68 g/m*3 3.4 C 0 km/h
2053 29-01-2020 04:20:00 3.4 C 5.68 g/m*3 3.4 C 0 km/h
2054 29-01-2020 04:25:00 3.4 C 5.68 g/m*3 3.4 C 4.8 km/h
2055 29-01-2020 04:30:00 3.4 C 5.62 g/m*3 3.4 C 4.8 km/h
2056 29-01-2020 04:35:00 3.4 C 5.62 g/m*3 3.4 C 3.2 km/h
2057 29-01-2020 04:40:00 3.5 C 5.6 g/m*3 0.58 C 11.3 km/h
2058 29-01-2020 04:45:00 3.6 C 5.63 g/m*3 1.98 C 6.4 km/h
2059 29-01-2020 04:50:00 3.7 C 5.67 g/m*3 1.58 C 8.1 km/h
2060 29-01-2020 04:55:00 3.7 C 5.61 g/m*3 1.18 C 9.7 km/h
2061 29-01-2020 05:00:00 3.8 C 5.65 g/m*3 3.8 C 4.8 km/h
2062 29-01-2020 05:05:00 3.8 C 5.65 g/m*3 0.35 C 14.5 km/h
2063 29-01-2020 05:10:00 3.9 C 5.62 g/m*3 1.06 C 11.3 km/h
2064 29-01-2020 05:15:00 4 C 5.66 g/m*3 0.6 C 14.5 km/h
2065 29-01-2020 05:20:00 4.1 C 5.63 g/m*3 1.31 C 11.3 km/h
2066 29-01-2020 05:25:00 4.1 C 5.63 g/m*3 2.55 C 6.4 km/h
2067 29-01-2020 05:30:00 4.1 C 5.63 g/m*3 2.05 C 8.1 km/h
2068 29-01-2020 05:35:00 4.1 C 5.63 g/m*3 2.05 C 8.1 km/h
2069 29-01-2020 05:40:00 4.2 C 5.67 g/m*3 1.77 C 9.7 km/h
2070 29-01-2020 05:45:00 4.2 C 5.67 g/m*3 1.77 C 9.7 km/h
2071 29-01-2020 05:50:00 4.2 C 5.67 g/m*3 4.2 C 4.8 km/h
2072 29-01-2020 05:55:00 4.2 C 5.67 g/m*3 1.77 C 9.7 km/h
2073 29-01-2020 06:00:00 4.1 C 5.63 g/m*3 2.05 C 8.1 km/h
2074 29-01-2020 06:05:00 4.1 C 5.63 g/m*3 2.55 C 6.4 km/h
2075 29-01-2020 06:10:00 4.1 C 5.63 g/m*3 2.05 C 8.1 km/h
Sensor: Nr:Datum:Temp:Abs-Feuchte:Windchill:Wind:
Aussen-T/F 2076 29-01-2020 06:15:00 4.1 C 5.63 g/m*3 1.65 C 9.7 km/h
2077 29-01-2020 06:20:00 4 C 5.59 g/m*3 1.93 C 8.1 km/h
2078 29-01-2020 06:25:00 4 C 5.59 g/m*3 4 C 4.8 km/h
2079 29-01-2020 06:30:00 3.9 C 5.56 g/m*3 1.41 C 9.7 km/h
2080 29-01-2020 06:35:00 4 C 5.59 g/m*3 1.53 C 9.7 km/h
2081 29-01-2020 06:40:00 3.9 C 5.56 g/m*3 3.9 C 4.8 km/h
2082 29-01-2020 06:45:00 3.9 C 5.56 g/m*3 2.32 C 6.4 km/h
2083 29-01-2020 06:50:00 3.8 C 5.52 g/m*3 1.7 C 8.1 km/h
2084 29-01-2020 06:55:00 3.8 C 5.52 g/m*3 0.94 C 11.3 km/h
2085 29-01-2020 07:00:00 3.9 C 5.56 g/m*3 1.82 C 8.1 km/h
2086 29-01-2020 07:05:00 4 C 5.59 g/m*3 0.6 C 14.5 km/h
2087 29-01-2020 07:10:00 4.1 C 5.63 g/m*3 1.65 C 9.7 km/h
2088 29-01-2020 07:15:00 4.1 C 5.63 g/m*3 1.65 C 9.7 km/h
2089 29-01-2020 07:20:00 4.2 C 5.67 g/m*3 2.17 C 8.1 km/h
2090 29-01-2020 07:25:00 4.2 C 5.61 g/m*3 1.12 C 12.9 km/h
2091 29-01-2020 07:30:00 4.3 C 5.64 g/m*3 1.55 C 11.3 km/h
2092 29-01-2020 07:35:00 4.3 C 5.64 g/m*3 2.29 C 8.1 km/h
2093 29-01-2020 07:40:00 4.3 C 5.64 g/m*3 2.29 C 8.1 km/h
2094 29-01-2020 07:45:00 4.3 C 5.58 g/m*3 2.29 C 8.1 km/h
2095 29-01-2020 07:50:00 4.2 C 5.54 g/m*3 2.67 C 6.4 km/h
2096 29-01-2020 07:55:00 4.3 C 5.58 g/m*3 1.24 C 12.9 km/h
2097 29-01-2020 08:00:00 4.3 C 5.58 g/m*3 1.55 C 11.3 km/h
2098 29-01-2020 08:05:00 4.3 C 5.58 g/m*3 2.78 C 6.4 km/h
2099 29-01-2020 08:10:00 4.4 C 5.62 g/m*3 2.9 C 6.4 km/h
2100 29-01-2020 08:15:00 4.3 C 5.58 g/m*3 2.29 C 8.1 km/h
Sensor: Nr:Datum:Temp:Abs-Feuchte:Windchill:Wind:
Aussen-T/F 2101 29-01-2020 08:20:00 4.3 C 5.58 g/m*3 1.89 C 9.7 km/h
2102 29-01-2020 08:25:00 4.3 C 5.58 g/m*3 1.89 C 9.7 km/h
2103 29-01-2020 08:30:00 4.3 C 5.58 g/m*3 1.89 C 9.7 km/h
2104 29-01-2020 08:35:00 4.4 C 5.62 g/m*3 0.84 C 16.1 km/h
2105 29-01-2020 08:40:00 4.5 C 5.59 g/m*3 1.21 C 14.5 km/h
2106 29-01-2020 08:45:00 4.6 C 5.62 g/m*3 2.25 C 9.7 km/h
2107 29-01-2020 08:50:00 4.7 C 5.66 g/m*3 0.78 C 19.3 km/h
2108 29-01-2020 08:55:00 4.7 C 5.66 g/m*3 2.76 C 8.1 km/h
2109 29-01-2020 09:00:00 4.7 C 5.6 g/m*3 1.73 C 12.9 km/h
2110 29-01-2020 09:05:00 4.7 C 5.6 g/m*3 1.46 C 14.5 km/h
2111 29-01-2020 09:10:00 4.8 C 5.63 g/m*3 0.52 C 22.5 km/h
2112 29-01-2020 09:15:00 4.8 C 5.63 g/m*3 2.15 C 11.3 km/h
2113 29-01-2020 09:20:00 4.7 C 5.66 g/m*3 2.76 C 8.1 km/h
2114 29-01-2020 09:25:00 4.7 C 5.66 g/m*3 1.73 C 12.9 km/h
2115 29-01-2020 09:30:00 4.8 C 5.7 g/m*3 1.58 C 14.5 km/h
2116 29-01-2020 09:35:00 4.7 C 5.66 g/m*3 0.58 C 20.9 km/h
2117 29-01-2020 09:40:00 4.7 C 5.66 g/m*3 2.76 C 8.1 km/h
2118 29-01-2020 09:45:00 4.7 C 5.73 g/m*3 2.03 C 11.3 km/h
2119 29-01-2020 09:50:00 4.7 C 5.73 g/m*3 1.73 C 12.9 km/h
2120 29-01-2020 09:55:00 4.7 C 5.8 g/m*3 2.03 C 11.3 km/h
2121 29-01-2020 10:00:00 4.6 C 5.76 g/m*3 2.64 C 8.1 km/h
2122 29-01-2020 10:05:00 4.6 C 5.76 g/m*3 2.25 C 9.7 km/h
2123 29-01-2020 10:10:00 4.7 C 5.8 g/m*3 2.03 C 11.3 km/h
2124 29-01-2020 10:15:00 4.7 C 5.8 g/m*3 1.73 C 12.9 km/h
2125 29-01-2020 10:20:00 4.8 C 5.77 g/m*3 1.85 C 12.9 km/h
Sensor: Nr:Datum:Temp:Abs-Feuchte:Windchill:Wind:
Aussen-T/F 2126 29-01-2020 10:25:00 4.8 C 5.77 g/m*3 2.15 C 11.3 km/h
2127 29-01-2020 10:30:00 4.8 C 5.77 g/m*3 1.58 C 14.5 km/h
2128 29-01-2020 10:35:00 4.8 C 5.77 g/m*3 1.85 C 12.9 km/h
2129 29-01-2020 10:40:00 4.9 C 5.81 g/m*3 2.61 C 9.7 km/h
2130 29-01-2020 10:45:00 4.9 C 5.81 g/m*3 2.27 C 11.3 km/h
2131 29-01-2020 10:50:00 5 C 5.84 g/m*3 2.72 C 9.7 km/h
2132 29-01-2020 10:55:00 5.1 C 5.88 g/m*3 1.95 C 14.5 km/h
2133 29-01-2020 11:00:00 5.1 C 5.81 g/m*3 1.95 C 14.5 km/h
2134 29-01-2020 11:05:00 5.2 C 5.85 g/m*3 2.34 C 12.9 km/h
2135 29-01-2020 11:10:00 5.2 C 5.85 g/m*3 1.03 C 22.5 km/h
2136 29-01-2020 11:15:00 5.2 C 5.92 g/m*3 2.63 C 11.3 km/h
2137 29-01-2020 11:20:00 5.3 C 5.89 g/m*3 2.46 C 12.9 km/h
2138 29-01-2020 11:25:00 5.3 C 5.89 g/m*3 3.08 C 9.7 km/h
2139 29-01-2020 11:30:00 5.4 C 6 g/m*3 3.58 C 8.1 km/h
2140 29-01-2020 11:35:00 5.5 C 5.97 g/m*3 2.7 C 12.9 km/h
2141 29-01-2020 11:40:00 5.6 C 6.01 g/m*3 3.81 C 8.1 km/h
2142 29-01-2020 11:45:00 5.7 C 6.05 g/m*3 2.95 C 12.9 km/h
2143 29-01-2020 11:50:00 5.9 C 6.06 g/m*3 3.19 C 12.9 km/h
2144 29-01-2020 11:55:00 6.1 C 6.14 g/m*3 2.73 C 17.7 km/h
2145 29-01-2020 12:00:00 6.3 C 6.14 g/m*3 2.98 C 17.7 km/h
2146 29-01-2020 12:05:00 6.4 C 6.11 g/m*3 3.11 C 17.7 km/h
2147 29-01-2020 12:10:00 6.4 C 6.11 g/m*3 3.11 C 17.7 km/h
2148 29-01-2020 12:15:00 6.3 C 6 g/m*3 3.43 C 14.5 km/h
2149 29-01-2020 12:20:00 6.4 C 6.04 g/m*3 3.55 C 14.5 km/h
2150 29-01-2020 12:25:00 6.6 C 6.11 g/m*3 3.79 C 14.5 km/h
Sensor: Nr:Datum:Temp:Abs-Feuchte:Windchill:Wind:
Aussen-T/F 2151 29-01-2020 12:30:00 6.7 C 6.08 g/m*3 4.75 C 9.7 km/h
2152 29-01-2020 12:35:00 6.8 C 5.97 g/m*3 3.82 C 16.1 km/h
2153 29-01-2020 12:40:00 6.8 C 5.97 g/m*3 4.29 C 12.9 km/h
2154 29-01-2020 12:45:00 6.8 C 5.89 g/m*3 4.87 C 9.7 km/h
2155 29-01-2020 12:50:00 6.8 C 5.74 g/m*3 3.42 C 19.3 km/h
2156 29-01-2020 12:55:00 6.8 C 5.74 g/m*3 4.29 C 12.9 km/h
2157 29-01-2020 13:00:00 6.9 C 5.7 g/m*3 3.73 C 17.7 km/h
2158 29-01-2020 13:05:00 6.9 C 5.47 g/m*3 3.54 C 19.3 km/h
2159 29-01-2020 13:10:00 7 C 5.5 g/m*3 3.49 C 20.9 km/h
2160 29-01-2020 13:15:00 7.1 C 5.54 g/m*3 4.92 C 11.3 km/h
2161 29-01-2020 13:20:00 7 C 5.5 g/m*3 4.06 C 16.1 km/h
2162 29-01-2020 13:25:00 7 C 5.58 g/m*3 5.46 C 8.1 km/h
2163 29-01-2020 13:30:00 7.1 C 5.54 g/m*3 3.98 C 17.7 km/h
2164 29-01-2020 13:35:00 7.2 C 5.49 g/m*3 4.11 C 17.7 km/h
2165 29-01-2020 13:40:00 7.3 C 5.45 g/m*3 4.05 C 19.3 km/h
2166 29-01-2020 13:45:00 7.4 C 5.25 g/m*3 3.54 C 25.7 km/h
2167 29-01-2020 13:50:00 7.5 C 5.36 g/m*3 3.67 C 25.7 km/h
2168 29-01-2020 13:55:00 7.6 C 5.24 g/m*3 4.09 C 22.5 km/h
2169 29-01-2020 14:00:00 7.6 C 5.32 g/m*3 5.02 C 14.5 km/h
2170 29-01-2020 14:05:00 7.6 C 5.32 g/m*3 4.61 C 17.7 km/h
2171 29-01-2020 14:10:00 7.6 C 5.24 g/m*3 3.94 C 24.1 km/h
2172 29-01-2020 14:15:00 7.6 C 5.32 g/m*3 5.02 C 14.5 km/h
2173 29-01-2020 14:20:00 7.6 C 5.24 g/m*3 3.94 C 24.1 km/h
2174 29-01-2020 14:25:00 7.6 C 5.24 g/m*3 5.53 C 11.3 km/h
2175 29-01-2020 14:30:00 7.4 C 5.17 g/m*3 4.36 C 17.7 km/h
Sensor: Nr:Datum:Temp:Abs-Feuchte:Windchill:Wind:
Aussen-T/F 2176 29-01-2020 14:35:00 7.4 C 5.17 g/m*3 4.78 C 14.5 km/h
2177 29-01-2020 14:40:00 7.4 C 5.17 g/m*3 4.56 C 16.1 km/h
2178 29-01-2020 14:45:00 7.4 C 5.09 g/m*3 4 C 20.9 km/h
2179 29-01-2020 14:50:00 7.4 C 5.09 g/m*3 4.56 C 16.1 km/h
2180 29-01-2020 14:55:00 7.4 C 5.01 g/m*3 3.54 C 25.7 km/h
2181 29-01-2020 15:00:00 7.4 C 5.09 g/m*3 4.36 C 17.7 km/h
2182 29-01-2020 15:05:00 7.3 C 5.06 g/m*3 3.87 C 20.9 km/h
2183 29-01-2020 15:10:00 7.3 C 5.21 g/m*3 4.66 C 14.5 km/h
2184 29-01-2020 15:15:00 7.3 C 5.06 g/m*3 3.71 C 22.5 km/h
2185 29-01-2020 15:20:00 7.2 C 5.1 g/m*3 4.11 C 17.7 km/h
2186 29-01-2020 15:25:00 7.2 C 5.02 g/m*3 4.11 C 17.7 km/h
2187 29-01-2020 15:30:00 7.2 C 4.95 g/m*3 4.11 C 17.7 km/h
2188 29-01-2020 15:35:00 7.2 C 5.02 g/m*3 3.13 C 27.4 km/h
2189 29-01-2020 15:40:00 7.2 C 5.02 g/m*3 4.53 C 14.5 km/h
2190 29-01-2020 15:45:00 7.2 C 5.02 g/m*3 4.11 C 17.7 km/h
2191 29-01-2020 15:50:00 7.3 C 4.98 g/m*3 4.66 C 14.5 km/h
2192 29-01-2020 15:55:00 7.3 C 5.06 g/m*3 3.71 C 22.5 km/h
2193 29-01-2020 16:00:00 7.3 C 4.98 g/m*3 4.66 C 14.5 km/h
2194 29-01-2020 16:05:00 7.3 C 5.14 g/m*3 4.9 C 12.9 km/h
2195 29-01-2020 16:10:00 7.2 C 5.1 g/m*3 5.35 C 9.7 km/h
2196 29-01-2020 16:15:00 7.2 C 5.02 g/m*3 4.77 C 12.9 km/h
2197 29-01-2020 16:20:00 7.2 C 5.02 g/m*3 5.04 C 11.3 km/h
2198 29-01-2020 16:25:00 7.2 C 5.1 g/m*3 3.92 C 19.3 km/h
2199 29-01-2020 16:30:00 7.3 C 5.06 g/m*3 4.66 C 14.5 km/h
2200 29-01-2020 16:35:00 7.3 C 5.06 g/m*3 3.71 C 22.5 km/h
Sensor: Nr:Datum:Temp:Abs-Feuchte:Windchill:Wind:
Aussen-T/F 2201 29-01-2020 16:40:00 7.4 C 5.17 g/m*3 4.78 C 14.5 km/h
2202 29-01-2020 16:45:00 7.4 C 5.17 g/m*3 4.78 C 14.5 km/h
2203 29-01-2020 16:50:00 7.3 C 5.21 g/m*3 5.16 C 11.3 km/h
2204 29-01-2020 16:55:00 7.2 C 5.18 g/m*3 4.77 C 12.9 km/h
2205 29-01-2020 17:00:00 7.1 C 5.23 g/m*3 4.19 C 16.1 km/h
2206 29-01-2020 17:05:00 6.9 C 5.16 g/m*3 4.68 C 11.3 km/h
2207 29-01-2020 17:10:00 6.8 C 5.2 g/m*3 4.56 C 11.3 km/h
2208 29-01-2020 17:15:00 6.6 C 5.21 g/m*3 5.44 C 6.4 km/h
2209 29-01-2020 17:20:00 6.4 C 5.14 g/m*3 4.08 C 11.3 km/h
2210 29-01-2020 17:25:00 6.3 C 5.18 g/m*3 3.43 C 14.5 km/h
2211 29-01-2020 17:30:00 6.2 C 5.15 g/m*3 6.2 C 4.8 km/h
2212 29-01-2020 17:35:00 5.9 C 5.12 g/m*3 5.9 C 4.8 km/h
2213 29-01-2020 17:40:00 5.7 C 5.19 g/m*3 5.7 C 3.2 km/h
2214 29-01-2020 17:45:00 5.4 C 5.09 g/m*3 3.58 C 8.1 km/h
2215 29-01-2020 17:50:00 5.3 C 5.2 g/m*3 5.3 C 3.2 km/h
2216 29-01-2020 17:55:00 5.1 C 5.13 g/m*3 5.1 C 3.2 km/h
2217 29-01-2020 18:00:00 4.9 C 5.13 g/m*3 4.9 C 4.8 km/h
2218 29-01-2020 18:05:00 4.8 C 5.1 g/m*3 4.8 C 4.8 km/h
2219 29-01-2020 18:10:00 4.7 C 5.06 g/m*3 4.7 C 4.8 km/h
2220 29-01-2020 18:15:00 4.7 C 5.06 g/m*3 4.7 C 4.8 km/h
2221 29-01-2020 18:20:00 4.6 C 5.1 g/m*3 4.6 C 4.8 km/h
2222 29-01-2020 18:25:00 4.4 C 5.09 g/m*3 4.4 C 3.2 km/h
2223 29-01-2020 18:30:00 4.3 C 5.12 g/m*3 4.3 C 3.2 km/h
2224 29-01-2020 18:35:00 4.1 C 5.12 g/m*3 2.55 C 6.4 km/h
2225 29-01-2020 18:40:00 3.9 C 5.12 g/m*3 3.9 C 4.8 km/h
Sensor: Nr:Datum:Temp:Abs-Feuchte:Windchill:Wind:
Aussen-T/F 2226 29-01-2020 18:45:00 3.8 C 5.08 g/m*3 3.8 C 4.8 km/h
2227 29-01-2020 18:50:00 3.8 C 5.08 g/m*3 3.8 C 4.8 km/h
2228 29-01-2020 18:55:00 3.8 C 5.14 g/m*3 3.8 C 4.8 km/h
2229 29-01-2020 19:00:00 3.7 C 5.11 g/m*3 3.7 C 4.8 km/h
2230 29-01-2020 19:05:00 3.7 C 5.11 g/m*3 3.7 C 3.2 km/h
2231 29-01-2020 19:10:00 3.6 C 5.14 g/m*3 3.6 C 4.8 km/h
2232 29-01-2020 19:15:00 3.4 C 5.07 g/m*3 3.4 C 4.8 km/h
2233 29-01-2020 19:20:00 3.4 C 5.07 g/m*3 3.4 C 3.2 km/h
2234 29-01-2020 19:25:00 3.4 C 5.13 g/m*3 3.4 C 3.2 km/h
2235 29-01-2020 19:30:00 3.3 C 5.1 g/m*3 3.3 C 3.2 km/h
2236 29-01-2020 19:35:00 3.2 C 5.06 g/m*3 3.2 C 4.8 km/h
2237 29-01-2020 19:40:00 3.2 C 5.12 g/m*3 1.51 C 6.4 km/h
2238 29-01-2020 19:45:00 3.2 C 5.12 g/m*3 3.2 C 4.8 km/h
2239 29-01-2020 19:50:00 3.2 C 5.12 g/m*3 3.2 C 3.2 km/h
2240 29-01-2020 19:55:00 3.2 C 5.12 g/m*3 3.2 C 1.6 km/h
2241 29-01-2020 20:00:00 3.1 C 5.09 g/m*3 3.1 C 1.6 km/h
2242 29-01-2020 20:05:00 3 C 5.11 g/m*3 3 C 1.6 km/h
2243 29-01-2020 20:10:00 2.9 C 5.08 g/m*3 2.9 C 3.2 km/h
2244 29-01-2020 20:15:00 2.8 C 5.04 g/m*3 2.8 C 3.2 km/h
2245 29-01-2020 20:20:00 2.8 C 5.1 g/m*3 2.8 C 1.6 km/h
2246 29-01-2020 20:25:00 2.8 C 5.1 g/m*3 2.8 C 3.2 km/h
2247 29-01-2020 20:30:00 2.8 C 5.1 g/m*3 2.8 C 4.8 km/h
2248 29-01-2020 20:35:00 2.8 C 5.16 g/m*3 2.8 C 1.6 km/h
2249 29-01-2020 20:40:00 2.8 C 5.16 g/m*3 2.8 C 3.2 km/h
2250 29-01-2020 20:45:00 2.8 C 5.22 g/m*3 2.8 C 3.2 km/h
Sensor: Nr:Datum:Temp:Abs-Feuchte:Windchill:Wind:
Aussen-T/F 2251 29-01-2020 20:50:00 2.9 C 5.26 g/m*3 2.9 C 1.6 km/h
2252 29-01-2020 20:55:00 2.9 C 5.26 g/m*3 2.9 C 3.2 km/h
2253 29-01-2020 21:00:00 2.9 C 5.26 g/m*3 2.9 C 3.2 km/h
2254 29-01-2020 21:05:00 3 C 5.29 g/m*3 0.76 C 8.1 km/h
2255 29-01-2020 21:10:00 3.1 C 5.33 g/m*3 3.1 C 3.2 km/h
2256 29-01-2020 21:15:00 3.1 C 5.39 g/m*3 3.1 C 3.2 km/h
2257 29-01-2020 21:20:00 3.1 C 5.39 g/m*3 1.4 C 6.4 km/h
2258 29-01-2020 21:25:00 3.1 C 5.33 g/m*3 3.1 C 1.6 km/h
2259 29-01-2020 21:30:00 3.2 C 5.42 g/m*3 1.51 C 6.4 km/h
2260 29-01-2020 21:35:00 3.2 C 5.42 g/m*3 3.2 C 4.8 km/h
2261 29-01-2020 21:40:00 3.2 C 5.42 g/m*3 3.2 C 4.8 km/h
2262 29-01-2020 21:45:00 3.2 C 5.42 g/m*3 3.2 C 3.2 km/h
2263 29-01-2020 21:50:00 3.2 C 5.42 g/m*3 3.2 C 3.2 km/h
2264 29-01-2020 21:55:00 3.1 C 5.39 g/m*3 3.1 C 3.2 km/h
2265 29-01-2020 22:00:00 3.1 C 5.39 g/m*3 3.1 C 4.8 km/h
2266 29-01-2020 22:05:00 3.1 C 5.39 g/m*3 3.1 C 3.2 km/h
2267 29-01-2020 22:10:00 3 C 5.35 g/m*3 3 C 3.2 km/h
2268 29-01-2020 22:15:00 3 C 5.41 g/m*3 3 C 4.8 km/h
2269 29-01-2020 22:20:00 3.1 C 5.45 g/m*3 3.1 C 1.6 km/h
2270 29-01-2020 22:25:00 3.2 C 5.54 g/m*3 1.51 C 6.4 km/h
2271 29-01-2020 22:30:00 3.4 C 5.62 g/m*3 3.4 C 1.6 km/h
2272 29-01-2020 22:35:00 3.6 C 5.69 g/m*3 3.6 C 4.8 km/h
2273 29-01-2020 22:40:00 3.8 C 5.77 g/m*3 1.29 C 9.7 km/h
2274 29-01-2020 22:45:00 3.9 C 5.81 g/m*3 1.82 C 8.1 km/h
2275 29-01-2020 22:50:00 4.2 C 5.93 g/m*3 4.2 C 3.2 km/h
Sensor: Nr:Datum:Temp:Abs-Feuchte:Windchill:Wind:
Aussen-T/F 2276 29-01-2020 22:55:00 4.3 C 5.9 g/m*3 4.3 C 3.2 km/h
2277 29-01-2020 23:00:00 4.4 C 5.94 g/m*3 1.67 C 11.3 km/h
2278 29-01-2020 23:05:00 4.7 C 6 g/m*3 3.25 C 6.4 km/h
2279 29-01-2020 23:10:00 4.8 C 6.04 g/m*3 4.8 C 3.2 km/h
2280 29-01-2020 23:15:00 4.8 C 6.04 g/m*3 4.8 C 4.8 km/h
2281 29-01-2020 23:20:00 4.9 C 6.08 g/m*3 3.48 C 6.4 km/h
2282 29-01-2020 23:25:00 5 C 6.05 g/m*3 5 C 4.8 km/h
2283 29-01-2020 23:30:00 5.1 C 6.09 g/m*3 5.1 C 4.8 km/h
2284 29-01-2020 23:35:00 5.2 C 6.13 g/m*3 3.82 C 6.4 km/h
2285 29-01-2020 23:40:00 5.3 C 6.1 g/m*3 5.3 C 3.2 km/h
2286 29-01-2020 23:45:00 5.3 C 6.17 g/m*3 3.46 C 8.1 km/h
2287 29-01-2020 23:50:00 5.5 C 6.18 g/m*3 2.7 C 12.9 km/h
2288 29-01-2020 23:55:00 5.6 C 6.22 g/m*3 4.29 C 6.4 km/h
2289 30-01-2020 00:00:00 5.7 C 6.19 g/m*3 3.93 C 8.1 km/h
2290 30-01-2020 00:05:00 5.7 C 6.19 g/m*3 3.93 C 8.1 km/h
2291 30-01-2020 00:10:00 5.8 C 6.23 g/m*3 4.05 C 8.1 km/h
2292 30-01-2020 00:15:00 5.8 C 6.23 g/m*3 4.05 C 8.1 km/h
2293 30-01-2020 00:20:00 5.8 C 6.23 g/m*3 3.07 C 12.9 km/h
2294 30-01-2020 00:25:00 5.8 C 6.16 g/m*3 3.07 C 12.9 km/h
2295 30-01-2020 00:30:00 5.9 C 6.2 g/m*3 4.63 C 6.4 km/h
2296 30-01-2020 00:35:00 5.8 C 6.16 g/m*3 5.8 C 3.2 km/h
2297 30-01-2020 00:40:00 5.8 C 6.16 g/m*3 4.05 C 8.1 km/h
2298 30-01-2020 00:45:00 5.8 C 6.16 g/m*3 3.68 C 9.7 km/h
2299 30-01-2020 00:50:00 5.8 C 6.16 g/m*3 4.05 C 8.1 km/h
2300 30-01-2020 00:55:00 5.9 C 6.2 g/m*3 3.48 C 11.3 km/h
Sensor: Nr:Datum:Temp:Abs-Feuchte:Windchill:Wind:
Aussen-T/F 2301 30-01-2020 01:00:00 6 C 6.24 g/m*3 3.31 C 12.9 km/h
2302 30-01-2020 01:05:00 6.1 C 6.28 g/m*3 3.43 C 12.9 km/h
2303 30-01-2020 01:10:00 6.2 C 6.32 g/m*3 3.84 C 11.3 km/h
2304 30-01-2020 01:15:00 6.2 C 6.32 g/m*3 3.07 C 16.1 km/h
2305 30-01-2020 01:20:00 6.2 C 6.25 g/m*3 4.52 C 8.1 km/h
2306 30-01-2020 01:25:00 6.2 C 6.25 g/m*3 3.84 C 11.3 km/h
2307 30-01-2020 01:30:00 6.2 C 6.25 g/m*3 4.15 C 9.7 km/h
2308 30-01-2020 01:35:00 6.2 C 6.25 g/m*3 3.56 C 12.9 km/h
2309 30-01-2020 01:40:00 6.2 C 6.25 g/m*3 4.15 C 9.7 km/h
2310 30-01-2020 01:45:00 6.2 C 6.25 g/m*3 4.98 C 6.4 km/h
2311 30-01-2020 01:50:00 6.3 C 6.29 g/m*3 4.27 C 9.7 km/h
2312 30-01-2020 01:55:00 6.3 C 6.29 g/m*3 3.68 C 12.9 km/h
2313 30-01-2020 02:00:00 6.3 C 6.29 g/m*3 3.68 C 12.9 km/h
2314 30-01-2020 02:05:00 6.3 C 6.29 g/m*3 5.1 C 6.4 km/h
2315 30-01-2020 02:10:00 6.3 C 6.29 g/m*3 4.27 C 9.7 km/h
2316 30-01-2020 02:15:00 6.3 C 6.29 g/m*3 5.1 C 6.4 km/h
2317 30-01-2020 02:20:00 6.3 C 6.29 g/m*3 6.3 C 4.8 km/h
2318 30-01-2020 02:25:00 6.3 C 6.29 g/m*3 5.1 C 6.4 km/h
2319 30-01-2020 02:30:00 6.3 C 6.29 g/m*3 5.1 C 6.4 km/h
2320 30-01-2020 02:35:00 6.3 C 6.29 g/m*3 5.1 C 6.4 km/h
2321 30-01-2020 02:40:00 6.2 C 6.32 g/m*3 4.98 C 6.4 km/h
2322 30-01-2020 02:45:00 6.2 C 6.32 g/m*3 6.2 C 1.6 km/h
2323 30-01-2020 02:50:00 6.2 C 6.32 g/m*3 6.2 C 1.6 km/h
2324 30-01-2020 02:55:00 6.1 C 6.28 g/m*3 6.1 C 1.6 km/h
2325 30-01-2020 03:00:00 6.1 C 6.28 g/m*3 6.1 C 1.6 km/h
Sensor: Nr:Datum:Temp:Abs-Feuchte:Windchill:Wind:
Aussen-T/F 2326 30-01-2020 03:05:00 6.1 C 6.36 g/m*3 6.1 C 4.8 km/h
2327 30-01-2020 03:10:00 6.1 C 6.36 g/m*3 4.86 C 6.4 km/h
2328 30-01-2020 03:15:00 6.1 C 6.36 g/m*3 6.1 C 4.8 km/h
2329 30-01-2020 03:20:00 6 C 6.31 g/m*3 6 C 3.2 km/h
2330 30-01-2020 03:25:00 6.1 C 6.36 g/m*3 4.04 C 9.7 km/h
2331 30-01-2020 03:30:00 6.2 C 6.4 g/m*3 3.56 C 12.9 km/h
2332 30-01-2020 03:35:00 6.3 C 6.44 g/m*3 4.27 C 9.7 km/h
2333 30-01-2020 03:40:00 6.3 C 6.37 g/m*3 6.3 C 4.8 km/h
2334 30-01-2020 03:45:00 6.3 C 6.37 g/m*3 3.96 C 11.3 km/h
2335 30-01-2020 03:50:00 6.4 C 6.41 g/m*3 3.8 C 12.9 km/h
2336 30-01-2020 03:55:00 6.4 C 6.41 g/m*3 3.55 C 14.5 km/h
2337 30-01-2020 04:00:00 6.4 C 6.33 g/m*3 4.08 C 11.3 km/h
2338 30-01-2020 04:05:00 6.4 C 6.41 g/m*3 3.32 C 16.1 km/h
2339 30-01-2020 04:10:00 6.4 C 6.41 g/m*3 4.39 C 9.7 km/h
2340 30-01-2020 04:15:00 6.3 C 6.29 g/m*3 6.3 C 4.8 km/h
2341 30-01-2020 04:20:00 6.2 C 6.32 g/m*3 3.84 C 11.3 km/h
2342 30-01-2020 04:25:00 6.2 C 6.32 g/m*3 3.56 C 12.9 km/h
2343 30-01-2020 04:30:00 6.2 C 6.32 g/m*3 3.56 C 12.9 km/h
2344 30-01-2020 04:35:00 6.2 C 6.32 g/m*3 4.15 C 9.7 km/h
2345 30-01-2020 04:40:00 6.1 C 6.36 g/m*3 3.72 C 11.3 km/h
2346 30-01-2020 04:45:00 5.9 C 6.2 g/m*3 3.48 C 11.3 km/h
2347 30-01-2020 04:50:00 5.8 C 6.23 g/m*3 3.07 C 12.9 km/h
2348 30-01-2020 04:55:00 5.7 C 6.19 g/m*3 2.95 C 12.9 km/h
2349 30-01-2020 05:00:00 5.6 C 6.15 g/m*3 3.81 C 8.1 km/h
2350 30-01-2020 05:05:00 5.6 C 6.22 g/m*3 3.81 C 8.1 km/h
Sensor: Nr:Datum:Temp:Abs-Feuchte:Windchill:Wind:
Aussen-T/F 2351 30-01-2020 05:10:00 5.5 C 6.18 g/m*3 2.44 C 14.5 km/h
2352 30-01-2020 05:15:00 5.5 C 6.18 g/m*3 3.7 C 8.1 km/h
2353 30-01-2020 05:20:00 5.4 C 6.21 g/m*3 3.2 C 9.7 km/h
2354 30-01-2020 05:25:00 5.4 C 6.21 g/m*3 3.58 C 8.1 km/h
2355 30-01-2020 05:30:00 5.4 C 6.21 g/m*3 3.2 C 9.7 km/h
2356 30-01-2020 05:35:00 5.4 C 6.21 g/m*3 2.87 C 11.3 km/h
2357 30-01-2020 05:40:00 5.3 C 6.17 g/m*3 3.08 C 9.7 km/h
2358 30-01-2020 05:45:00 5.3 C 6.17 g/m*3 3.08 C 9.7 km/h
2359 30-01-2020 05:50:00 5.3 C 6.17 g/m*3 1.96 C 16.1 km/h
2360 30-01-2020 05:55:00 5.4 C 6.21 g/m*3 2.32 C 14.5 km/h
2361 30-01-2020 06:00:00 5.4 C 6.21 g/m*3 3.58 C 8.1 km/h
2362 30-01-2020 06:05:00 5.3 C 6.17 g/m*3 2.75 C 11.3 km/h
2363 30-01-2020 06:10:00 5.3 C 6.17 g/m*3 3.08 C 9.7 km/h
2364 30-01-2020 06:15:00 5.3 C 6.17 g/m*3 3.08 C 9.7 km/h
2365 30-01-2020 06:20:00 5.3 C 6.17 g/m*3 3.46 C 8.1 km/h
2366 30-01-2020 06:25:00 5.3 C 6.17 g/m*3 3.08 C 9.7 km/h
2367 30-01-2020 06:30:00 5.3 C 6.17 g/m*3 3.46 C 8.1 km/h
2368 30-01-2020 06:35:00 5.4 C 6.21 g/m*3 2.87 C 11.3 km/h
2369 30-01-2020 06:40:00 5.4 C 6.21 g/m*3 1.86 C 17.7 km/h
2370 30-01-2020 06:45:00 5.4 C 6.14 g/m*3 2.58 C 12.9 km/h
2371 30-01-2020 06:50:00 5.4 C 6.14 g/m*3 2.87 C 11.3 km/h
2372 30-01-2020 06:55:00 5.4 C 6.14 g/m*3 2.32 C 14.5 km/h
2373 30-01-2020 07:00:00 5.4 C 6.14 g/m*3 3.2 C 9.7 km/h
2374 30-01-2020 07:05:00 5.3 C 6.1 g/m*3 1.96 C 16.1 km/h
2375 30-01-2020 07:10:00 5.4 C 6.14 g/m*3 2.58 C 12.9 km/h
Sensor: Nr:Datum:Temp:Abs-Feuchte:Windchill:Wind:
Aussen-T/F 2376 30-01-2020 07:15:00 5.4 C 6.14 g/m*3 3.58 C 8.1 km/h
2377 30-01-2020 07:20:00 5.5 C 6.18 g/m*3 2.99 C 11.3 km/h
2378 30-01-2020 07:25:00 5.7 C 6.26 g/m*3 2.95 C 12.9 km/h
2379 30-01-2020 07:30:00 5.7 C 6.19 g/m*3 2.45 C 16.1 km/h
2380 30-01-2020 07:35:00 5.7 C 6.19 g/m*3 3.56 C 9.7 km/h
2381 30-01-2020 07:40:00 5.6 C 6.15 g/m*3 3.44 C 9.7 km/h
2382 30-01-2020 07:45:00 5.5 C 6.04 g/m*3 5.5 C 1.6 km/h
2383 30-01-2020 07:50:00 5.3 C 6.03 g/m*3 3.46 C 8.1 km/h
2384 30-01-2020 07:55:00 5.2 C 6.06 g/m*3 3.82 C 6.4 km/h
2385 30-01-2020 08:00:00 5.2 C 6.06 g/m*3 5.2 C 4.8 km/h
2386 30-01-2020 08:05:00 5.2 C 6.06 g/m*3 3.34 C 8.1 km/h
2387 30-01-2020 08:10:00 5.3 C 6.1 g/m*3 5.3 C 0 km/h
2388 30-01-2020 08:15:00 5.2 C 6.06 g/m*3 5.2 C 0 km/h
2389 30-01-2020 08:20:00 5.2 C 6.13 g/m*3 5.2 C 0 km/h
2390 30-01-2020 08:25:00 5.2 C 6.13 g/m*3 5.2 C 0 km/h
2391 30-01-2020 08:30:00 5.1 C 6.09 g/m*3 5.1 C 0 km/h
2392 30-01-2020 08:35:00 5.1 C 6.16 g/m*3 5.1 C 0 km/h
2393 30-01-2020 08:40:00 5.2 C 6.2 g/m*3 5.2 C 0 km/h
2394 30-01-2020 08:45:00 5.2 C 6.2 g/m*3 5.2 C 4.8 km/h
2395 30-01-2020 08:50:00 5.4 C 6.28 g/m*3 5.4 C 4.8 km/h
2396 30-01-2020 08:55:00 5.5 C 6.32 g/m*3 3.7 C 8.1 km/h
2397 30-01-2020 09:00:00 5.7 C 6.33 g/m*3 5.7 C 3.2 km/h
2398 30-01-2020 09:05:00 5.8 C 6.38 g/m*3 5.8 C 4.8 km/h
2399 30-01-2020 09:10:00 5.9 C 6.35 g/m*3 5.9 C 3.2 km/h
2400 30-01-2020 09:15:00 5.9 C 6.35 g/m*3 5.9 C 1.6 km/h
Sensor: Nr:Datum:Temp:Abs-Feuchte:Windchill:Wind:
Aussen-T/F 2401 30-01-2020 09:20:00 6 C 6.39 g/m*3 6 C 1.6 km/h
2402 30-01-2020 09:25:00 6.1 C 6.43 g/m*3 6.1 C 0 km/h
2403 30-01-2020 09:30:00 6.1 C 6.43 g/m*3 6.1 C 1.6 km/h
2404 30-01-2020 09:35:00 6.1 C 6.43 g/m*3 6.1 C 3.2 km/h
2405 30-01-2020 09:40:00 6.2 C 6.47 g/m*3 6.2 C 1.6 km/h
2406 30-01-2020 09:45:00 6.2 C 6.47 g/m*3 6.2 C 1.6 km/h
2407 30-01-2020 09:50:00 6.2 C 6.47 g/m*3 3.07 C 16.1 km/h
2408 30-01-2020 09:55:00 6.4 C 6.56 g/m*3 4.39 C 9.7 km/h
2409 30-01-2020 10:00:00 6.5 C 6.52 g/m*3 3.67 C 14.5 km/h
2410 30-01-2020 10:05:00 6.7 C 6.53 g/m*3 5.11 C 8.1 km/h
2411 30-01-2020 10:10:00 6.8 C 6.58 g/m*3 5.67 C 6.4 km/h
2412 30-01-2020 10:15:00 6.8 C 6.58 g/m*3 4.87 C 9.7 km/h
2413 30-01-2020 10:20:00 6.9 C 6.62 g/m*3 5.79 C 6.4 km/h
2414 30-01-2020 10:25:00 7 C 6.66 g/m*3 5.9 C 6.4 km/h
2415 30-01-2020 10:30:00 7.1 C 6.63 g/m*3 5.23 C 9.7 km/h
2416 30-01-2020 10:35:00 7.2 C 6.67 g/m*3 4.31 C 16.1 km/h
2417 30-01-2020 10:40:00 7.2 C 6.67 g/m*3 4.31 C 16.1 km/h
2418 30-01-2020 10:45:00 7.2 C 6.75 g/m*3 4.77 C 12.9 km/h
2419 30-01-2020 10:50:00 7.3 C 6.79 g/m*3 5.16 C 11.3 km/h
2420 30-01-2020 10:55:00 7.3 C 6.79 g/m*3 5.81 C 8.1 km/h
2421 30-01-2020 11:00:00 7.3 C 6.79 g/m*3 5.16 C 11.3 km/h
2422 30-01-2020 11:05:00 7.4 C 6.84 g/m*3 5.93 C 8.1 km/h
2423 30-01-2020 11:10:00 7.4 C 6.84 g/m*3 5.02 C 12.9 km/h
2424 30-01-2020 11:15:00 7.5 C 6.88 g/m*3 4.48 C 17.7 km/h
2425 30-01-2020 11:20:00 7.6 C 6.93 g/m*3 5.82 C 9.7 km/h
Sensor: Nr:Datum:Temp:Abs-Feuchte:Windchill:Wind:
Aussen-T/F 2426 30-01-2020 11:25:00 7.7 C 6.97 g/m*3 5.65 C 11.3 km/h
2427 30-01-2020 11:30:00 7.8 C 7.02 g/m*3 6.06 C 9.7 km/h
2428 30-01-2020 11:35:00 7.9 C 7.06 g/m*3 6.18 C 9.7 km/h
2429 30-01-2020 11:40:00 8.1 C 7.07 g/m*3 6.13 C 11.3 km/h
2430 30-01-2020 11:45:00 8.2 C 7.12 g/m*3 6.54 C 9.7 km/h
2431 30-01-2020 11:50:00 8.2 C 7.12 g/m*3 7.29 C 6.4 km/h
2432 30-01-2020 11:55:00 8.3 C 7.16 g/m*3 5.68 C 16.1 km/h
2433 30-01-2020 12:00:00 8.3 C 7.16 g/m*3 5.89 C 14.5 km/h
2434 30-01-2020 12:05:00 8.3 C 7.16 g/m*3 6.12 C 12.9 km/h
2435 30-01-2020 12:10:00 8.3 C 7.08 g/m*3 5.48 C 17.7 km/h
2436 30-01-2020 12:15:00 8.3 C 7.08 g/m*3 5.89 C 14.5 km/h
2437 30-01-2020 12:20:00 8.3 C 7.08 g/m*3 5.68 C 16.1 km/h
2438 30-01-2020 12:25:00 8.4 C 7.13 g/m*3 5.8 C 16.1 km/h
2439 30-01-2020 12:30:00 8.4 C 7.13 g/m*3 5.8 C 16.1 km/h
2440 30-01-2020 12:35:00 8.6 C 7.22 g/m*3 5.52 C 20.9 km/h
2441 30-01-2020 12:40:00 8.7 C 7.18 g/m*3 5.65 C 20.9 km/h
2442 30-01-2020 12:45:00 8.8 C 7.22 g/m*3 6.97 C 11.3 km/h
2443 30-01-2020 12:50:00 8.9 C 7.18 g/m*3 6.62 C 14.5 km/h
2444 30-01-2020 12:55:00 9.1 C 7.28 g/m*3 6.48 C 17.7 km/h
2445 30-01-2020 13:00:00 9.1 C 7.28 g/m*3 6.87 C 14.5 km/h
2446 30-01-2020 13:05:00 9.2 C 7.23 g/m*3 6.79 C 16.1 km/h
2447 30-01-2020 13:10:00 9.3 C 7.28 g/m*3 7.58 C 11.3 km/h
2448 30-01-2020 13:15:00 9.4 C 7.33 g/m*3 7.24 C 14.5 km/h
2449 30-01-2020 13:20:00 9.5 C 7.28 g/m*3 7.16 C 16.1 km/h
2450 30-01-2020 13:25:00 9.6 C 7.24 g/m*3 8.21 C 9.7 km/h
Sensor: Nr:Datum:Temp:Abs-Feuchte:Windchill:Wind:
Aussen-T/F 2451 30-01-2020 13:30:00 9.7 C 7.19 g/m*3 7.41 C 16.1 km/h
2452 30-01-2020 13:35:00 9.7 C 7.19 g/m*3 8.06 C 11.3 km/h
2453 30-01-2020 13:40:00 9.8 C 7.24 g/m*3 8.45 C 9.7 km/h
2454 30-01-2020 13:45:00 9.8 C 7.14 g/m*3 8.18 C 11.3 km/h
2455 30-01-2020 13:50:00 9.9 C 7.19 g/m*3 8.87 C 8.1 km/h
2456 30-01-2020 13:55:00 10 C 7.24 g/m*3 9.37 C 6.4 km/h
2457 30-01-2020 14:00:00 10.1 C 7.19 g/m*3 10.1 C 1.6 km/h
2458 30-01-2020 14:05:00 10.1 C 7.19 g/m*3 10.1 C 1.6 km/h
2459 30-01-2020 14:10:00 10.2 C 7.23 g/m*3 10.2 C 3.2 km/h
2460 30-01-2020 14:15:00 10.2 C 7.23 g/m*3 10.2 C 4.8 km/h
2461 30-01-2020 14:20:00 10.3 C 7.37 g/m*3 10.3 C 0 km/h
2462 30-01-2020 14:25:00 10.3 C 7.18 g/m*3 10.3 C 4.8 km/h
2463 30-01-2020 14:30:00 10.4 C 7.13 g/m*3 9.46 C 8.1 km/h
2464 30-01-2020 14:35:00 10.5 C 7.08 g/m*3 10.5 C 4.8 km/h
2465 30-01-2020 14:40:00 10.6 C 7.12 g/m*3 10.6 C 3.2 km/h
2466 30-01-2020 14:45:00 10.6 C 7.22 g/m*3 10.6 C 1.6 km/h
2467 30-01-2020 14:50:00 10.7 C 7.17 g/m*3 10.7 C 0 km/h
2468 30-01-2020 14:55:00 10.7 C 7.17 g/m*3 10.7 C 0 km/h
2469 30-01-2020 15:00:00 10.7 C 7.17 g/m*3 10.7 C 0 km/h
2470 30-01-2020 15:05:00 10.8 C 7.22 g/m*3 10.8 C 0 km/h
2471 30-01-2020 15:10:00 10.8 C 7.31 g/m*3 10.8 C 0 km/h
2472 30-01-2020 15:15:00 10.8 C 7.22 g/m*3 10.8 C 0 km/h
2473 30-01-2020 15:20:00 10.8 C 7.22 g/m*3 10.8 C 0 km/h
2474 30-01-2020 15:25:00 10.8 C 7.22 g/m*3 10.8 C 4.8 km/h
2475 30-01-2020 15:30:00 10.8 C 7.02 g/m*3 10.29 C 6.4 km/h
Sensor: Nr:Datum:Temp:Abs-Feuchte:Windchill:Wind:
Aussen-T/F 2476 30-01-2020 15:35:00 10.8 C 7.12 g/m*3 10.8 C 1.6 km/h
2477 30-01-2020 15:40:00 10.8 C 7.02 g/m*3 10.8 C 1.6 km/h
2478 30-01-2020 15:45:00 10.7 C 7.07 g/m*3 10.18 C 6.4 km/h
2479 30-01-2020 15:50:00 10.7 C 6.97 g/m*3 10.7 C 4.8 km/h
2480 30-01-2020 15:55:00 10.6 C 6.93 g/m*3 10.6 C 4.8 km/h
2481 30-01-2020 16:00:00 10.6 C 6.93 g/m*3 10.6 C 3.2 km/h
2482 30-01-2020 16:05:00 10.6 C 7.12 g/m*3 10.6 C 0 km/h
2483 30-01-2020 16:10:00 10.5 C 7.18 g/m*3 10.5 C 0 km/h
2484 30-01-2020 16:15:00 10.3 C 7.18 g/m*3 10.3 C 0 km/h
2485 30-01-2020 16:20:00 10.2 C 7.23 g/m*3 9.6 C 6.4 km/h
2486 30-01-2020 16:25:00 9.9 C 6.91 g/m*3 9.9 C 3.2 km/h
2487 30-01-2020 16:30:00 9.9 C 7 g/m*3 9.25 C 6.4 km/h
2488 30-01-2020 16:35:00 9.8 C 6.96 g/m*3 9.8 C 4.8 km/h
2489 30-01-2020 16:40:00 9.7 C 6.91 g/m*3 9.7 C 1.6 km/h
2490 30-01-2020 16:45:00 9.7 C 6.91 g/m*3 9.7 C 4.8 km/h
2491 30-01-2020 16:50:00 9.7 C 7.01 g/m*3 9.7 C 4.8 km/h
2492 30-01-2020 16:55:00 9.6 C 6.96 g/m*3 9.6 C 1.6 km/h
2493 30-01-2020 17:00:00 9.5 C 7.01 g/m*3 9.5 C 1.6 km/h
2494 30-01-2020 17:05:00 9.4 C 7.05 g/m*3 9.4 C 4.8 km/h
2495 30-01-2020 17:10:00 9.4 C 7.05 g/m*3 9.4 C 4.8 km/h
2496 30-01-2020 17:15:00 9.4 C 7.15 g/m*3 9.4 C 1.6 km/h
2497 30-01-2020 17:20:00 9.4 C 7.15 g/m*3 9.4 C 0 km/h
2498 30-01-2020 17:25:00 9.4 C 7.24 g/m*3 9.4 C 4.8 km/h
2499 30-01-2020 17:30:00 9.4 C 7.24 g/m*3 9.4 C 4.8 km/h
2500 30-01-2020 17:35:00 9.4 C 7.33 g/m*3 7.97 C 9.7 km/h
Sensor: Nr:Datum:Temp:Abs-Feuchte:Windchill:Wind:
Aussen-T/F 2501 30-01-2020 17:40:00 9.4 C 7.33 g/m*3 8.68 C 6.4 km/h
2502 30-01-2020 17:45:00 9.4 C 7.33 g/m*3 9.4 C 4.8 km/h
2503 30-01-2020 17:50:00 9.4 C 7.33 g/m*3 9.4 C 4.8 km/h
2504 30-01-2020 17:55:00 9.4 C 7.42 g/m*3 7.97 C 9.7 km/h
2505 30-01-2020 18:00:00 9.4 C 7.33 g/m*3 7.24 C 14.5 km/h
2506 30-01-2020 18:05:00 9.5 C 7.37 g/m*3 8.4 C 8.1 km/h
2507 30-01-2020 18:10:00 9.5 C 7.46 g/m*3 7.58 C 12.9 km/h
2508 30-01-2020 18:15:00 9.6 C 7.51 g/m*3 9.6 C 1.6 km/h
2509 30-01-2020 18:20:00 9.6 C 7.51 g/m*3 7.48 C 14.5 km/h
2510 30-01-2020 18:25:00 9.6 C 7.51 g/m*3 9.6 C 4.8 km/h
2511 30-01-2020 18:30:00 9.6 C 7.51 g/m*3 8.21 C 9.7 km/h
2512 30-01-2020 18:35:00 9.6 C 7.51 g/m*3 9.6 C 4.8 km/h
2513 30-01-2020 18:40:00 9.6 C 7.51 g/m*3 9.6 C 4.8 km/h
2514 30-01-2020 18:45:00 9.6 C 7.51 g/m*3 9.6 C 3.2 km/h
2515 30-01-2020 18:50:00 9.6 C 7.69 g/m*3 9.6 C 4.8 km/h
2516 30-01-2020 18:55:00 9.6 C 7.69 g/m*3 8.52 C 8.1 km/h
2517 30-01-2020 19:00:00 9.6 C 7.79 g/m*3 8.21 C 9.7 km/h
2518 30-01-2020 19:05:00 9.4 C 7.87 g/m*3 8.28 C 8.1 km/h
2519 30-01-2020 19:10:00 9.4 C 7.87 g/m*3 9.4 C 1.6 km/h
2520 30-01-2020 19:15:00 9.3 C 7.91 g/m*3 8.56 C 6.4 km/h
2521 30-01-2020 19:20:00 9.3 C 7.91 g/m*3 9.3 C 4.8 km/h
2522 30-01-2020 19:25:00 9.2 C 7.95 g/m*3 7.73 C 9.7 km/h
2523 30-01-2020 19:30:00 9.2 C 7.95 g/m*3 9.2 C 1.6 km/h
2524 30-01-2020 19:35:00 9.2 C 7.95 g/m*3 8.45 C 6.4 km/h
2525 30-01-2020 19:40:00 9.2 C 7.95 g/m*3 7.46 C 11.3 km/h
Sensor: Nr:Datum:Temp:Abs-Feuchte:Windchill:Wind:
Aussen-T/F 2526 30-01-2020 19:45:00 9.2 C 7.95 g/m*3 6.79 C 16.1 km/h
2527 30-01-2020 19:50:00 9.3 C 8 g/m*3 7.58 C 11.3 km/h
2528 30-01-2020 19:55:00 9.3 C 8 g/m*3 7.58 C 11.3 km/h
2529 30-01-2020 20:00:00 9.4 C 8.05 g/m*3 7.24 C 14.5 km/h
2530 30-01-2020 20:05:00 9.6 C 8.06 g/m*3 7.48 C 14.5 km/h
2531 30-01-2020 20:10:00 9.6 C 8.06 g/m*3 7.7 C 12.9 km/h
2532 30-01-2020 20:15:00 9.7 C 8.11 g/m*3 7.82 C 12.9 km/h
2533 30-01-2020 20:20:00 9.7 C 8.11 g/m*3 8.33 C 9.7 km/h
2534 30-01-2020 20:25:00 9.7 C 8.11 g/m*3 8.33 C 9.7 km/h
2535 30-01-2020 20:30:00 9.8 C 8.16 g/m*3 6.89 C 22.5 km/h
2536 30-01-2020 20:35:00 9.8 C 8.16 g/m*3 8.75 C 8.1 km/h
2537 30-01-2020 20:40:00 9.8 C 8.16 g/m*3 8.18 C 11.3 km/h
2538 30-01-2020 20:45:00 9.8 C 8.16 g/m*3 8.45 C 9.7 km/h
2539 30-01-2020 20:50:00 9.9 C 8.22 g/m*3 7.66 C 16.1 km/h
2540 30-01-2020 20:55:00 9.9 C 8.22 g/m*3 6.76 C 25.7 km/h
2541 30-01-2020 21:00:00 10 C 8.27 g/m*3 7.98 C 14.5 km/h
2542 30-01-2020 21:05:00 10.1 C 8.32 g/m*3 8.1 C 14.5 km/h
2543 30-01-2020 21:10:00 10.1 C 8.32 g/m*3 8.31 C 12.9 km/h
2544 30-01-2020 21:15:00 10.1 C 8.32 g/m*3 8.31 C 12.9 km/h
2545 30-01-2020 21:20:00 10.1 C 8.32 g/m*3 8.1 C 14.5 km/h
2546 30-01-2020 21:25:00 10.1 C 8.32 g/m*3 7.91 C 16.1 km/h
2547 30-01-2020 21:30:00 10.2 C 8.37 g/m*3 8.22 C 14.5 km/h
2548 30-01-2020 21:35:00 10.2 C 8.37 g/m*3 8.66 C 11.3 km/h
2549 30-01-2020 21:40:00 10.2 C 8.37 g/m*3 8.43 C 12.9 km/h
2550 30-01-2020 21:45:00 10.2 C 8.47 g/m*3 7.54 C 20.9 km/h
Sensor: Nr:Datum:Temp:Abs-Feuchte:Windchill:Wind:
Aussen-T/F 2551 30-01-2020 21:50:00 10.3 C 8.52 g/m*3 8.16 C 16.1 km/h
2552 30-01-2020 21:55:00 10.3 C 8.52 g/m*3 7.98 C 17.7 km/h
2553 30-01-2020 22:00:00 10.4 C 8.58 g/m*3 8.28 C 16.1 km/h
2554 30-01-2020 22:05:00 10.4 C 8.58 g/m*3 8.11 C 17.7 km/h
2555 30-01-2020 22:10:00 10.5 C 8.63 g/m*3 7.65 C 24.1 km/h
2556 30-01-2020 22:15:00 10.6 C 8.69 g/m*3 7.78 C 24.1 km/h
2557 30-01-2020 22:20:00 10.6 C 8.69 g/m*3 7.78 C 24.1 km/h
2558 30-01-2020 22:25:00 10.6 C 8.69 g/m*3 8.36 C 17.7 km/h
2559 30-01-2020 22:30:00 10.6 C 8.69 g/m*3 8.53 C 16.1 km/h
2560 30-01-2020 22:35:00 10.6 C 8.69 g/m*3 8.05 C 20.9 km/h
2561 30-01-2020 22:40:00 10.6 C 8.69 g/m*3 8.71 C 14.5 km/h
2562 30-01-2020 22:45:00 10.6 C 8.69 g/m*3 8.71 C 14.5 km/h
2563 30-01-2020 22:50:00 10.7 C 8.84 g/m*3 8.48 C 17.7 km/h
2564 30-01-2020 22:55:00 10.7 C 8.84 g/m*3 8.04 C 22.5 km/h
2565 30-01-2020 23:00:00 10.8 C 8.9 g/m*3 9.16 C 12.9 km/h
2566 30-01-2020 23:05:00 10.8 C 8.9 g/m*3 9.64 C 9.7 km/h
2567 30-01-2020 23:10:00 10.8 C 8.9 g/m*3 9.16 C 12.9 km/h
2568 30-01-2020 23:15:00 10.8 C 8.9 g/m*3 9.64 C 9.7 km/h
2569 30-01-2020 23:20:00 10.9 C 8.95 g/m*3 9.08 C 14.5 km/h
2570 30-01-2020 23:25:00 10.9 C 8.95 g/m*3 9.28 C 12.9 km/h
2571 30-01-2020 23:30:00 11 C 9.11 g/m*3 9.4 C 12.9 km/h
2572 30-01-2020 23:35:00 11.1 C 9.17 g/m*3 11.1 C 14.5 km/h
2573 30-01-2020 23:40:00 11.1 C 9.17 g/m*3 11.1 C 19.3 km/h
2574 30-01-2020 23:45:00 11.3 C 9.18 g/m*3 11.3 C 16.1 km/h
2575 30-01-2020 23:50:00 11.3 C 9.18 g/m*3 11.3 C 9.7 km/h
Sensor: Nr:Datum:Temp:Abs-Feuchte:Windchill:Wind:
Aussen-T/F 2576 30-01-2020 23:55:00 11.3 C 9.18 g/m*3 11.3 C 16.1 km/h
2577 31-01-2020 00:00:00 11.4 C 9.24 g/m*3 11.4 C 16.1 km/h
2578 31-01-2020 00:05:00 11.5 C 9.3 g/m*3 11.5 C 11.3 km/h
2579 31-01-2020 00:10:00 11.6 C 9.35 g/m*3 11.6 C 16.1 km/h
2580 31-01-2020 00:15:00 11.7 C 9.41 g/m*3 11.7 C 16.1 km/h
2581 31-01-2020 00:20:00 11.8 C 9.47 g/m*3 11.8 C 20.9 km/h
2582 31-01-2020 00:25:00 11.8 C 9.47 g/m*3 11.8 C 11.3 km/h
2583 31-01-2020 00:30:00 11.9 C 9.53 g/m*3 11.9 C 17.7 km/h
2584 31-01-2020 00:35:00 11.9 C 9.53 g/m*3 11.9 C 11.3 km/h
2585 31-01-2020 00:40:00 12.1 C 9.65 g/m*3 12.1 C 20.9 km/h
2586 31-01-2020 00:45:00 12.1 C 9.54 g/m*3 12.1 C 12.9 km/h
2587 31-01-2020 00:50:00 12.2 C 9.6 g/m*3 12.2 C 9.7 km/h
2588 31-01-2020 00:55:00 12.2 C 9.6 g/m*3 12.2 C 11.3 km/h
2589 31-01-2020 01:00:00 12.3 C 9.66 g/m*3 12.3 C 12.9 km/h
2590 31-01-2020 01:05:00 12.3 C 9.66 g/m*3 12.3 C 9.7 km/h
2591 31-01-2020 01:10:00 12.4 C 9.83 g/m*3 12.4 C 16.1 km/h
2592 31-01-2020 01:15:00 12.6 C 9.85 g/m*3 12.6 C 24.1 km/h
2593 31-01-2020 01:20:00 12.6 C 9.85 g/m*3 12.6 C 9.7 km/h
2594 31-01-2020 01:25:00 12.7 C 9.91 g/m*3 12.7 C 19.3 km/h
2595 31-01-2020 01:30:00 12.7 C 9.91 g/m*3 12.7 C 16.1 km/h
2596 31-01-2020 01:35:00 12.8 C 9.97 g/m*3 12.8 C 25.7 km/h
2597 31-01-2020 01:40:00 12.9 C 10.03 g/m*3 12.9 C 20.9 km/h
2598 31-01-2020 01:45:00 12.9 C 10.03 g/m*3 12.9 C 20.9 km/h
2599 31-01-2020 01:50:00 13.1 C 10.04 g/m*3 13.1 C 30.6 km/h
2600 31-01-2020 01:55:00 13.1 C 10.04 g/m*3 13.1 C 24.1 km/h
Sensor: Nr:Datum:Temp:Abs-Feuchte:Windchill:Wind:
Aussen-T/F 2601 31-01-2020 02:00:00 13.1 C 10.04 g/m*3 13.1 C 25.7 km/h
2602 31-01-2020 02:05:00 13.1 C 10.04 g/m*3 13.1 C 20.9 km/h
2603 31-01-2020 02:10:00 13.1 C 10.04 g/m*3 13.1 C 20.9 km/h
2604 31-01-2020 02:15:00 13.2 C 10.1 g/m*3 13.2 C 20.9 km/h
2605 31-01-2020 02:20:00 13.2 C 10.1 g/m*3 13.2 C 25.7 km/h
2606 31-01-2020 02:25:00 13.2 C 9.99 g/m*3 13.2 C 14.5 km/h
2607 31-01-2020 02:30:00 13.3 C 10.05 g/m*3 13.3 C 24.1 km/h
2608 31-01-2020 02:35:00 13.3 C 10.05 g/m*3 13.3 C 22.5 km/h
2609 31-01-2020 02:40:00 13.3 C 10.05 g/m*3 13.3 C 25.7 km/h
2610 31-01-2020 02:45:00 13.3 C 10.05 g/m*3 13.3 C 17.7 km/h
2611 31-01-2020 02:50:00 13.3 C 10.05 g/m*3 13.3 C 33.8 km/h
2612 31-01-2020 02:55:00 13.3 C 10.05 g/m*3 13.3 C 14.5 km/h
2613 31-01-2020 03:00:00 13.3 C 10.05 g/m*3 13.3 C 17.7 km/h
2614 31-01-2020 03:05:00 13.2 C 9.99 g/m*3 13.2 C 16.1 km/h
2615 31-01-2020 03:10:00 13.3 C 10.05 g/m*3 13.3 C 17.7 km/h
2616 31-01-2020 03:15:00 13.3 C 10.05 g/m*3 13.3 C 16.1 km/h
2617 31-01-2020 03:20:00 13.3 C 10.05 g/m*3 13.3 C 9.7 km/h
2618 31-01-2020 03:25:00 13.2 C 9.99 g/m*3 13.2 C 11.3 km/h
2619 31-01-2020 03:30:00 13.2 C 9.99 g/m*3 13.2 C 12.9 km/h
2620 31-01-2020 03:35:00 13.2 C 9.99 g/m*3 13.2 C 11.3 km/h
2621 31-01-2020 03:40:00 13.2 C 9.99 g/m*3 13.2 C 8.1 km/h
2622 31-01-2020 03:45:00 13.2 C 10.1 g/m*3 13.2 C 17.7 km/h
2623 31-01-2020 03:50:00 13.2 C 10.1 g/m*3 13.2 C 9.7 km/h
2624 31-01-2020 03:55:00 13.2 C 10.1 g/m*3 13.2 C 4.8 km/h
2625 31-01-2020 04:00:00 13.2 C 10.1 g/m*3 13.2 C 12.9 km/h
Sensor: Nr:Datum:Temp:Abs-Feuchte:Windchill:Wind:
Aussen-T/F 2626 31-01-2020 04:05:00 13.2 C 10.1 g/m*3 13.2 C 12.9 km/h
2627 31-01-2020 04:10:00 13.2 C 10.1 g/m*3 13.2 C 12.9 km/h
2628 31-01-2020 04:15:00 13.2 C 10.1 g/m*3 13.2 C 9.7 km/h
2629 31-01-2020 04:20:00 13.1 C 10.04 g/m*3 13.1 C 12.9 km/h
2630 31-01-2020 04:25:00 13.1 C 10.04 g/m*3 13.1 C 11.3 km/h
2631 31-01-2020 04:30:00 13.1 C 10.04 g/m*3 13.1 C 17.7 km/h
2632 31-01-2020 04:35:00 13.1 C 10.04 g/m*3 13.1 C 9.7 km/h
2633 31-01-2020 04:40:00 13.1 C 10.04 g/m*3 13.1 C 8.1 km/h
2634 31-01-2020 04:45:00 13.1 C 10.04 g/m*3 13.1 C 16.1 km/h
2635 31-01-2020 04:50:00 13 C 9.98 g/m*3 13 C 6.4 km/h
2636 31-01-2020 04:55:00 13 C 9.98 g/m*3 13 C 11.3 km/h
2637 31-01-2020 05:00:00 13 C 10.09 g/m*3 13 C 11.3 km/h
2638 31-01-2020 05:05:00 13 C 9.98 g/m*3 13 C 11.3 km/h
2639 31-01-2020 05:10:00 13 C 9.98 g/m*3 13 C 11.3 km/h
2640 31-01-2020 05:15:00 13 C 9.98 g/m*3 13 C 9.7 km/h
2641 31-01-2020 05:20:00 13 C 9.98 g/m*3 13 C 3.2 km/h
2642 31-01-2020 05:25:00 12.9 C 9.92 g/m*3 12.9 C 8.1 km/h
2643 31-01-2020 05:30:00 12.9 C 9.92 g/m*3 12.9 C 1.6 km/h
2644 31-01-2020 05:35:00 12.9 C 9.92 g/m*3 12.9 C 9.7 km/h
2645 31-01-2020 05:40:00 12.9 C 9.92 g/m*3 12.9 C 14.5 km/h
2646 31-01-2020 05:45:00 12.9 C 9.92 g/m*3 12.9 C 9.7 km/h
2647 31-01-2020 05:50:00 12.9 C 9.92 g/m*3 12.9 C 11.3 km/h
2648 31-01-2020 05:55:00 12.9 C 9.92 g/m*3 12.9 C 6.4 km/h
2649 31-01-2020 06:00:00 12.9 C 9.92 g/m*3 12.9 C 11.3 km/h
2650 31-01-2020 06:05:00 12.9 C 9.92 g/m*3 12.9 C 11.3 km/h
Sensor: Nr:Datum:Temp:Abs-Feuchte:Windchill:Wind:
Aussen-T/F 2651 31-01-2020 06:10:00 12.9 C 9.92 g/m*3 12.9 C 9.7 km/h
2652 31-01-2020 06:15:00 13 C 9.87 g/m*3 13 C 9.7 km/h
2653 31-01-2020 06:20:00 13 C 9.87 g/m*3 13 C 4.8 km/h
2654 31-01-2020 06:25:00 12.9 C 9.81 g/m*3 12.9 C 3.2 km/h
2655 31-01-2020 06:30:00 12.9 C 9.81 g/m*3 12.9 C 6.4 km/h
2656 31-01-2020 06:35:00 12.8 C 9.74 g/m*3 12.8 C 6.4 km/h
2657 31-01-2020 06:40:00 12.8 C 9.86 g/m*3 12.8 C 8.1 km/h
2658 31-01-2020 06:45:00 12.8 C 9.86 g/m*3 12.8 C 3.2 km/h
2659 31-01-2020 06:50:00 12.7 C 9.8 g/m*3 12.7 C 4.8 km/h
2660 31-01-2020 06:55:00 12.7 C 9.8 g/m*3 12.7 C 6.4 km/h
2661 31-01-2020 07:00:00 12.6 C 9.74 g/m*3 12.6 C 4.8 km/h
2662 31-01-2020 07:05:00 12.6 C 9.74 g/m*3 12.6 C 4.8 km/h
2663 31-01-2020 07:10:00 12.6 C 9.74 g/m*3 12.6 C 1.6 km/h
2664 31-01-2020 07:15:00 12.5 C 9.68 g/m*3 12.5 C 1.6 km/h
2665 31-01-2020 07:20:00 12.4 C 9.62 g/m*3 12.4 C 4.8 km/h
2666 31-01-2020 07:25:00 12.4 C 9.62 g/m*3 12.4 C 3.2 km/h
2667 31-01-2020 07:30:00 12.4 C 9.72 g/m*3 12.4 C 6.4 km/h
2668 31-01-2020 07:35:00 12.4 C 9.62 g/m*3 12.4 C 8.1 km/h
2669 31-01-2020 07:40:00 12.4 C 9.62 g/m*3 12.4 C 9.7 km/h
2670 31-01-2020 07:45:00 12.5 C 9.68 g/m*3 12.5 C 6.4 km/h
2671 31-01-2020 07:50:00 12.5 C 9.68 g/m*3 12.5 C 8.1 km/h
2672 31-01-2020 07:55:00 12.6 C 9.74 g/m*3 12.6 C 6.4 km/h
2673 31-01-2020 08:00:00 12.6 C 9.74 g/m*3 12.6 C 3.2 km/h
2674 31-01-2020 08:05:00 12.6 C 9.74 g/m*3 12.6 C 6.4 km/h
2675 31-01-2020 08:10:00 12.6 C 9.74 g/m*3 12.6 C 8.1 km/h
Sensor: Nr:Datum:Temp:Abs-Feuchte:Windchill:Wind:
Aussen-T/F 2676 31-01-2020 08:15:00 12.6 C 9.74 g/m*3 12.6 C 8.1 km/h
2677 31-01-2020 08:20:00 12.6 C 9.62 g/m*3 12.6 C 6.4 km/h
2678 31-01-2020 08:25:00 12.6 C 9.62 g/m*3 12.6 C 6.4 km/h
2679 31-01-2020 08:30:00 12.7 C 9.68 g/m*3 12.7 C 11.3 km/h
2680 31-01-2020 08:35:00 12.7 C 9.68 g/m*3 12.7 C 8.1 km/h
2681 31-01-2020 08:40:00 12.7 C 9.68 g/m*3 12.7 C 8.1 km/h
2682 31-01-2020 08:45:00 12.7 C 9.68 g/m*3 12.7 C 6.4 km/h
2683 31-01-2020 08:50:00 12.8 C 9.74 g/m*3 12.8 C 8.1 km/h
2684 31-01-2020 08:55:00 12.8 C 9.74 g/m*3 12.8 C 11.3 km/h
2685 31-01-2020 09:00:00 12.8 C 9.63 g/m*3 12.8 C 8.1 km/h
2686 31-01-2020 09:05:00 12.8 C 9.63 g/m*3 12.8 C 8.1 km/h
2687 31-01-2020 09:10:00 12.9 C 9.69 g/m*3 12.9 C 11.3 km/h
2688 31-01-2020 09:15:00 12.9 C 9.69 g/m*3 12.9 C 9.7 km/h
2689 31-01-2020 09:20:00 13 C 9.64 g/m*3 13 C 12.9 km/h
2690 31-01-2020 09:25:00 13.1 C 9.7 g/m*3 13.1 C 11.3 km/h
2691 31-01-2020 09:30:00 13.1 C 9.7 g/m*3 13.1 C 19.3 km/h
2692 31-01-2020 09:35:00 13.2 C 9.76 g/m*3 13.2 C 12.9 km/h
2693 31-01-2020 09:40:00 13.2 C 9.76 g/m*3 13.2 C 8.1 km/h
2694 31-01-2020 09:45:00 13.3 C 9.82 g/m*3 13.3 C 12.9 km/h
2695 31-01-2020 09:50:00 13.3 C 9.7 g/m*3 13.3 C 14.5 km/h
2696 31-01-2020 09:55:00 13.3 C 9.7 g/m*3 13.3 C 9.7 km/h
2697 31-01-2020 10:00:00 13.4 C 9.76 g/m*3 13.4 C 12.9 km/h
2698 31-01-2020 10:05:00 13.3 C 9.7 g/m*3 13.3 C 16.1 km/h
2699 31-01-2020 10:10:00 13.3 C 9.59 g/m*3 13.3 C 12.9 km/h
2700 31-01-2020 10:15:00 13.4 C 9.76 g/m*3 13.4 C 11.3 km/h
Sensor: Nr:Datum:Temp:Abs-Feuchte:Windchill:Wind:
Aussen-T/F 2701 31-01-2020 10:20:00 13.4 C 9.65 g/m*3 13.4 C 11.3 km/h
2702 31-01-2020 10:25:00 13.4 C 9.65 g/m*3 13.4 C 12.9 km/h
2703 31-01-2020 10:30:00 13.5 C 9.71 g/m*3 13.5 C 12.9 km/h
2704 31-01-2020 10:35:00 13.5 C 9.71 g/m*3 13.5 C 14.5 km/h
2705 31-01-2020 10:40:00 13.6 C 9.77 g/m*3 13.6 C 14.5 km/h
2706 31-01-2020 10:45:00 13.6 C 9.65 g/m*3 13.6 C 12.9 km/h
2707 31-01-2020 10:50:00 13.6 C 9.65 g/m*3 13.6 C 11.3 km/h
2708 31-01-2020 10:55:00 13.6 C 9.65 g/m*3 13.6 C 9.7 km/h
2709 31-01-2020 11:00:00 13.6 C 9.65 g/m*3 13.6 C 16.1 km/h
2710 31-01-2020 11:05:00 13.6 C 9.53 g/m*3 13.6 C 20.9 km/h
2711 31-01-2020 11:10:00 13.7 C 9.59 g/m*3 13.7 C 12.9 km/h
2712 31-01-2020 11:15:00 13.7 C 9.59 g/m*3 13.7 C 16.1 km/h
2713 31-01-2020 11:20:00 13.7 C 9.59 g/m*3 13.7 C 12.9 km/h
2714 31-01-2020 11:25:00 13.7 C 9.59 g/m*3 13.7 C 16.1 km/h
2715 31-01-2020 11:30:00 13.8 C 9.65 g/m*3 13.8 C 14.5 km/h
2716 31-01-2020 11:35:00 13.8 C 9.65 g/m*3 13.8 C 16.1 km/h
2717 31-01-2020 11:40:00 13.8 C 9.65 g/m*3 13.8 C 12.9 km/h
2718 31-01-2020 11:45:00 13.8 C 9.53 g/m*3 13.8 C 14.5 km/h
2719 31-01-2020 11:50:00 13.8 C 9.53 g/m*3 13.8 C 17.7 km/h
2720 31-01-2020 11:55:00 13.8 C 9.41 g/m*3 13.8 C 14.5 km/h
2721 31-01-2020 12:00:00 13.7 C 9.47 g/m*3 13.7 C 16.1 km/h
2722 31-01-2020 12:05:00 13.7 C 9.47 g/m*3 13.7 C 16.1 km/h
2723 31-01-2020 12:10:00 13.7 C 9.35 g/m*3 13.7 C 12.9 km/h
2724 31-01-2020 12:15:00 13.6 C 9.3 g/m*3 13.6 C 11.3 km/h
2725 31-01-2020 12:20:00 13.6 C 9.3 g/m*3 13.6 C 22.5 km/h
Sensor: Nr:Datum:Temp:Abs-Feuchte:Windchill:Wind:
Aussen-T/F 2726 31-01-2020 12:25:00 13.7 C 9.35 g/m*3 13.7 C 14.5 km/h
2727 31-01-2020 12:30:00 13.7 C 9.35 g/m*3 13.7 C 17.7 km/h
2728 31-01-2020 12:35:00 13.8 C 9.41 g/m*3 13.8 C 19.3 km/h
2729 31-01-2020 12:40:00 13.8 C 9.41 g/m*3 13.8 C 22.5 km/h
2730 31-01-2020 12:45:00 13.9 C 9.47 g/m*3 13.9 C 17.7 km/h
2731 31-01-2020 12:50:00 14 C 9.41 g/m*3 14 C 16.1 km/h
2732 31-01-2020 12:55:00 14.1 C 9.47 g/m*3 14.1 C 20.9 km/h
2733 31-01-2020 13:00:00 14.2 C 9.52 g/m*3 14.2 C 17.7 km/h
2734 31-01-2020 13:05:00 14.2 C 9.52 g/m*3 14.2 C 11.3 km/h
2735 31-01-2020 13:10:00 14.3 C 9.58 g/m*3 14.3 C 16.1 km/h
2736 31-01-2020 13:15:00 14.3 C 9.46 g/m*3 14.3 C 25.7 km/h
2737 31-01-2020 13:20:00 14.4 C 9.52 g/m*3 14.4 C 24.1 km/h
2738 31-01-2020 13:25:00 14.4 C 9.52 g/m*3 14.4 C 27.4 km/h
2739 31-01-2020 13:30:00 14.5 C 9.58 g/m*3 14.5 C 20.9 km/h
2740 31-01-2020 13:35:00 14.6 C 9.64 g/m*3 14.6 C 14.5 km/h
2741 31-01-2020 13:40:00 14.6 C 9.64 g/m*3 14.6 C 19.3 km/h
2742 31-01-2020 13:45:00 14.5 C 9.58 g/m*3 14.5 C 17.7 km/h
2743 31-01-2020 13:50:00 14.5 C 9.58 g/m*3 14.5 C 20.9 km/h
2744 31-01-2020 13:55:00 14.4 C 9.52 g/m*3 14.4 C 14.5 km/h
2745 31-01-2020 14:00:00 14.4 C 9.64 g/m*3 14.4 C 22.5 km/h
2746 31-01-2020 14:05:00 14.4 C 9.64 g/m*3 14.4 C 16.1 km/h
2747 31-01-2020 14:10:00 14.3 C 9.58 g/m*3 14.3 C 20.9 km/h
2748 31-01-2020 14:15:00 14.3 C 9.58 g/m*3 14.3 C 12.9 km/h
2749 31-01-2020 14:20:00 14.3 C 9.58 g/m*3 14.3 C 12.9 km/h
2750 31-01-2020 14:25:00 14.3 C 9.58 g/m*3 14.3 C 16.1 km/h
Sensor: Nr:Datum:Temp:Abs-Feuchte:Windchill:Wind:
Aussen-T/F 2751 31-01-2020 14:30:00 14.3 C 9.58 g/m*3 14.3 C 17.7 km/h
2752 31-01-2020 14:35:00 14.3 C 9.71 g/m*3 14.3 C 12.9 km/h
2753 31-01-2020 14:40:00 14.3 C 9.71 g/m*3 14.3 C 12.9 km/h
2754 31-01-2020 14:45:00 14.3 C 9.71 g/m*3 14.3 C 12.9 km/h
2755 31-01-2020 14:50:00 14.3 C 9.58 g/m*3 14.3 C 11.3 km/h
2756 31-01-2020 14:55:00 14.2 C 9.52 g/m*3 14.2 C 12.9 km/h
2757 31-01-2020 15:00:00 14.2 C 9.65 g/m*3 14.2 C 9.7 km/h
2758 31-01-2020 15:05:00 14.1 C 9.47 g/m*3 14.1 C 25.7 km/h
2759 31-01-2020 15:10:00 14 C 9.41 g/m*3 14 C 17.7 km/h
2760 31-01-2020 15:15:00 13.9 C 9.47 g/m*3 13.9 C 14.5 km/h
2761 31-01-2020 15:20:00 13.8 C 9.41 g/m*3 13.8 C 14.5 km/h
2762 31-01-2020 15:25:00 13.8 C 9.41 g/m*3 13.8 C 19.3 km/h
2763 31-01-2020 15:30:00 13.7 C 9.35 g/m*3 13.7 C 17.7 km/h
2764 31-01-2020 15:35:00 13.7 C 9.35 g/m*3 13.7 C 29 km/h
2765 31-01-2020 15:40:00 13.7 C 9.47 g/m*3 13.7 C 24.1 km/h
2766 31-01-2020 15:45:00 13.6 C 9.42 g/m*3 13.6 C 12.9 km/h
2767 31-01-2020 15:50:00 13.6 C 9.42 g/m*3 13.6 C 20.9 km/h
2768 31-01-2020 15:55:00 13.4 C 9.3 g/m*3 13.4 C 20.9 km/h
2769 31-01-2020 16:00:00 13.3 C 9.36 g/m*3 13.3 C 16.1 km/h
2770 31-01-2020 16:05:00 13.2 C 9.3 g/m*3 13.2 C 17.7 km/h
2771 31-01-2020 16:10:00 13.2 C 9.3 g/m*3 13.2 C 17.7 km/h
2772 31-01-2020 16:15:00 13.1 C 9.24 g/m*3 13.1 C 14.5 km/h
2773 31-01-2020 16:20:00 13.1 C 9.13 g/m*3 13.1 C 17.7 km/h
2774 31-01-2020 16:25:00 13 C 9.07 g/m*3 13 C 24.1 km/h
2775 31-01-2020 16:30:00 13 C 9.07 g/m*3 13 C 12.9 km/h
Sensor: Nr:Datum:Temp:Abs-Feuchte:Windchill:Wind:
Aussen-T/F 2776 31-01-2020 16:35:00 12.9 C 9.13 g/m*3 12.9 C 16.1 km/h
2777 31-01-2020 16:40:00 12.9 C 9.13 g/m*3 12.9 C 12.9 km/h
2778 31-01-2020 16:45:00 12.8 C 9.07 g/m*3 12.8 C 12.9 km/h
2779 31-01-2020 16:50:00 12.8 C 9.18 g/m*3 12.8 C 8.1 km/h
2780 31-01-2020 16:55:00 12.7 C 9.13 g/m*3 12.7 C 11.3 km/h
2781 31-01-2020 17:00:00 12.8 C 9.18 g/m*3 12.8 C 16.1 km/h
2782 31-01-2020 17:05:00 12.8 C 9.07 g/m*3 12.8 C 16.1 km/h
2783 31-01-2020 17:10:00 12.7 C 9.02 g/m*3 12.7 C 16.1 km/h
2784 31-01-2020 17:15:00 12.7 C 9.02 g/m*3 12.7 C 19.3 km/h
2785 31-01-2020 17:20:00 12.6 C 8.96 g/m*3 12.6 C 17.7 km/h
2786 31-01-2020 17:25:00 12.5 C 9.02 g/m*3 12.5 C 17.7 km/h
2787 31-01-2020 17:30:00 12.4 C 8.96 g/m*3 12.4 C 17.7 km/h
2788 31-01-2020 17:35:00 12.4 C 8.96 g/m*3 12.4 C 16.1 km/h
2789 31-01-2020 17:40:00 12.3 C 8.9 g/m*3 12.3 C 20.9 km/h
2790 31-01-2020 17:45:00 12.3 C 8.9 g/m*3 12.3 C 17.7 km/h
2791 31-01-2020 17:50:00 12.3 C 8.9 g/m*3 12.3 C 12.9 km/h
2792 31-01-2020 17:55:00 12.2 C 8.85 g/m*3 12.2 C 14.5 km/h
2793 31-01-2020 18:00:00 12.1 C 8.9 g/m*3 12.1 C 9.7 km/h
2794 31-01-2020 18:05:00 12.1 C 8.9 g/m*3 12.1 C 17.7 km/h
2795 31-01-2020 18:10:00 12.2 C 8.96 g/m*3 12.2 C 16.1 km/h
2796 31-01-2020 18:15:00 12.3 C 9.01 g/m*3 12.3 C 16.1 km/h
2797 31-01-2020 18:20:00 12.3 C 9.12 g/m*3 12.3 C 12.9 km/h
2798 31-01-2020 18:25:00 12.3 C 9.12 g/m*3 12.3 C 14.5 km/h
2799 31-01-2020 18:30:00 12.3 C 9.12 g/m*3 12.3 C 20.9 km/h
2800 31-01-2020 18:35:00 12.3 C 9.12 g/m*3 12.3 C 14.5 km/h
Sensor: Nr:Datum:Temp:Abs-Feuchte:Windchill:Wind:
Aussen-T/F 2801 31-01-2020 18:40:00 12.3 C 9.12 g/m*3 12.3 C 19.3 km/h
2802 31-01-2020 18:45:00 12.4 C 9.18 g/m*3 12.4 C 14.5 km/h
2803 31-01-2020 18:50:00 12.5 C 9.24 g/m*3 12.5 C 14.5 km/h
2804 31-01-2020 18:55:00 12.5 C 9.24 g/m*3 12.5 C 12.9 km/h
2805 31-01-2020 19:00:00 12.5 C 9.24 g/m*3 12.5 C 11.3 km/h
2806 31-01-2020 19:05:00 12.6 C 9.29 g/m*3 12.6 C 17.7 km/h
2807 31-01-2020 19:10:00 12.7 C 9.24 g/m*3 12.7 C 20.9 km/h
2808 31-01-2020 19:15:00 12.7 C 9.24 g/m*3 12.7 C 14.5 km/h
2809 31-01-2020 19:20:00 12.7 C 9.24 g/m*3 12.7 C 19.3 km/h
2810 31-01-2020 19:25:00 12.7 C 9.24 g/m*3 12.7 C 11.3 km/h
2811 31-01-2020 19:30:00 12.7 C 9.24 g/m*3 12.7 C 9.7 km/h
2812 31-01-2020 19:35:00 12.7 C 9.24 g/m*3 12.7 C 12.9 km/h
2813 31-01-2020 19:40:00 12.8 C 9.3 g/m*3 12.8 C 12.9 km/h
2814 31-01-2020 19:45:00 12.8 C 9.3 g/m*3 12.8 C 11.3 km/h
2815 31-01-2020 19:50:00 12.8 C 9.3 g/m*3 12.8 C 12.9 km/h
2816 31-01-2020 19:55:00 12.8 C 9.41 g/m*3 12.8 C 14.5 km/h
2817 31-01-2020 20:00:00 12.7 C 9.35 g/m*3 12.7 C 11.3 km/h
2818 31-01-2020 20:05:00 12.7 C 9.35 g/m*3 12.7 C 19.3 km/h
2819 31-01-2020 20:10:00 12.7 C 9.35 g/m*3 12.7 C 12.9 km/h
2820 31-01-2020 20:15:00 12.7 C 9.46 g/m*3 12.7 C 20.9 km/h
2821 31-01-2020 20:20:00 12.6 C 9.4 g/m*3 12.6 C 11.3 km/h
2822 31-01-2020 20:25:00 12.6 C 9.4 g/m*3 12.6 C 11.3 km/h
2823 31-01-2020 20:30:00 12.6 C 9.29 g/m*3 12.6 C 16.1 km/h
2824 31-01-2020 20:35:00 12.6 C 9.29 g/m*3 12.6 C 16.1 km/h
2825 31-01-2020 20:40:00 12.6 C 9.29 g/m*3 12.6 C 14.5 km/h
Sensor: Nr:Datum:Temp:Abs-Feuchte:Windchill:Wind:
Aussen-T/F 2826 31-01-2020 20:45:00 12.6 C 9.29 g/m*3 12.6 C 11.3 km/h
2827 31-01-2020 20:50:00 12.6 C 9.29 g/m*3 12.6 C 17.7 km/h
2828 31-01-2020 20:55:00 12.4 C 9.18 g/m*3 12.4 C 4.8 km/h
2829 31-01-2020 21:00:00 12.4 C 9.29 g/m*3 12.4 C 16.1 km/h
2830 31-01-2020 21:05:00 12.4 C 9.29 g/m*3 12.4 C 16.1 km/h
2831 31-01-2020 21:10:00 12.4 C 9.29 g/m*3 12.4 C 14.5 km/h
2832 31-01-2020 21:15:00 12.4 C 9.29 g/m*3 12.4 C 24.1 km/h
2833 31-01-2020 21:20:00 12.5 C 9.35 g/m*3 12.5 C 17.7 km/h
2834 31-01-2020 21:25:00 12.5 C 9.35 g/m*3 12.5 C 16.1 km/h
2835 31-01-2020 21:30:00 12.6 C 9.51 g/m*3 12.6 C 16.1 km/h
2836 31-01-2020 21:35:00 12.6 C 9.51 g/m*3 12.6 C 17.7 km/h
2837 31-01-2020 21:40:00 12.7 C 9.46 g/m*3 12.7 C 16.1 km/h
2838 31-01-2020 21:45:00 12.7 C 9.46 g/m*3 12.7 C 27.4 km/h
2839 31-01-2020 21:50:00 12.7 C 9.46 g/m*3 12.7 C 19.3 km/h
2840 31-01-2020 21:55:00 12.8 C 9.41 g/m*3 12.8 C 20.9 km/h
2841 31-01-2020 22:00:00 12.7 C 9.35 g/m*3 12.7 C 14.5 km/h
2842 31-01-2020 22:05:00 12.7 C 9.35 g/m*3 12.7 C 16.1 km/h
2843 31-01-2020 22:10:00 12.8 C 9.41 g/m*3 12.8 C 22.5 km/h
2844 31-01-2020 22:15:00 12.8 C 9.41 g/m*3 12.8 C 20.9 km/h
2845 31-01-2020 22:20:00 12.8 C 9.3 g/m*3 12.8 C 25.7 km/h
2846 31-01-2020 22:25:00 12.8 C 9.3 g/m*3 12.8 C 22.5 km/h
2847 31-01-2020 22:30:00 12.8 C 9.3 g/m*3 12.8 C 20.9 km/h
2848 31-01-2020 22:35:00 12.8 C 9.3 g/m*3 12.8 C 22.5 km/h
2849 31-01-2020 22:40:00 12.8 C 9.3 g/m*3 12.8 C 22.5 km/h
2850 31-01-2020 22:45:00 12.8 C 9.3 g/m*3 12.8 C 25.7 km/h
Sensor: Nr:Datum:Temp:Abs-Feuchte:Windchill:Wind:
Aussen-T/F 2851 31-01-2020 22:50:00 12.8 C 9.3 g/m*3 12.8 C 20.9 km/h
2852 31-01-2020 22:55:00 12.8 C 9.3 g/m*3 12.8 C 20.9 km/h
2853 31-01-2020 23:00:00 12.8 C 9.41 g/m*3 12.8 C 25.7 km/h
2854 31-01-2020 23:05:00 12.8 C 9.41 g/m*3 12.8 C 20.9 km/h
2855 31-01-2020 23:10:00 12.8 C 9.41 g/m*3 12.8 C 17.7 km/h
2856 31-01-2020 23:15:00 12.8 C 9.41 g/m*3 12.8 C 17.7 km/h
2857 31-01-2020 23:20:00 12.8 C 9.41 g/m*3 12.8 C 17.7 km/h
2858 31-01-2020 23:25:00 12.8 C 9.41 g/m*3 12.8 C 16.1 km/h
2859 31-01-2020 23:30:00 12.8 C 9.3 g/m*3 12.8 C 17.7 km/h
2860 31-01-2020 23:35:00 12.8 C 9.3 g/m*3 12.8 C 8.1 km/h
2861 31-01-2020 23:40:00 12.8 C 9.41 g/m*3 12.8 C 6.4 km/h
2862 31-01-2020 23:45:00 12.8 C 9.3 g/m*3 12.8 C 14.5 km/h
2863 31-01-2020 23:50:00 12.8 C 9.3 g/m*3 12.8 C 12.9 km/h
2864 31-01-2020 23:55:00 12.8 C 9.41 g/m*3 12.8 C 11.3 km/h
2865 01-02-2020 00:00:00 12.8 C 9.41 g/m*3 12.8 C 12.9 km/h
2866 01-02-2020 00:05:00 12.8 C 9.41 g/m*3 12.8 C 17.7 km/h
2867 01-02-2020 00:10:00 12.8 C 9.41 g/m*3 12.8 C 16.1 km/h
2868 01-02-2020 00:15:00 12.8 C 9.41 g/m*3 12.8 C 19.3 km/h
2869 01-02-2020 00:20:00 12.8 C 9.41 g/m*3 12.8 C 14.5 km/h
2870 01-02-2020 00:25:00 12.8 C 9.41 g/m*3 12.8 C 20.9 km/h
2871 01-02-2020 00:30:00 12.8 C 9.41 g/m*3 12.8 C 20.9 km/h
2872 01-02-2020 00:35:00 12.8 C 9.41 g/m*3 12.8 C 8.1 km/h
2873 01-02-2020 00:40:00 12.7 C 9.35 g/m*3 12.7 C 16.1 km/h
2874 01-02-2020 00:45:00 12.7 C 9.35 g/m*3 12.7 C 11.3 km/h
2875 01-02-2020 00:50:00 12.7 C 9.35 g/m*3 12.7 C 9.7 km/h
Sensor: Nr:Datum:Temp:Abs-Feuchte:Windchill:Wind:
Aussen-T/F 2876 01-02-2020 00:55:00 12.7 C 9.35 g/m*3 12.7 C 9.7 km/h
2877 01-02-2020 01:00:00 12.7 C 9.46 g/m*3 12.7 C 12.9 km/h
2878 01-02-2020 01:05:00 12.6 C 9.4 g/m*3 12.6 C 16.1 km/h
2879 01-02-2020 01:10:00 12.6 C 9.4 g/m*3 12.6 C 11.3 km/h
2880 01-02-2020 01:15:00 12.6 C 9.4 g/m*3 12.6 C 6.4 km/h
2881 01-02-2020 01:20:00 12.6 C 9.29 g/m*3 12.6 C 16.1 km/h
2882 01-02-2020 01:25:00 12.5 C 9.24 g/m*3 12.5 C 8.1 km/h
2883 01-02-2020 01:30:00 12.5 C 9.24 g/m*3 12.5 C 9.7 km/h
2884 01-02-2020 01:35:00 12.5 C 9.24 g/m*3 12.5 C 9.7 km/h
2885 01-02-2020 01:40:00 12.5 C 9.24 g/m*3 12.5 C 8.1 km/h
2886 01-02-2020 01:45:00 12.5 C 9.24 g/m*3 12.5 C 6.4 km/h
2887 01-02-2020 01:50:00 12.5 C 9.13 g/m*3 12.5 C 12.9 km/h
2888 01-02-2020 01:55:00 12.4 C 9.07 g/m*3 12.4 C 8.1 km/h
2889 01-02-2020 02:00:00 12.4 C 9.07 g/m*3 12.4 C 6.4 km/h
2890 01-02-2020 02:05:00 12.4 C 9.07 g/m*3 12.4 C 8.1 km/h
2891 01-02-2020 02:10:00 12.3 C 9.01 g/m*3 12.3 C 17.7 km/h
2892 01-02-2020 02:15:00 12.3 C 9.01 g/m*3 12.3 C 9.7 km/h
2893 01-02-2020 02:20:00 12.2 C 8.96 g/m*3 12.2 C 19.3 km/h
2894 01-02-2020 02:25:00 12.2 C 8.96 g/m*3 12.2 C 16.1 km/h
2895 01-02-2020 02:30:00 12.2 C 8.96 g/m*3 12.2 C 9.7 km/h
2896 01-02-2020 02:35:00 12.1 C 8.9 g/m*3 12.1 C 12.9 km/h
2897 01-02-2020 02:40:00 12 C 8.85 g/m*3 12 C 9.7 km/h
2898 01-02-2020 02:45:00 11.9 C 8.79 g/m*3 11.9 C 11.3 km/h
2899 01-02-2020 02:50:00 11.9 C 8.79 g/m*3 11.9 C 9.7 km/h
2900 01-02-2020 02:55:00 12 C 8.85 g/m*3 12 C 9.7 km/h
Sensor: Nr:Datum:Temp:Abs-Feuchte:Windchill:Wind:
Aussen-T/F 2901 01-02-2020 03:00:00 12.1 C 8.9 g/m*3 12.1 C 8.1 km/h
2902 01-02-2020 03:05:00 12.1 C 8.9 g/m*3 12.1 C 9.7 km/h
2903 01-02-2020 03:10:00 12 C 8.85 g/m*3 12 C 12.9 km/h
2904 01-02-2020 03:15:00 12 C 8.95 g/m*3 12 C 9.7 km/h
2905 01-02-2020 03:20:00 12.1 C 9.01 g/m*3 12.1 C 4.8 km/h
2906 01-02-2020 03:25:00 12.1 C 9.01 g/m*3 12.1 C 8.1 km/h
2907 01-02-2020 03:30:00 12.2 C 9.06 g/m*3 12.2 C 24.1 km/h
2908 01-02-2020 03:35:00 12.3 C 9.01 g/m*3 12.3 C 24.1 km/h
2909 01-02-2020 03:40:00 12.3 C 9.01 g/m*3 12.3 C 17.7 km/h
2910 01-02-2020 03:45:00 12.4 C 9.07 g/m*3 12.4 C 20.9 km/h
2911 01-02-2020 03:50:00 12.5 C 9.13 g/m*3 12.5 C 22.5 km/h
2912 01-02-2020 03:55:00 12.5 C 9.13 g/m*3 12.5 C 16.1 km/h
2913 01-02-2020 04:00:00 12.5 C 9.13 g/m*3 12.5 C 12.9 km/h
2914 01-02-2020 04:05:00 12.5 C 9.13 g/m*3 12.5 C 12.9 km/h
2915 01-02-2020 04:10:00 12.4 C 9.07 g/m*3 12.4 C 9.7 km/h
2916 01-02-2020 04:15:00 12.4 C 9.07 g/m*3 12.4 C 14.5 km/h
2917 01-02-2020 04:20:00 12.3 C 9.01 g/m*3 12.3 C 6.4 km/h
2918 01-02-2020 04:25:00 12.2 C 9.06 g/m*3 12.2 C 20.9 km/h
2919 01-02-2020 04:30:00 12.2 C 9.06 g/m*3 12.2 C 6.4 km/h
2920 01-02-2020 04:35:00 12.2 C 9.06 g/m*3 12.2 C 11.3 km/h
2921 01-02-2020 04:40:00 12.1 C 9.01 g/m*3 12.1 C 14.5 km/h
2922 01-02-2020 04:45:00 12.1 C 9.01 g/m*3 12.1 C 14.5 km/h
2923 01-02-2020 04:50:00 12.1 C 9.12 g/m*3 12.1 C 9.7 km/h
2924 01-02-2020 04:55:00 12.1 C 9.12 g/m*3 12.1 C 8.1 km/h
2925 01-02-2020 05:00:00 12.1 C 9.12 g/m*3 12.1 C 9.7 km/h
Sensor: Nr:Datum:Temp:Abs-Feuchte:Windchill:Wind:
Aussen-T/F 2926 01-02-2020 05:05:00 12.1 C 9.12 g/m*3 12.1 C 12.9 km/h
2927 01-02-2020 05:10:00 12.1 C 9.12 g/m*3 12.1 C 6.4 km/h
2928 01-02-2020 05:15:00 12.1 C 9.12 g/m*3 12.1 C 11.3 km/h
2929 01-02-2020 05:20:00 12.1 C 9.12 g/m*3 12.1 C 9.7 km/h
2930 01-02-2020 05:25:00 12 C 9.06 g/m*3 12 C 4.8 km/h
2931 01-02-2020 05:30:00 12 C 9.06 g/m*3 12 C 6.4 km/h
2932 01-02-2020 05:35:00 12 C 9.06 g/m*3 12 C 3.2 km/h
2933 01-02-2020 05:40:00 12 C 9.17 g/m*3 12 C 11.3 km/h
2934 01-02-2020 05:45:00 12 C 9.17 g/m*3 12 C 4.8 km/h
2935 01-02-2020 05:50:00 12.1 C 9.22 g/m*3 12.1 C 11.3 km/h
2936 01-02-2020 05:55:00 12.1 C 9.22 g/m*3 12.1 C 4.8 km/h
2937 01-02-2020 06:00:00 12.1 C 9.22 g/m*3 12.1 C 12.9 km/h
2938 01-02-2020 06:05:00 12.2 C 9.28 g/m*3 12.2 C 11.3 km/h
2939 01-02-2020 06:10:00 12.2 C 9.28 g/m*3 12.2 C 8.1 km/h
2940 01-02-2020 06:15:00 12.2 C 9.28 g/m*3 12.2 C 9.7 km/h
2941 01-02-2020 06:20:00 12.2 C 9.28 g/m*3 12.2 C 8.1 km/h
2942 01-02-2020 06:25:00 12.1 C 9.22 g/m*3 12.1 C 6.4 km/h
2943 01-02-2020 06:30:00 12.1 C 9.33 g/m*3 12.1 C 6.4 km/h
2944 01-02-2020 06:35:00 12.1 C 9.33 g/m*3 12.1 C 1.6 km/h
2945 01-02-2020 06:40:00 12.1 C 9.33 g/m*3 12.1 C 1.6 km/h
2946 01-02-2020 06:45:00 12.1 C 9.33 g/m*3 12.1 C 11.3 km/h
2947 01-02-2020 06:50:00 12.1 C 9.33 g/m*3 12.1 C 11.3 km/h
2948 01-02-2020 06:55:00 12.2 C 9.39 g/m*3 12.2 C 12.9 km/h
2949 01-02-2020 07:00:00 12.2 C 9.39 g/m*3 12.2 C 1.6 km/h
2950 01-02-2020 07:05:00 12.3 C 9.45 g/m*3 12.3 C 8.1 km/h
Sensor: Nr:Datum:Temp:Abs-Feuchte:Windchill:Wind:
Aussen-T/F 2951 01-02-2020 07:10:00 12.2 C 9.39 g/m*3 12.2 C 6.4 km/h
2952 01-02-2020 07:15:00 12.2 C 9.39 g/m*3 12.2 C 8.1 km/h
2953 01-02-2020 07:20:00 12.3 C 9.45 g/m*3 12.3 C 14.5 km/h
2954 01-02-2020 07:25:00 12.3 C 9.45 g/m*3 12.3 C 14.5 km/h
2955 01-02-2020 07:30:00 12.4 C 9.51 g/m*3 12.4 C 14.5 km/h
2956 01-02-2020 07:35:00 12.4 C 9.51 g/m*3 12.4 C 9.7 km/h
2957 01-02-2020 07:40:00 12.4 C 9.51 g/m*3 12.4 C 11.3 km/h
2958 01-02-2020 07:45:00 12.4 C 9.51 g/m*3 12.4 C 12.9 km/h
2959 01-02-2020 07:50:00 12.4 C 9.51 g/m*3 12.4 C 12.9 km/h
2960 01-02-2020 07:55:00 12.4 C 9.62 g/m*3 12.4 C 14.5 km/h
2961 01-02-2020 08:00:00 12.4 C 9.62 g/m*3 12.4 C 12.9 km/h
2962 01-02-2020 08:05:00 12.3 C 9.66 g/m*3 12.3 C 12.9 km/h
2963 01-02-2020 08:10:00 12.3 C 9.77 g/m*3 12.3 C 11.3 km/h
2964 01-02-2020 08:15:00 12.2 C 9.71 g/m*3 12.2 C 8.1 km/h
2965 01-02-2020 08:20:00 12.1 C 9.76 g/m*3 12.1 C 4.8 km/h
2966 01-02-2020 08:25:00 12 C 9.7 g/m*3 12 C 8.1 km/h
2967 01-02-2020 08:30:00 11.9 C 9.64 g/m*3 11.9 C 3.2 km/h
2968 01-02-2020 08:35:00 11.9 C 9.64 g/m*3 11.9 C 4.8 km/h
2969 01-02-2020 08:40:00 11.8 C 9.68 g/m*3 11.8 C 3.2 km/h
2970 01-02-2020 08:45:00 11.8 C 9.68 g/m*3 11.8 C 3.2 km/h
2971 01-02-2020 08:50:00 11.8 C 9.68 g/m*3 11.8 C 3.2 km/h
2972 01-02-2020 08:55:00 11.8 C 9.68 g/m*3 11.8 C 11.3 km/h
2973 01-02-2020 09:00:00 11.8 C 9.79 g/m*3 11.8 C 3.2 km/h
2974 01-02-2020 09:05:00 11.8 C 9.79 g/m*3 11.8 C 8.1 km/h
2975 01-02-2020 09:10:00 11.9 C 9.74 g/m*3 11.9 C 9.7 km/h
Sensor: Nr:Datum:Temp:Abs-Feuchte:Windchill:Wind:
Aussen-T/F 2976 01-02-2020 09:15:00 11.9 C 9.74 g/m*3 11.9 C 9.7 km/h
2977 01-02-2020 09:20:00 12 C 9.8 g/m*3 12 C 14.5 km/h
2978 01-02-2020 09:25:00 12.1 C 9.87 g/m*3 12.1 C 6.4 km/h
2979 01-02-2020 09:30:00 12.1 C 9.87 g/m*3 12.1 C 3.2 km/h
2980 01-02-2020 09:35:00 12.2 C 9.93 g/m*3 12.2 C 9.7 km/h
2981 01-02-2020 09:40:00 12.2 C 9.93 g/m*3 12.2 C 4.8 km/h
2982 01-02-2020 09:45:00 12.2 C 9.93 g/m*3 12.2 C 3.2 km/h
2983 01-02-2020 09:50:00 12.2 C 9.93 g/m*3 12.2 C 8.1 km/h
2984 01-02-2020 09:55:00 12.3 C 9.99 g/m*3 12.3 C 12.9 km/h
2985 01-02-2020 10:00:00 12.3 C 9.99 g/m*3 12.3 C 6.4 km/h
2986 01-02-2020 10:05:00 12.4 C 10.05 g/m*3 12.4 C 11.3 km/h
2987 01-02-2020 10:10:00 12.5 C 10.11 g/m*3 12.5 C 14.5 km/h
2988 01-02-2020 10:15:00 12.6 C 10.07 g/m*3 12.6 C 11.3 km/h
2989 01-02-2020 10:20:00 12.6 C 10.07 g/m*3 12.6 C 12.9 km/h
2990 01-02-2020 10:25:00 12.7 C 10.13 g/m*3 12.7 C 11.3 km/h
2991 01-02-2020 10:30:00 12.7 C 10.13 g/m*3 12.7 C 11.3 km/h
2992 01-02-2020 10:35:00 12.8 C 10.19 g/m*3 12.8 C 19.3 km/h
2993 01-02-2020 10:40:00 12.8 C 10.19 g/m*3 12.8 C 12.9 km/h
2994 01-02-2020 10:45:00 12.8 C 10.19 g/m*3 12.8 C 14.5 km/h
2995 01-02-2020 10:50:00 12.7 C 10.13 g/m*3 12.7 C 11.3 km/h
2996 01-02-2020 10:55:00 12.7 C 10.24 g/m*3 12.7 C 11.3 km/h
2997 01-02-2020 11:00:00 12.7 C 10.24 g/m*3 12.7 C 11.3 km/h
2998 01-02-2020 11:05:00 12.7 C 10.24 g/m*3 12.7 C 14.5 km/h
2999 01-02-2020 11:10:00 12.7 C 10.24 g/m*3 12.7 C 12.9 km/h
3000 01-02-2020 11:15:00 12.7 C 10.24 g/m*3 12.7 C 8.1 km/h
Sensor: Nr:Datum:Temp:Abs-Feuchte:Windchill:Wind:
Aussen-T/F 3001 01-02-2020 11:20:00 12.7 C 10.24 g/m*3 12.7 C 14.5 km/h
3002 01-02-2020 11:25:00 12.7 C 10.24 g/m*3 12.7 C 14.5 km/h
3003 01-02-2020 11:30:00 12.7 C 10.24 g/m*3 12.7 C 9.7 km/h
3004 01-02-2020 11:35:00 12.7 C 10.24 g/m*3 12.7 C 19.3 km/h
3005 01-02-2020 11:40:00 12.6 C 10.18 g/m*3 12.6 C 17.7 km/h
3006 01-02-2020 11:45:00 12.6 C 10.18 g/m*3 12.6 C 14.5 km/h
3007 01-02-2020 11:50:00 12.6 C 10.18 g/m*3 12.6 C 14.5 km/h
3008 01-02-2020 11:55:00 12.6 C 10.18 g/m*3 12.6 C 8.1 km/h
3009 01-02-2020 12:00:00 12.6 C 10.18 g/m*3 12.6 C 16.1 km/h
3010 01-02-2020 12:05:00 12.6 C 10.18 g/m*3 12.6 C 16.1 km/h
3011 01-02-2020 12:10:00 12.6 C 10.18 g/m*3 12.6 C 17.7 km/h
3012 01-02-2020 12:15:00 12.6 C 10.18 g/m*3 12.6 C 12.9 km/h
3013 01-02-2020 12:20:00 12.6 C 10.18 g/m*3 12.6 C 20.9 km/h
3014 01-02-2020 12:25:00 12.6 C 10.29 g/m*3 12.6 C 9.7 km/h
3015 01-02-2020 12:30:00 12.6 C 10.29 g/m*3 12.6 C 16.1 km/h
3016 01-02-2020 12:35:00 12.6 C 10.29 g/m*3 12.6 C 16.1 km/h
3017 01-02-2020 12:40:00 12.6 C 10.29 g/m*3 12.6 C 12.9 km/h
3018 01-02-2020 12:45:00 12.6 C 10.29 g/m*3 12.6 C 11.3 km/h
3019 01-02-2020 12:50:00 12.6 C 10.29 g/m*3 12.6 C 9.7 km/h
3020 01-02-2020 12:55:00 12.6 C 10.29 g/m*3 12.6 C 8.1 km/h
3021 01-02-2020 13:00:00 12.6 C 10.29 g/m*3 12.6 C 14.5 km/h
3022 01-02-2020 13:05:00 12.6 C 10.4 g/m*3 12.6 C 9.7 km/h
3023 01-02-2020 13:10:00 12.6 C 10.29 g/m*3 12.6 C 9.7 km/h
3024 01-02-2020 13:15:00 12.6 C 10.29 g/m*3 12.6 C 8.1 km/h
3025 01-02-2020 13:20:00 12.6 C 10.29 g/m*3 12.6 C 11.3 km/h
Sensor: Nr:Datum:Temp:Abs-Feuchte:Windchill:Wind:
Aussen-T/F 3026 01-02-2020 13:25:00 12.6 C 10.29 g/m*3 12.6 C 20.9 km/h
3027 01-02-2020 13:30:00 12.6 C 10.29 g/m*3 12.6 C 9.7 km/h
3028 01-02-2020 13:35:00 12.5 C 10.22 g/m*3 12.5 C 11.3 km/h
3029 01-02-2020 13:40:00 12.5 C 10.22 g/m*3 12.5 C 11.3 km/h
3030 01-02-2020 13:45:00 12.4 C 10.16 g/m*3 12.4 C 14.5 km/h
3031 01-02-2020 13:50:00 12.4 C 10.16 g/m*3 12.4 C 8.1 km/h
3032 01-02-2020 13:55:00 12.4 C 10.27 g/m*3 12.4 C 17.7 km/h
3033 01-02-2020 14:00:00 12.3 C 10.21 g/m*3 12.3 C 16.1 km/h
3034 01-02-2020 14:05:00 12.3 C 10.21 g/m*3 12.3 C 11.3 km/h
3035 01-02-2020 14:10:00 12.2 C 10.25 g/m*3 12.2 C 6.4 km/h
3036 01-02-2020 14:15:00 12.2 C 10.25 g/m*3 12.2 C 12.9 km/h
3037 01-02-2020 14:20:00 12.1 C 10.19 g/m*3 12.1 C 9.7 km/h
3038 01-02-2020 14:25:00 12.1 C 10.19 g/m*3 12.1 C 6.4 km/h
3039 01-02-2020 14:30:00 12 C 10.12 g/m*3 12 C 4.8 km/h
3040 01-02-2020 14:35:00 11.9 C 10.06 g/m*3 11.9 C 8.1 km/h
3041 01-02-2020 14:40:00 11.8 C 9.89 g/m*3 11.8 C 9.7 km/h
3042 01-02-2020 14:45:00 11.6 C 9.77 g/m*3 11.6 C 6.4 km/h
3043 01-02-2020 14:50:00 11.4 C 9.65 g/m*3 11.4 C 4.8 km/h
3044 01-02-2020 14:55:00 11.3 C 9.59 g/m*3 11.3 C 8.1 km/h
3045 01-02-2020 15:00:00 11.2 C 9.53 g/m*3 11.2 C 4.8 km/h
3046 01-02-2020 15:05:00 11.2 C 9.53 g/m*3 11.2 C 4.8 km/h
3047 01-02-2020 15:10:00 11.2 C 9.53 g/m*3 11.2 C 4.8 km/h
3048 01-02-2020 15:15:00 11.1 C 9.47 g/m*3 11.1 C 3.2 km/h
3049 01-02-2020 15:20:00 11.1 C 9.47 g/m*3 11.1 C 8.1 km/h
3050 01-02-2020 15:25:00 11 C 9.41 g/m*3 11 C 1.6 km/h
Sensor: Nr:Datum:Temp:Abs-Feuchte:Windchill:Wind:
Aussen-T/F 3051 01-02-2020 15:30:00 10.9 C 9.35 g/m*3 10.9 C 3.2 km/h
3052 01-02-2020 15:35:00 10.9 C 9.35 g/m*3 10.9 C 3.2 km/h
3053 01-02-2020 15:40:00 11.1 C 9.57 g/m*3 11.1 C 3.2 km/h
3054 01-02-2020 15:45:00 11.1 C 9.57 g/m*3 11.1 C 6.4 km/h
3055 01-02-2020 15:50:00 11.2 C 9.63 g/m*3 11.2 C 4.8 km/h
3056 01-02-2020 15:55:00 11.2 C 9.53 g/m*3 11.2 C 3.2 km/h
3057 01-02-2020 16:00:00 11.2 C 9.53 g/m*3 11.2 C 4.8 km/h
3058 01-02-2020 16:05:00 11.1 C 9.47 g/m*3 11.1 C 9.7 km/h
3059 01-02-2020 16:10:00 11.1 C 9.37 g/m*3 11.1 C 3.2 km/h
3060 01-02-2020 16:15:00 11.1 C 9.37 g/m*3 11.1 C 6.4 km/h
3061 01-02-2020 16:20:00 11 C 9.31 g/m*3 10.52 C 6.4 km/h
3062 01-02-2020 16:25:00 11 C 9.31 g/m*3 10.16 C 8.1 km/h
3063 01-02-2020 16:30:00 11.1 C 9.37 g/m*3 11.1 C 4.8 km/h
3064 01-02-2020 16:35:00 11.1 C 9.37 g/m*3 11.1 C 4.8 km/h
3065 01-02-2020 16:40:00 11.1 C 9.37 g/m*3 11.1 C 3.2 km/h
3066 01-02-2020 16:45:00 11 C 9.31 g/m*3 11 C 4.8 km/h
3067 01-02-2020 16:50:00 11 C 9.31 g/m*3 11 C 4.8 km/h
3068 01-02-2020 16:55:00 11 C 9.31 g/m*3 11 C 4.8 km/h
3069 01-02-2020 17:00:00 11 C 9.31 g/m*3 10.52 C 6.4 km/h
3070 01-02-2020 17:05:00 11 C 9.31 g/m*3 11 C 4.8 km/h
3071 01-02-2020 17:10:00 11.1 C 9.37 g/m*3 11.1 C 3.2 km/h
3072 01-02-2020 17:15:00 11 C 9.31 g/m*3 9.88 C 9.7 km/h
3073 01-02-2020 17:20:00 11.1 C 9.27 g/m*3 11.1 C 9.7 km/h
3074 01-02-2020 17:25:00 11.1 C 9.27 g/m*3 11.1 C 8.1 km/h
3075 01-02-2020 17:30:00 11.2 C 9.33 g/m*3 11.2 C 9.7 km/h
Sensor: Nr:Datum:Temp:Abs-Feuchte:Windchill:Wind:
Aussen-T/F 3076 01-02-2020 17:35:00 11.2 C 9.33 g/m*3 11.2 C 11.3 km/h
3077 01-02-2020 17:40:00 11.2 C 9.12 g/m*3 11.2 C 9.7 km/h
3078 01-02-2020 17:45:00 11.3 C 9.08 g/m*3 11.3 C 9.7 km/h
3079 01-02-2020 17:50:00 11.3 C 8.98 g/m*3 11.3 C 12.9 km/h
3080 01-02-2020 17:55:00 11.5 C 8.99 g/m*3 11.5 C 11.3 km/h
3081 01-02-2020 18:00:00 11.6 C 9.04 g/m*3 11.6 C 6.4 km/h
3082 01-02-2020 18:05:00 11.5 C 8.99 g/m*3 11.5 C 9.7 km/h
3083 01-02-2020 18:10:00 11.4 C 8.93 g/m*3 11.4 C 9.7 km/h
3084 01-02-2020 18:15:00 11.4 C 8.93 g/m*3 11.4 C 8.1 km/h
3085 01-02-2020 18:20:00 11.4 C 8.93 g/m*3 11.4 C 4.8 km/h
3086 01-02-2020 18:25:00 11.3 C 8.87 g/m*3 11.3 C 14.5 km/h
3087 01-02-2020 18:30:00 11.4 C 8.93 g/m*3 11.4 C 9.7 km/h
3088 01-02-2020 18:35:00 11.4 C 8.93 g/m*3 11.4 C 6.4 km/h
3089 01-02-2020 18:40:00 11.4 C 8.93 g/m*3 11.4 C 9.7 km/h
3090 01-02-2020 18:45:00 11.4 C 8.93 g/m*3 11.4 C 9.7 km/h
3091 01-02-2020 18:50:00 11.4 C 8.93 g/m*3 11.4 C 11.3 km/h
3092 01-02-2020 18:55:00 11.4 C 8.93 g/m*3 11.4 C 9.7 km/h
3093 01-02-2020 19:00:00 11.4 C 8.93 g/m*3 11.4 C 9.7 km/h
3094 01-02-2020 19:05:00 11.4 C 8.93 g/m*3 11.4 C 12.9 km/h
3095 01-02-2020 19:10:00 11.4 C 8.93 g/m*3 11.4 C 16.1 km/h
3096 01-02-2020 19:15:00 11.5 C 9.09 g/m*3 11.5 C 12.9 km/h
3097 01-02-2020 19:20:00 11.4 C 9.03 g/m*3 11.4 C 11.3 km/h
3098 01-02-2020 19:25:00 11.3 C 8.98 g/m*3 11.3 C 22.5 km/h
3099 01-02-2020 19:30:00 11.3 C 9.08 g/m*3 11.3 C 16.1 km/h
3100 01-02-2020 19:35:00 11.2 C 9.12 g/m*3 11.2 C 4.8 km/h
Sensor: Nr:Datum:Temp:Abs-Feuchte:Windchill:Wind:
Aussen-T/F 3101 01-02-2020 19:40:00 11.1 C 9.17 g/m*3 11.1 C 4.8 km/h
3102 01-02-2020 19:45:00 10.9 C 9.05 g/m*3 10.9 C 4.8 km/h
3103 01-02-2020 19:50:00 10.8 C 9.09 g/m*3 10.29 C 6.4 km/h
3104 01-02-2020 19:55:00 10.8 C 9.09 g/m*3 8.78 C 16.1 km/h
3105 01-02-2020 20:00:00 10.8 C 9.09 g/m*3 8.96 C 14.5 km/h
3106 01-02-2020 20:05:00 10.8 C 8.99 g/m*3 8.78 C 16.1 km/h
3107 01-02-2020 20:10:00 10.8 C 8.99 g/m*3 9.38 C 11.3 km/h
3108 01-02-2020 20:15:00 10.8 C 8.9 g/m*3 8.96 C 14.5 km/h
3109 01-02-2020 20:20:00 10.8 C 8.8 g/m*3 9.38 C 11.3 km/h
3110 01-02-2020 20:25:00 10.8 C 8.8 g/m*3 9.93 C 8.1 km/h
3111 01-02-2020 20:30:00 10.7 C 8.74 g/m*3 10.7 C 3.2 km/h
3112 01-02-2020 20:35:00 10.5 C 8.63 g/m*3 9.28 C 9.7 km/h
3113 01-02-2020 20:40:00 10.4 C 8.58 g/m*3 10.4 C 3.2 km/h
3114 01-02-2020 20:45:00 10.2 C 8.47 g/m*3 9.6 C 6.4 km/h
3115 01-02-2020 20:50:00 10.1 C 8.42 g/m*3 8.8 C 9.7 km/h
3116 01-02-2020 20:55:00 9.9 C 8.31 g/m*3 9.9 C 1.6 km/h
3117 01-02-2020 21:00:00 9.8 C 8.26 g/m*3 9.8 C 3.2 km/h
3118 01-02-2020 21:05:00 9.5 C 7.92 g/m*3 7.82 C 11.3 km/h
3119 01-02-2020 21:10:00 9.7 C 7.84 g/m*3 7.41 C 16.1 km/h
3120 01-02-2020 21:15:00 9.9 C 7.56 g/m*3 7.85 C 14.5 km/h
3121 01-02-2020 21:20:00 10.2 C 7.52 g/m*3 7.86 C 17.7 km/h
3122 01-02-2020 21:25:00 10.2 C 7.42 g/m*3 8.22 C 14.5 km/h
3123 01-02-2020 21:30:00 10.3 C 7.37 g/m*3 8.55 C 12.9 km/h
3124 01-02-2020 21:35:00 10.3 C 7.47 g/m*3 8.78 C 11.3 km/h
3125 01-02-2020 21:40:00 10.3 C 7.76 g/m*3 8.34 C 14.5 km/h
Sensor: Nr:Datum:Temp:Abs-Feuchte:Windchill:Wind:
Aussen-T/F 3126 01-02-2020 21:45:00 10.1 C 7.66 g/m*3 8.31 C 12.9 km/h
3127 01-02-2020 21:50:00 9.9 C 7.38 g/m*3 6.4 C 30.6 km/h
3128 01-02-2020 21:55:00 9.8 C 7.33 g/m*3 7.54 C 16.1 km/h
3129 01-02-2020 22:00:00 9.8 C 7.33 g/m*3 7.73 C 14.5 km/h
3130 01-02-2020 22:05:00 9.8 C 7.33 g/m*3 7.54 C 16.1 km/h
3131 01-02-2020 22:10:00 9.7 C 7.28 g/m*3 7.61 C 14.5 km/h
3132 01-02-2020 22:15:00 9.6 C 7.24 g/m*3 8.21 C 9.7 km/h
3133 01-02-2020 22:20:00 9.4 C 7.24 g/m*3 7.7 C 11.3 km/h
3134 01-02-2020 22:25:00 9.3 C 7.1 g/m*3 7.85 C 9.7 km/h
3135 01-02-2020 22:30:00 9.3 C 7.1 g/m*3 7.33 C 12.9 km/h
3136 01-02-2020 22:35:00 9.2 C 7.14 g/m*3 7.46 C 11.3 km/h
3137 01-02-2020 22:40:00 9.2 C 7.14 g/m*3 6.99 C 14.5 km/h
3138 01-02-2020 22:45:00 9.2 C 7.05 g/m*3 7.46 C 11.3 km/h
3139 01-02-2020 22:50:00 9.1 C 7.01 g/m*3 7.61 C 9.7 km/h
3140 01-02-2020 22:55:00 9.1 C 7.01 g/m*3 7.33 C 11.3 km/h
3141 01-02-2020 23:00:00 9 C 6.96 g/m*3 7.81 C 8.1 km/h
3142 01-02-2020 23:05:00 8.9 C 6.83 g/m*3 7.09 C 11.3 km/h
3143 01-02-2020 23:10:00 8.8 C 6.79 g/m*3 6.72 C 12.9 km/h
3144 01-02-2020 23:15:00 8.7 C 6.75 g/m*3 6.6 C 12.9 km/h
3145 01-02-2020 23:20:00 8.6 C 6.7 g/m*3 7.01 C 9.7 km/h
3146 01-02-2020 23:25:00 8.6 C 6.7 g/m*3 6.48 C 12.9 km/h
3147 01-02-2020 23:30:00 8.6 C 6.79 g/m*3 7.75 C 6.4 km/h
3148 01-02-2020 23:35:00 8.5 C 6.74 g/m*3 6.61 C 11.3 km/h
3149 01-02-2020 23:40:00 8.4 C 6.7 g/m*3 8.4 C 4.8 km/h
3150 01-02-2020 23:45:00 8.4 C 6.79 g/m*3 8.4 C 4.8 km/h
Sensor: Nr:Datum:Temp:Abs-Feuchte:Windchill:Wind:
Aussen-T/F 3151 01-02-2020 23:50:00 8.3 C 6.83 g/m*3 7.41 C 6.4 km/h
3152 01-02-2020 23:55:00 8.2 C 6.87 g/m*3 7.29 C 6.4 km/h
3153 02-02-2020 00:00:00 8.2 C 6.7 g/m*3 5.76 C 14.5 km/h
3154 02-02-2020 00:05:00 8.3 C 6.66 g/m*3 5.89 C 14.5 km/h
3155 02-02-2020 00:10:00 8.3 C 6.74 g/m*3 7.41 C 6.4 km/h
3156 02-02-2020 00:15:00 8.2 C 6.62 g/m*3 7.29 C 6.4 km/h
3157 02-02-2020 00:20:00 8.1 C 6.66 g/m*3 7.17 C 6.4 km/h
3158 02-02-2020 00:25:00 8.1 C 6.66 g/m*3 5.43 C 16.1 km/h
3159 02-02-2020 00:30:00 8.1 C 6.66 g/m*3 6.75 C 8.1 km/h
3160 02-02-2020 00:35:00 8.1 C 6.66 g/m*3 6.75 C 8.1 km/h
3161 02-02-2020 00:40:00 8.1 C 6.66 g/m*3 6.42 C 9.7 km/h
3162 02-02-2020 00:45:00 8.1 C 6.74 g/m*3 8.1 C 4.8 km/h
3163 02-02-2020 00:50:00 8.1 C 6.74 g/m*3 6.75 C 8.1 km/h
3164 02-02-2020 00:55:00 8.1 C 6.74 g/m*3 6.75 C 8.1 km/h
3165 02-02-2020 01:00:00 8.1 C 6.74 g/m*3 6.13 C 11.3 km/h
3166 02-02-2020 01:05:00 8.1 C 6.74 g/m*3 7.17 C 6.4 km/h
3167 02-02-2020 01:10:00 8.2 C 6.7 g/m*3 7.29 C 6.4 km/h
3168 02-02-2020 01:15:00 8.2 C 6.7 g/m*3 7.29 C 6.4 km/h
3169 02-02-2020 01:20:00 8.2 C 6.7 g/m*3 5.99 C 12.9 km/h
3170 02-02-2020 01:25:00 8.2 C 6.7 g/m*3 5.99 C 12.9 km/h
3171 02-02-2020 01:30:00 8.2 C 6.7 g/m*3 8.2 C 4.8 km/h
3172 02-02-2020 01:35:00 8.2 C 6.78 g/m*3 6.25 C 11.3 km/h
3173 02-02-2020 01:40:00 8.2 C 6.7 g/m*3 5.99 C 12.9 km/h
3174 02-02-2020 01:45:00 8.2 C 6.7 g/m*3 6.54 C 9.7 km/h
3175 02-02-2020 01:50:00 8.2 C 6.78 g/m*3 6.87 C 8.1 km/h
Sensor: Nr:Datum:Temp:Abs-Feuchte:Windchill:Wind:
Aussen-T/F 3176 02-02-2020 01:55:00 8.2 C 6.78 g/m*3 5.99 C 12.9 km/h
3177 02-02-2020 02:00:00 8.2 C 6.78 g/m*3 6.25 C 11.3 km/h
3178 02-02-2020 02:05:00 8.2 C 6.78 g/m*3 6.54 C 9.7 km/h
3179 02-02-2020 02:10:00 8.2 C 6.78 g/m*3 5.99 C 12.9 km/h
3180 02-02-2020 02:15:00 8.2 C 6.87 g/m*3 6.87 C 8.1 km/h
3181 02-02-2020 02:20:00 8.1 C 6.82 g/m*3 5.87 C 12.9 km/h
3182 02-02-2020 02:25:00 8.1 C 6.74 g/m*3 6.42 C 9.7 km/h
3183 02-02-2020 02:30:00 8.1 C 6.74 g/m*3 6.42 C 9.7 km/h
3184 02-02-2020 02:35:00 8.1 C 6.82 g/m*3 6.13 C 11.3 km/h
3185 02-02-2020 02:40:00 8.1 C 6.74 g/m*3 6.42 C 9.7 km/h
3186 02-02-2020 02:45:00 8.1 C 6.74 g/m*3 5.64 C 14.5 km/h
3187 02-02-2020 02:50:00 8.2 C 6.78 g/m*3 6.54 C 9.7 km/h
3188 02-02-2020 02:55:00 8.2 C 6.78 g/m*3 5.99 C 12.9 km/h
3189 02-02-2020 03:00:00 8.2 C 6.78 g/m*3 6.25 C 11.3 km/h
3190 02-02-2020 03:05:00 8.2 C 6.7 g/m*3 5.99 C 12.9 km/h
3191 02-02-2020 03:10:00 8.2 C 6.7 g/m*3 5.76 C 14.5 km/h
3192 02-02-2020 03:15:00 8.2 C 6.7 g/m*3 5.99 C 12.9 km/h
3193 02-02-2020 03:20:00 8.2 C 6.7 g/m*3 6.25 C 11.3 km/h
3194 02-02-2020 03:25:00 8.2 C 6.78 g/m*3 6.25 C 11.3 km/h
3195 02-02-2020 03:30:00 8.2 C 6.7 g/m*3 5.36 C 17.7 km/h
3196 02-02-2020 03:35:00 8.2 C 6.7 g/m*3 5.55 C 16.1 km/h
3197 02-02-2020 03:40:00 8.2 C 6.7 g/m*3 5.76 C 14.5 km/h
3198 02-02-2020 03:45:00 8.2 C 6.7 g/m*3 6.54 C 9.7 km/h
3199 02-02-2020 03:50:00 8.1 C 6.66 g/m*3 5.87 C 12.9 km/h
3200 02-02-2020 03:55:00 8.1 C 6.66 g/m*3 5.64 C 14.5 km/h
Sensor: Nr:Datum:Temp:Abs-Feuchte:Windchill:Wind:
Aussen-T/F 3201 02-02-2020 04:00:00 8.1 C 6.66 g/m*3 5.43 C 16.1 km/h
3202 02-02-2020 04:05:00 8.1 C 6.66 g/m*3 5.43 C 16.1 km/h
3203 02-02-2020 04:10:00 8.1 C 6.66 g/m*3 6.42 C 9.7 km/h
3204 02-02-2020 04:15:00 8 C 6.61 g/m*3 6.3 C 9.7 km/h
3205 02-02-2020 04:20:00 7.9 C 6.57 g/m*3 5.39 C 14.5 km/h
3206 02-02-2020 04:25:00 7.9 C 6.57 g/m*3 5.89 C 11.3 km/h
3207 02-02-2020 04:30:00 7.8 C 6.61 g/m*3 5.06 C 16.1 km/h
3208 02-02-2020 04:35:00 7.7 C 6.57 g/m*3 5.65 C 11.3 km/h
3209 02-02-2020 04:40:00 7.7 C 6.57 g/m*3 6.71 C 6.4 km/h
3210 02-02-2020 04:45:00 7.6 C 6.53 g/m*3 7.6 C 3.2 km/h
3211 02-02-2020 04:50:00 7.6 C 6.61 g/m*3 5.82 C 9.7 km/h
3212 02-02-2020 04:55:00 7.5 C 6.56 g/m*3 6.05 C 8.1 km/h
3213 02-02-2020 05:00:00 7.4 C 6.52 g/m*3 5.93 C 8.1 km/h
3214 02-02-2020 05:05:00 7.4 C 6.52 g/m*3 5.58 C 9.7 km/h
3215 02-02-2020 05:10:00 7.4 C 6.52 g/m*3 6.37 C 6.4 km/h
3216 02-02-2020 05:15:00 7.4 C 6.52 g/m*3 5.58 C 9.7 km/h
3217 02-02-2020 05:20:00 7.3 C 6.48 g/m*3 4.66 C 14.5 km/h
3218 02-02-2020 05:25:00 7.3 C 6.56 g/m*3 4.9 C 12.9 km/h
3219 02-02-2020 05:30:00 7.3 C 6.56 g/m*3 5.16 C 11.3 km/h
3220 02-02-2020 05:35:00 7.3 C 6.56 g/m*3 6.25 C 6.4 km/h
3221 02-02-2020 05:40:00 7.3 C 6.56 g/m*3 5.81 C